<?xml version="1.0" encoding="UTF-8" standalone="no" ?>
<gpx xmlns="http://www.topografix.com/GPX/1/1" xmlns:xsi="http://www.w3.org/2001/XMLSchema-instance" xsi:schemaLocation="http://www.topografix.com/GPX/1/1 http://www.topografix.com/GPX/1/1/gpx.xsd" version="1.1" creator="VisuGPX - https://www.visugpx.com">
  <metadata>
    <name>Tricotage au Tuc des Arribans</name>
    <desc><![CDATA[Randonnée à skis autour du Tuc des Arribans - Pène Nère - Escalabor et Soum de Bassots]]></desc>
  </metadata>
  <trk>
    <name><![CDATA[2017-12-05 09:36]]></name>
    <desc><![CDATA[<p>Heure de départ: 12/05/2017 09:36<br/>Heure d'arrivée: 12/05/2017 15:33<br/>Distance: 12,3 km (05:56)<br/>Temps déplacement: 02:34<br/>Vitesse moyenne: 2,06 km/h<br/>Vitesse moyenne mouv.: 4,76 km/h<br/>Vitesse Max.: 38,49 km/h<br/>Altitude minimale: 1676 m<br/>Altitude maximale: 2087 m<br/>Vitesse de montée: 295,1 m/h<br/>Vitesse de descente: -461,9 m/h<br/>Gain d'altitude: 1062 m<br/>Perte d'altitude: -1047 m<br/>Temps de montée: 03:36<br/>Temps de descente: 02:16<br/></p><hr align="center" width="480" style="height: 2px; width: 517px"/>]]></desc>
    <trkseg>
      <trkpt lat="42.8929" lon="-0.06028">
        <ele>1677.58</ele>
        <time>2017-12-05T08:36:32Z</time>
      </trkpt>
      <trkpt lat="42.89297" lon="-0.06029">
        <ele>1679.75</ele>
        <time>2017-12-05T08:38:06Z</time>
      </trkpt>
      <trkpt lat="42.89295" lon="-0.06034">
        <ele>1679.1</ele>
        <time>2017-12-05T08:38:57Z</time>
      </trkpt>
      <trkpt lat="42.89298" lon="-0.06039">
        <ele>1678.79</ele>
        <time>2017-12-05T08:39:03Z</time>
      </trkpt>
      <trkpt lat="42.89303" lon="-0.06041">
        <ele>1678.46</ele>
        <time>2017-12-05T08:39:09Z</time>
      </trkpt>
      <trkpt lat="42.89309" lon="-0.06041">
        <ele>1677.83</ele>
        <time>2017-12-05T08:39:15Z</time>
      </trkpt>
      <trkpt lat="42.89313" lon="-0.06046">
        <ele>1677.34</ele>
        <time>2017-12-05T08:39:21Z</time>
      </trkpt>
      <trkpt lat="42.89318" lon="-0.06047">
        <ele>1676.74</ele>
        <time>2017-12-05T08:40:16Z</time>
      </trkpt>
      <trkpt lat="42.89322" lon="-0.06045">
        <ele>1678.86</ele>
        <time>2017-12-05T08:42:12Z</time>
      </trkpt>
      <trkpt lat="42.89328" lon="-0.06044">
        <ele>1681.45</ele>
        <time>2017-12-05T08:42:57Z</time>
      </trkpt>
      <trkpt lat="42.89332" lon="-0.06048">
        <ele>1681.98</ele>
        <time>2017-12-05T08:43:02Z</time>
      </trkpt>
      <trkpt lat="42.89336" lon="-0.06052">
        <ele>1682.88</ele>
        <time>2017-12-05T08:43:11Z</time>
      </trkpt>
      <trkpt lat="42.89341" lon="-0.06055">
        <ele>1683.29</ele>
        <time>2017-12-05T08:43:15Z</time>
      </trkpt>
      <trkpt lat="42.89336" lon="-0.06056">
        <ele>1683.67</ele>
        <time>2017-12-05T08:43:33Z</time>
      </trkpt>
      <trkpt lat="42.89341" lon="-0.06054">
        <ele>1684.66</ele>
        <time>2017-12-05T08:45:01Z</time>
      </trkpt>
      <trkpt lat="42.89347" lon="-0.06056">
        <ele>1684.76</ele>
        <time>2017-12-05T08:45:04Z</time>
      </trkpt>
      <trkpt lat="42.89351" lon="-0.06057">
        <ele>1684.92</ele>
        <time>2017-12-05T08:45:08Z</time>
      </trkpt>
      <trkpt lat="42.89355" lon="-0.0606">
        <ele>1685.16</ele>
        <time>2017-12-05T08:45:16Z</time>
      </trkpt>
      <trkpt lat="42.8936" lon="-0.06063">
        <ele>1685.18</ele>
        <time>2017-12-05T08:45:21Z</time>
      </trkpt>
      <trkpt lat="42.89365" lon="-0.06065">
        <ele>1685.29</ele>
        <time>2017-12-05T08:45:26Z</time>
      </trkpt>
      <trkpt lat="42.89369" lon="-0.06068">
        <ele>1685.57</ele>
        <time>2017-12-05T08:45:31Z</time>
      </trkpt>
      <trkpt lat="42.89374" lon="-0.0607">
        <ele>1685.72</ele>
        <time>2017-12-05T08:45:36Z</time>
      </trkpt>
      <trkpt lat="42.89379" lon="-0.0607">
        <ele>1685.98</ele>
        <time>2017-12-05T08:45:41Z</time>
      </trkpt>
      <trkpt lat="42.89384" lon="-0.0607">
        <ele>1686.64</ele>
        <time>2017-12-05T08:45:48Z</time>
      </trkpt>
      <trkpt lat="42.89389" lon="-0.06072">
        <ele>1687.46</ele>
        <time>2017-12-05T08:45:56Z</time>
      </trkpt>
      <trkpt lat="42.89394" lon="-0.06072">
        <ele>1687.98</ele>
        <time>2017-12-05T08:46:01Z</time>
      </trkpt>
      <trkpt lat="42.89398" lon="-0.06069">
        <ele>1688.52</ele>
        <time>2017-12-05T08:46:06Z</time>
      </trkpt>
      <trkpt lat="42.89401" lon="-0.06063">
        <ele>1688.91</ele>
        <time>2017-12-05T08:46:11Z</time>
      </trkpt>
      <trkpt lat="42.89405" lon="-0.06059">
        <ele>1689.26</ele>
        <time>2017-12-05T08:46:15Z</time>
      </trkpt>
      <trkpt lat="42.89409" lon="-0.06058">
        <ele>1689.95</ele>
        <time>2017-12-05T08:46:21Z</time>
      </trkpt>
      <trkpt lat="42.89412" lon="-0.06053">
        <ele>1690.53</ele>
        <time>2017-12-05T08:46:27Z</time>
      </trkpt>
      <trkpt lat="42.89417" lon="-0.06049">
        <ele>1691.02</ele>
        <time>2017-12-05T08:46:33Z</time>
      </trkpt>
      <trkpt lat="42.89422" lon="-0.06048">
        <ele>1691.52</ele>
        <time>2017-12-05T08:46:38Z</time>
      </trkpt>
      <trkpt lat="42.89427" lon="-0.06047">
        <ele>1692.17</ele>
        <time>2017-12-05T08:46:43Z</time>
      </trkpt>
      <trkpt lat="42.89427" lon="-0.06054">
        <ele>1692.88</ele>
        <time>2017-12-05T08:46:51Z</time>
      </trkpt>
      <trkpt lat="42.89425" lon="-0.06061">
        <ele>1693.08</ele>
        <time>2017-12-05T08:46:54Z</time>
      </trkpt>
      <trkpt lat="42.89422" lon="-0.06066">
        <ele>1693.46</ele>
        <time>2017-12-05T08:46:59Z</time>
      </trkpt>
      <trkpt lat="42.89419" lon="-0.06072">
        <ele>1693.81</ele>
        <time>2017-12-05T08:47:05Z</time>
      </trkpt>
      <trkpt lat="42.89416" lon="-0.06077">
        <ele>1694.05</ele>
        <time>2017-12-05T08:47:10Z</time>
      </trkpt>
      <trkpt lat="42.89413" lon="-0.06082">
        <ele>1694.22</ele>
        <time>2017-12-05T08:47:15Z</time>
      </trkpt>
      <trkpt lat="42.89409" lon="-0.06089">
        <ele>1694.43</ele>
        <time>2017-12-05T08:47:21Z</time>
      </trkpt>
      <trkpt lat="42.89406" lon="-0.06095">
        <ele>1694.6</ele>
        <time>2017-12-05T08:47:28Z</time>
      </trkpt>
      <trkpt lat="42.89404" lon="-0.06101">
        <ele>1694.65</ele>
        <time>2017-12-05T08:47:34Z</time>
      </trkpt>
      <trkpt lat="42.89402" lon="-0.06107">
        <ele>1694.88</ele>
        <time>2017-12-05T08:47:40Z</time>
      </trkpt>
      <trkpt lat="42.89401" lon="-0.06114">
        <ele>1695.28</ele>
        <time>2017-12-05T08:47:47Z</time>
      </trkpt>
      <trkpt lat="42.89402" lon="-0.06121">
        <ele>1695.64</ele>
        <time>2017-12-05T08:47:51Z</time>
      </trkpt>
      <trkpt lat="42.894" lon="-0.06128">
        <ele>1696.44</ele>
        <time>2017-12-05T08:47:59Z</time>
      </trkpt>
      <trkpt lat="42.89397" lon="-0.06133">
        <ele>1697.09</ele>
        <time>2017-12-05T08:48:07Z</time>
      </trkpt>
      <trkpt lat="42.89395" lon="-0.0614">
        <ele>1697.68</ele>
        <time>2017-12-05T08:48:13Z</time>
      </trkpt>
      <trkpt lat="42.89394" lon="-0.06146">
        <ele>1698.5</ele>
        <time>2017-12-05T08:48:20Z</time>
      </trkpt>
      <trkpt lat="42.89393" lon="-0.06152">
        <ele>1699.15</ele>
        <time>2017-12-05T08:48:26Z</time>
      </trkpt>
      <trkpt lat="42.8939" lon="-0.06159">
        <ele>1699.78</ele>
        <time>2017-12-05T08:48:31Z</time>
      </trkpt>
      <trkpt lat="42.8939" lon="-0.06166">
        <ele>1701.36</ele>
        <time>2017-12-05T08:48:40Z</time>
      </trkpt>
      <trkpt lat="42.89392" lon="-0.06171">
        <ele>1702.58</ele>
        <time>2017-12-05T08:48:47Z</time>
      </trkpt>
      <trkpt lat="42.89395" lon="-0.06176">
        <ele>1704.07</ele>
        <time>2017-12-05T08:48:57Z</time>
      </trkpt>
      <trkpt lat="42.89397" lon="-0.06182">
        <ele>1705.22</ele>
        <time>2017-12-05T08:49:04Z</time>
      </trkpt>
      <trkpt lat="42.89401" lon="-0.06186">
        <ele>1706.39</ele>
        <time>2017-12-05T08:49:11Z</time>
      </trkpt>
      <trkpt lat="42.89405" lon="-0.06191">
        <ele>1708</ele>
        <time>2017-12-05T08:49:19Z</time>
      </trkpt>
      <trkpt lat="42.8941" lon="-0.06193">
        <ele>1709.31</ele>
        <time>2017-12-05T08:49:25Z</time>
      </trkpt>
      <trkpt lat="42.89415" lon="-0.06191">
        <ele>1710.76</ele>
        <time>2017-12-05T08:49:31Z</time>
      </trkpt>
      <trkpt lat="42.8942" lon="-0.06189">
        <ele>1712.28</ele>
        <time>2017-12-05T08:49:37Z</time>
      </trkpt>
      <trkpt lat="42.89424" lon="-0.06184">
        <ele>1714.48</ele>
        <time>2017-12-05T08:49:47Z</time>
      </trkpt>
      <trkpt lat="42.89427" lon="-0.06181">
        <ele>1715.63</ele>
        <time>2017-12-05T08:49:52Z</time>
      </trkpt>
      <trkpt lat="42.89432" lon="-0.06177">
        <ele>1717.63</ele>
        <time>2017-12-05T08:50:00Z</time>
      </trkpt>
      <trkpt lat="42.89436" lon="-0.0618">
        <ele>1719.79</ele>
        <time>2017-12-05T08:50:10Z</time>
      </trkpt>
      <trkpt lat="42.89441" lon="-0.06181">
        <ele>1720.75</ele>
        <time>2017-12-05T08:50:15Z</time>
      </trkpt>
      <trkpt lat="42.89446" lon="-0.0618">
        <ele>1722.54</ele>
        <time>2017-12-05T08:50:23Z</time>
      </trkpt>
      <trkpt lat="42.8945" lon="-0.06175">
        <ele>1723.87</ele>
        <time>2017-12-05T08:50:29Z</time>
      </trkpt>
      <trkpt lat="42.89452" lon="-0.0617">
        <ele>1725.43</ele>
        <time>2017-12-05T08:50:36Z</time>
      </trkpt>
      <trkpt lat="42.89455" lon="-0.06176">
        <ele>1726.73</ele>
        <time>2017-12-05T08:50:49Z</time>
      </trkpt>
      <trkpt lat="42.89452" lon="-0.06181">
        <ele>1727.15</ele>
        <time>2017-12-05T08:50:59Z</time>
      </trkpt>
      <trkpt lat="42.89451" lon="-0.06187">
        <ele>1727.34</ele>
        <time>2017-12-05T08:51:03Z</time>
      </trkpt>
      <trkpt lat="42.89449" lon="-0.06193">
        <ele>1727.7</ele>
        <time>2017-12-05T08:51:09Z</time>
      </trkpt>
      <trkpt lat="42.89449" lon="-0.062">
        <ele>1728.36</ele>
        <time>2017-12-05T08:51:17Z</time>
      </trkpt>
      <trkpt lat="42.89453" lon="-0.06204">
        <ele>1729.09</ele>
        <time>2017-12-05T08:51:24Z</time>
      </trkpt>
      <trkpt lat="42.89459" lon="-0.06203">
        <ele>1730.07</ele>
        <time>2017-12-05T08:51:32Z</time>
      </trkpt>
      <trkpt lat="42.89463" lon="-0.062">
        <ele>1730.85</ele>
        <time>2017-12-05T08:51:36Z</time>
      </trkpt>
      <trkpt lat="42.89467" lon="-0.06196">
        <ele>1732.12</ele>
        <time>2017-12-05T08:51:42Z</time>
      </trkpt>
      <trkpt lat="42.89471" lon="-0.06193">
        <ele>1733.33</ele>
        <time>2017-12-05T08:51:47Z</time>
      </trkpt>
      <trkpt lat="42.89475" lon="-0.06188">
        <ele>1734.89</ele>
        <time>2017-12-05T08:51:53Z</time>
      </trkpt>
      <trkpt lat="42.89479" lon="-0.06186">
        <ele>1736.11</ele>
        <time>2017-12-05T08:51:58Z</time>
      </trkpt>
      <trkpt lat="42.89484" lon="-0.06182">
        <ele>1737.1</ele>
        <time>2017-12-05T08:52:03Z</time>
      </trkpt>
      <trkpt lat="42.89488" lon="-0.06177">
        <ele>1737.99</ele>
        <time>2017-12-05T08:52:09Z</time>
      </trkpt>
      <trkpt lat="42.89492" lon="-0.06176">
        <ele>1739.01</ele>
        <time>2017-12-05T08:52:15Z</time>
      </trkpt>
      <trkpt lat="42.89498" lon="-0.06177">
        <ele>1740.19</ele>
        <time>2017-12-05T08:52:23Z</time>
      </trkpt>
      <trkpt lat="42.89501" lon="-0.06182">
        <ele>1740.78</ele>
        <time>2017-12-05T08:52:28Z</time>
      </trkpt>
      <trkpt lat="42.89503" lon="-0.06187">
        <ele>1741.22</ele>
        <time>2017-12-05T08:52:34Z</time>
      </trkpt>
      <trkpt lat="42.89505" lon="-0.06193">
        <ele>1741.29</ele>
        <time>2017-12-05T08:52:38Z</time>
      </trkpt>
      <trkpt lat="42.89509" lon="-0.06197">
        <ele>1740.93</ele>
        <time>2017-12-05T08:52:41Z</time>
      </trkpt>
      <trkpt lat="42.89512" lon="-0.06204">
        <ele>1740.71</ele>
        <time>2017-12-05T08:52:47Z</time>
      </trkpt>
      <trkpt lat="42.89514" lon="-0.0621">
        <ele>1740.56</ele>
        <time>2017-12-05T08:52:51Z</time>
      </trkpt>
      <trkpt lat="42.89515" lon="-0.06216">
        <ele>1740.21</ele>
        <time>2017-12-05T08:52:55Z</time>
      </trkpt>
      <trkpt lat="42.89516" lon="-0.06223">
        <ele>1739.61</ele>
        <time>2017-12-05T08:53:00Z</time>
      </trkpt>
      <trkpt lat="42.89512" lon="-0.06228">
        <ele>1738.65</ele>
        <time>2017-12-05T08:53:07Z</time>
      </trkpt>
      <trkpt lat="42.8951" lon="-0.06234">
        <ele>1737.94</ele>
        <time>2017-12-05T08:53:12Z</time>
      </trkpt>
      <trkpt lat="42.89508" lon="-0.0624">
        <ele>1737.53</ele>
        <time>2017-12-05T08:53:25Z</time>
      </trkpt>
      <trkpt lat="42.89507" lon="-0.06247">
        <ele>1737.44</ele>
        <time>2017-12-05T08:53:29Z</time>
      </trkpt>
      <trkpt lat="42.89506" lon="-0.06253">
        <ele>1737.3</ele>
        <time>2017-12-05T08:53:33Z</time>
      </trkpt>
      <trkpt lat="42.89507" lon="-0.06247">
        <ele>1737.58</ele>
        <time>2017-12-05T08:54:08Z</time>
      </trkpt>
      <trkpt lat="42.89505" lon="-0.06255">
        <ele>1740.34</ele>
        <time>2017-12-05T08:55:53Z</time>
      </trkpt>
      <trkpt lat="42.89505" lon="-0.06262">
        <ele>1740.62</ele>
        <time>2017-12-05T08:55:56Z</time>
      </trkpt>
      <trkpt lat="42.89504" lon="-0.06269">
        <ele>1740.87</ele>
        <time>2017-12-05T08:55:59Z</time>
      </trkpt>
      <trkpt lat="42.89504" lon="-0.06276">
        <ele>1741.16</ele>
        <time>2017-12-05T08:56:03Z</time>
      </trkpt>
      <trkpt lat="42.89504" lon="-0.06283">
        <ele>1741.44</ele>
        <time>2017-12-05T08:56:07Z</time>
      </trkpt>
      <trkpt lat="42.89506" lon="-0.06289">
        <ele>1741.62</ele>
        <time>2017-12-05T08:56:11Z</time>
      </trkpt>
      <trkpt lat="42.89507" lon="-0.06297">
        <ele>1741.63</ele>
        <time>2017-12-05T08:56:14Z</time>
      </trkpt>
      <trkpt lat="42.89508" lon="-0.06305">
        <ele>1741.57</ele>
        <time>2017-12-05T08:56:18Z</time>
      </trkpt>
      <trkpt lat="42.89509" lon="-0.06311">
        <ele>1741.47</ele>
        <time>2017-12-05T08:56:22Z</time>
      </trkpt>
      <trkpt lat="42.89509" lon="-0.06318">
        <ele>1741.38</ele>
        <time>2017-12-05T08:56:26Z</time>
      </trkpt>
      <trkpt lat="42.89509" lon="-0.06325">
        <ele>1741.35</ele>
        <time>2017-12-05T08:56:29Z</time>
      </trkpt>
      <trkpt lat="42.89509" lon="-0.06331">
        <ele>1741.38</ele>
        <time>2017-12-05T08:56:34Z</time>
      </trkpt>
      <trkpt lat="42.8951" lon="-0.06339">
        <ele>1741.4</ele>
        <time>2017-12-05T08:56:39Z</time>
      </trkpt>
      <trkpt lat="42.89511" lon="-0.06346">
        <ele>1741.39</ele>
        <time>2017-12-05T08:56:44Z</time>
      </trkpt>
      <trkpt lat="42.89512" lon="-0.06353">
        <ele>1741.46</ele>
        <time>2017-12-05T08:56:49Z</time>
      </trkpt>
      <trkpt lat="42.89513" lon="-0.06359">
        <ele>1741.55</ele>
        <time>2017-12-05T08:56:53Z</time>
      </trkpt>
      <trkpt lat="42.89514" lon="-0.06366">
        <ele>1741.67</ele>
        <time>2017-12-05T08:56:58Z</time>
      </trkpt>
      <trkpt lat="42.89516" lon="-0.06373">
        <ele>1741.82</ele>
        <time>2017-12-05T08:57:03Z</time>
      </trkpt>
      <trkpt lat="42.89519" lon="-0.06379">
        <ele>1741.93</ele>
        <time>2017-12-05T08:57:07Z</time>
      </trkpt>
      <trkpt lat="42.89523" lon="-0.06384">
        <ele>1741.98</ele>
        <time>2017-12-05T08:57:11Z</time>
      </trkpt>
      <trkpt lat="42.89526" lon="-0.06388">
        <ele>1741.98</ele>
        <time>2017-12-05T08:57:14Z</time>
      </trkpt>
      <trkpt lat="42.89531" lon="-0.06391">
        <ele>1741.92</ele>
        <time>2017-12-05T08:57:17Z</time>
      </trkpt>
      <trkpt lat="42.89536" lon="-0.06391">
        <ele>1741.82</ele>
        <time>2017-12-05T08:57:21Z</time>
      </trkpt>
      <trkpt lat="42.89541" lon="-0.06388">
        <ele>1741.78</ele>
        <time>2017-12-05T08:57:27Z</time>
      </trkpt>
      <trkpt lat="42.89545" lon="-0.06384">
        <ele>1741.89</ele>
        <time>2017-12-05T08:57:31Z</time>
      </trkpt>
      <trkpt lat="42.89549" lon="-0.0638">
        <ele>1742.07</ele>
        <time>2017-12-05T08:57:36Z</time>
      </trkpt>
      <trkpt lat="42.89553" lon="-0.06376">
        <ele>1742.2</ele>
        <time>2017-12-05T08:57:41Z</time>
      </trkpt>
      <trkpt lat="42.89556" lon="-0.06372">
        <ele>1742.42</ele>
        <time>2017-12-05T08:57:46Z</time>
      </trkpt>
      <trkpt lat="42.89561" lon="-0.06368">
        <ele>1742.71</ele>
        <time>2017-12-05T08:57:51Z</time>
      </trkpt>
      <trkpt lat="42.89565" lon="-0.06363">
        <ele>1742.88</ele>
        <time>2017-12-05T08:57:55Z</time>
      </trkpt>
      <trkpt lat="42.89569" lon="-0.06358">
        <ele>1743.26</ele>
        <time>2017-12-05T08:58:01Z</time>
      </trkpt>
      <trkpt lat="42.89572" lon="-0.06354">
        <ele>1743.51</ele>
        <time>2017-12-05T08:58:04Z</time>
      </trkpt>
      <trkpt lat="42.89577" lon="-0.06351">
        <ele>1743.79</ele>
        <time>2017-12-05T08:58:08Z</time>
      </trkpt>
      <trkpt lat="42.89581" lon="-0.06347">
        <ele>1743.9</ele>
        <time>2017-12-05T08:58:11Z</time>
      </trkpt>
      <trkpt lat="42.89585" lon="-0.06344">
        <ele>1743.92</ele>
        <time>2017-12-05T08:58:14Z</time>
      </trkpt>
      <trkpt lat="42.89589" lon="-0.06339">
        <ele>1743.79</ele>
        <time>2017-12-05T08:58:18Z</time>
      </trkpt>
      <trkpt lat="42.89593" lon="-0.06336">
        <ele>1743.66</ele>
        <time>2017-12-05T08:58:22Z</time>
      </trkpt>
      <trkpt lat="42.89597" lon="-0.06332">
        <ele>1743.54</ele>
        <time>2017-12-05T08:58:26Z</time>
      </trkpt>
      <trkpt lat="42.89601" lon="-0.06328">
        <ele>1743.43</ele>
        <time>2017-12-05T08:58:31Z</time>
      </trkpt>
      <trkpt lat="42.89605" lon="-0.06324">
        <ele>1743.55</ele>
        <time>2017-12-05T08:58:37Z</time>
      </trkpt>
      <trkpt lat="42.8961" lon="-0.06321">
        <ele>1743.68</ele>
        <time>2017-12-05T08:58:41Z</time>
      </trkpt>
      <trkpt lat="42.89613" lon="-0.06317">
        <ele>1743.91</ele>
        <time>2017-12-05T08:58:46Z</time>
      </trkpt>
      <trkpt lat="42.89618" lon="-0.06313">
        <ele>1744.33</ele>
        <time>2017-12-05T08:58:51Z</time>
      </trkpt>
      <trkpt lat="42.89623" lon="-0.0631">
        <ele>1744.83</ele>
        <time>2017-12-05T08:58:56Z</time>
      </trkpt>
      <trkpt lat="42.89628" lon="-0.06309">
        <ele>1745.32</ele>
        <time>2017-12-05T08:59:01Z</time>
      </trkpt>
      <trkpt lat="42.89633" lon="-0.06308">
        <ele>1745.71</ele>
        <time>2017-12-05T08:59:05Z</time>
      </trkpt>
      <trkpt lat="42.89638" lon="-0.06306">
        <ele>1746.1</ele>
        <time>2017-12-05T08:59:09Z</time>
      </trkpt>
      <trkpt lat="42.89643" lon="-0.06304">
        <ele>1746.47</ele>
        <time>2017-12-05T08:59:13Z</time>
      </trkpt>
      <trkpt lat="42.89648" lon="-0.06302">
        <ele>1746.75</ele>
        <time>2017-12-05T08:59:17Z</time>
      </trkpt>
      <trkpt lat="42.89653" lon="-0.063">
        <ele>1746.89</ele>
        <time>2017-12-05T08:59:21Z</time>
      </trkpt>
      <trkpt lat="42.89657" lon="-0.06297">
        <ele>1746.89</ele>
        <time>2017-12-05T08:59:24Z</time>
      </trkpt>
      <trkpt lat="42.89661" lon="-0.06294">
        <ele>1746.82</ele>
        <time>2017-12-05T08:59:28Z</time>
      </trkpt>
      <trkpt lat="42.89665" lon="-0.0629">
        <ele>1746.76</ele>
        <time>2017-12-05T08:59:33Z</time>
      </trkpt>
      <trkpt lat="42.89669" lon="-0.06286">
        <ele>1746.99</ele>
        <time>2017-12-05T08:59:39Z</time>
      </trkpt>
      <trkpt lat="42.89672" lon="-0.06282">
        <ele>1747.17</ele>
        <time>2017-12-05T08:59:43Z</time>
      </trkpt>
      <trkpt lat="42.89676" lon="-0.06278">
        <ele>1747.32</ele>
        <time>2017-12-05T08:59:47Z</time>
      </trkpt>
      <trkpt lat="42.89679" lon="-0.06274">
        <ele>1747.58</ele>
        <time>2017-12-05T08:59:51Z</time>
      </trkpt>
      <trkpt lat="42.89684" lon="-0.0627">
        <ele>1747.95</ele>
        <time>2017-12-05T08:59:55Z</time>
      </trkpt>
      <trkpt lat="42.89688" lon="-0.06266">
        <ele>1748.34</ele>
        <time>2017-12-05T08:59:59Z</time>
      </trkpt>
      <trkpt lat="42.89693" lon="-0.06264">
        <ele>1748.84</ele>
        <time>2017-12-05T09:00:03Z</time>
      </trkpt>
      <trkpt lat="42.89698" lon="-0.06264">
        <ele>1749.49</ele>
        <time>2017-12-05T09:00:08Z</time>
      </trkpt>
      <trkpt lat="42.89704" lon="-0.06266">
        <ele>1750.01</ele>
        <time>2017-12-05T09:00:13Z</time>
      </trkpt>
      <trkpt lat="42.89708" lon="-0.06268">
        <ele>1750.41</ele>
        <time>2017-12-05T09:00:17Z</time>
      </trkpt>
      <trkpt lat="42.89713" lon="-0.06271">
        <ele>1750.92</ele>
        <time>2017-12-05T09:00:22Z</time>
      </trkpt>
      <trkpt lat="42.89717" lon="-0.06274">
        <ele>1751.31</ele>
        <time>2017-12-05T09:00:26Z</time>
      </trkpt>
      <trkpt lat="42.89721" lon="-0.06277">
        <ele>1751.65</ele>
        <time>2017-12-05T09:00:31Z</time>
      </trkpt>
      <trkpt lat="42.89726" lon="-0.06281">
        <ele>1751.87</ele>
        <time>2017-12-05T09:00:36Z</time>
      </trkpt>
      <trkpt lat="42.8973" lon="-0.06285">
        <ele>1752.11</ele>
        <time>2017-12-05T09:00:41Z</time>
      </trkpt>
      <trkpt lat="42.89735" lon="-0.06288">
        <ele>1752.52</ele>
        <time>2017-12-05T09:00:46Z</time>
      </trkpt>
      <trkpt lat="42.89738" lon="-0.06293">
        <ele>1753.11</ele>
        <time>2017-12-05T09:00:51Z</time>
      </trkpt>
      <trkpt lat="42.89742" lon="-0.06296">
        <ele>1753.58</ele>
        <time>2017-12-05T09:00:55Z</time>
      </trkpt>
      <trkpt lat="42.89747" lon="-0.06298">
        <ele>1754.15</ele>
        <time>2017-12-05T09:01:00Z</time>
      </trkpt>
      <trkpt lat="42.89752" lon="-0.06297">
        <ele>1754.61</ele>
        <time>2017-12-05T09:01:04Z</time>
      </trkpt>
      <trkpt lat="42.89757" lon="-0.06295">
        <ele>1755.12</ele>
        <time>2017-12-05T09:01:09Z</time>
      </trkpt>
      <trkpt lat="42.89761" lon="-0.06292">
        <ele>1755.5</ele>
        <time>2017-12-05T09:01:13Z</time>
      </trkpt>
      <trkpt lat="42.89766" lon="-0.06289">
        <ele>1755.75</ele>
        <time>2017-12-05T09:01:16Z</time>
      </trkpt>
      <trkpt lat="42.8977" lon="-0.06285">
        <ele>1756.09</ele>
        <time>2017-12-05T09:01:20Z</time>
      </trkpt>
      <trkpt lat="42.89775" lon="-0.06281">
        <ele>1756.5</ele>
        <time>2017-12-05T09:01:25Z</time>
      </trkpt>
      <trkpt lat="42.89779" lon="-0.06278">
        <ele>1756.86</ele>
        <time>2017-12-05T09:01:30Z</time>
      </trkpt>
      <trkpt lat="42.89784" lon="-0.06275">
        <ele>1757.22</ele>
        <time>2017-12-05T09:01:35Z</time>
      </trkpt>
      <trkpt lat="42.89789" lon="-0.06273">
        <ele>1757.49</ele>
        <time>2017-12-05T09:01:39Z</time>
      </trkpt>
      <trkpt lat="42.89794" lon="-0.06271">
        <ele>1757.78</ele>
        <time>2017-12-05T09:01:43Z</time>
      </trkpt>
      <trkpt lat="42.89799" lon="-0.0627">
        <ele>1758.15</ele>
        <time>2017-12-05T09:01:48Z</time>
      </trkpt>
      <trkpt lat="42.89805" lon="-0.06269">
        <ele>1758.52</ele>
        <time>2017-12-05T09:01:53Z</time>
      </trkpt>
      <trkpt lat="42.8981" lon="-0.06267">
        <ele>1758.87</ele>
        <time>2017-12-05T09:01:58Z</time>
      </trkpt>
      <trkpt lat="42.89814" lon="-0.06263">
        <ele>1759.11</ele>
        <time>2017-12-05T09:02:02Z</time>
      </trkpt>
      <trkpt lat="42.89818" lon="-0.0626">
        <ele>1759.35</ele>
        <time>2017-12-05T09:02:06Z</time>
      </trkpt>
      <trkpt lat="42.89822" lon="-0.06255">
        <ele>1759.59</ele>
        <time>2017-12-05T09:02:11Z</time>
      </trkpt>
      <trkpt lat="42.89826" lon="-0.0625">
        <ele>1759.75</ele>
        <time>2017-12-05T09:02:15Z</time>
      </trkpt>
      <trkpt lat="42.89829" lon="-0.06244">
        <ele>1759.85</ele>
        <time>2017-12-05T09:02:19Z</time>
      </trkpt>
      <trkpt lat="42.89832" lon="-0.06238">
        <ele>1759.85</ele>
        <time>2017-12-05T09:02:22Z</time>
      </trkpt>
      <trkpt lat="42.89834" lon="-0.06231">
        <ele>1759.72</ele>
        <time>2017-12-05T09:02:27Z</time>
      </trkpt>
      <trkpt lat="42.89836" lon="-0.06225">
        <ele>1759.62</ele>
        <time>2017-12-05T09:02:31Z</time>
      </trkpt>
      <trkpt lat="42.89837" lon="-0.06219">
        <ele>1759.49</ele>
        <time>2017-12-05T09:02:36Z</time>
      </trkpt>
      <trkpt lat="42.89838" lon="-0.06212">
        <ele>1759.43</ele>
        <time>2017-12-05T09:02:41Z</time>
      </trkpt>
      <trkpt lat="42.89839" lon="-0.06206">
        <ele>1759.43</ele>
        <time>2017-12-05T09:02:45Z</time>
      </trkpt>
      <trkpt lat="42.8984" lon="-0.062">
        <ele>1759.47</ele>
        <time>2017-12-05T09:02:49Z</time>
      </trkpt>
      <trkpt lat="42.89842" lon="-0.06193">
        <ele>1759.56</ele>
        <time>2017-12-05T09:02:54Z</time>
      </trkpt>
      <trkpt lat="42.89844" lon="-0.06186">
        <ele>1759.63</ele>
        <time>2017-12-05T09:02:59Z</time>
      </trkpt>
      <trkpt lat="42.89846" lon="-0.0618">
        <ele>1759.64</ele>
        <time>2017-12-05T09:03:03Z</time>
      </trkpt>
      <trkpt lat="42.89847" lon="-0.06173">
        <ele>1759.63</ele>
        <time>2017-12-05T09:03:07Z</time>
      </trkpt>
      <trkpt lat="42.89849" lon="-0.06167">
        <ele>1759.63</ele>
        <time>2017-12-05T09:03:10Z</time>
      </trkpt>
      <trkpt lat="42.89852" lon="-0.06159">
        <ele>1759.6</ele>
        <time>2017-12-05T09:03:15Z</time>
      </trkpt>
      <trkpt lat="42.89854" lon="-0.06153">
        <ele>1759.49</ele>
        <time>2017-12-05T09:03:19Z</time>
      </trkpt>
      <trkpt lat="42.89859" lon="-0.06151">
        <ele>1759.41</ele>
        <time>2017-12-05T09:03:25Z</time>
      </trkpt>
      <trkpt lat="42.89864" lon="-0.0615">
        <ele>1759.6</ele>
        <time>2017-12-05T09:03:31Z</time>
      </trkpt>
      <trkpt lat="42.89869" lon="-0.06151">
        <ele>1759.77</ele>
        <time>2017-12-05T09:03:36Z</time>
      </trkpt>
      <trkpt lat="42.89874" lon="-0.06155">
        <ele>1760.01</ele>
        <time>2017-12-05T09:03:42Z</time>
      </trkpt>
      <trkpt lat="42.89878" lon="-0.06159">
        <ele>1760.2</ele>
        <time>2017-12-05T09:03:46Z</time>
      </trkpt>
      <trkpt lat="42.89882" lon="-0.06164">
        <ele>1760.28</ele>
        <time>2017-12-05T09:03:50Z</time>
      </trkpt>
      <trkpt lat="42.89886" lon="-0.06169">
        <ele>1760.12</ele>
        <time>2017-12-05T09:03:54Z</time>
      </trkpt>
      <trkpt lat="42.89889" lon="-0.06174">
        <ele>1759.85</ele>
        <time>2017-12-05T09:03:58Z</time>
      </trkpt>
      <trkpt lat="42.89894" lon="-0.06177">
        <ele>1759.55</ele>
        <time>2017-12-05T09:04:03Z</time>
      </trkpt>
      <trkpt lat="42.89898" lon="-0.0618">
        <ele>1759.29</ele>
        <time>2017-12-05T09:04:08Z</time>
      </trkpt>
      <trkpt lat="42.89903" lon="-0.06183">
        <ele>1759.01</ele>
        <time>2017-12-05T09:04:14Z</time>
      </trkpt>
      <trkpt lat="42.89907" lon="-0.06185">
        <ele>1758.72</ele>
        <time>2017-12-05T09:04:19Z</time>
      </trkpt>
      <trkpt lat="42.89912" lon="-0.06185">
        <ele>1758.47</ele>
        <time>2017-12-05T09:04:23Z</time>
      </trkpt>
      <trkpt lat="42.89917" lon="-0.06185">
        <ele>1758.23</ele>
        <time>2017-12-05T09:04:28Z</time>
      </trkpt>
      <trkpt lat="42.89922" lon="-0.06187">
        <ele>1758.17</ele>
        <time>2017-12-05T09:04:33Z</time>
      </trkpt>
      <trkpt lat="42.89926" lon="-0.06189">
        <ele>1758.14</ele>
        <time>2017-12-05T09:04:37Z</time>
      </trkpt>
      <trkpt lat="42.89931" lon="-0.0619">
        <ele>1758.1</ele>
        <time>2017-12-05T09:04:41Z</time>
      </trkpt>
      <trkpt lat="42.89937" lon="-0.06192">
        <ele>1758.04</ele>
        <time>2017-12-05T09:04:46Z</time>
      </trkpt>
      <trkpt lat="42.89942" lon="-0.06193">
        <ele>1757.99</ele>
        <time>2017-12-05T09:04:53Z</time>
      </trkpt>
      <trkpt lat="42.89947" lon="-0.06192">
        <ele>1758.06</ele>
        <time>2017-12-05T09:04:58Z</time>
      </trkpt>
      <trkpt lat="42.89952" lon="-0.06189">
        <ele>1757.99</ele>
        <time>2017-12-05T09:05:02Z</time>
      </trkpt>
      <trkpt lat="42.89956" lon="-0.06188">
        <ele>1757.82</ele>
        <time>2017-12-05T09:05:06Z</time>
      </trkpt>
      <trkpt lat="42.89961" lon="-0.06186">
        <ele>1757.59</ele>
        <time>2017-12-05T09:05:11Z</time>
      </trkpt>
      <trkpt lat="42.89966" lon="-0.06183">
        <ele>1757.47</ele>
        <time>2017-12-05T09:05:15Z</time>
      </trkpt>
      <trkpt lat="42.89971" lon="-0.06181">
        <ele>1757.43</ele>
        <time>2017-12-05T09:05:20Z</time>
      </trkpt>
      <trkpt lat="42.89976" lon="-0.06178">
        <ele>1757.51</ele>
        <time>2017-12-05T09:05:25Z</time>
      </trkpt>
      <trkpt lat="42.89982" lon="-0.06177">
        <ele>1757.58</ele>
        <time>2017-12-05T09:05:30Z</time>
      </trkpt>
      <trkpt lat="42.89986" lon="-0.06175">
        <ele>1757.65</ele>
        <time>2017-12-05T09:05:35Z</time>
      </trkpt>
      <trkpt lat="42.89991" lon="-0.06174">
        <ele>1757.93</ele>
        <time>2017-12-05T09:05:40Z</time>
      </trkpt>
      <trkpt lat="42.89996" lon="-0.06176">
        <ele>1758.24</ele>
        <time>2017-12-05T09:05:45Z</time>
      </trkpt>
      <trkpt lat="42.9" lon="-0.06178">
        <ele>1758.62</ele>
        <time>2017-12-05T09:05:50Z</time>
      </trkpt>
      <trkpt lat="42.90005" lon="-0.0618">
        <ele>1759.01</ele>
        <time>2017-12-05T09:05:54Z</time>
      </trkpt>
      <trkpt lat="42.9001" lon="-0.0618">
        <ele>1759.31</ele>
        <time>2017-12-05T09:05:58Z</time>
      </trkpt>
      <trkpt lat="42.90016" lon="-0.0618">
        <ele>1759.52</ele>
        <time>2017-12-05T09:06:02Z</time>
      </trkpt>
      <trkpt lat="42.90021" lon="-0.0618">
        <ele>1759.63</ele>
        <time>2017-12-05T09:06:06Z</time>
      </trkpt>
      <trkpt lat="42.90026" lon="-0.06179">
        <ele>1759.64</ele>
        <time>2017-12-05T09:06:10Z</time>
      </trkpt>
      <trkpt lat="42.9003" lon="-0.06179">
        <ele>1759.59</ele>
        <time>2017-12-05T09:06:15Z</time>
      </trkpt>
      <trkpt lat="42.90036" lon="-0.06178">
        <ele>1759.54</ele>
        <time>2017-12-05T09:06:20Z</time>
      </trkpt>
      <trkpt lat="42.90041" lon="-0.06178">
        <ele>1759.49</ele>
        <time>2017-12-05T09:06:24Z</time>
      </trkpt>
      <trkpt lat="42.90045" lon="-0.06178">
        <ele>1759.51</ele>
        <time>2017-12-05T09:06:28Z</time>
      </trkpt>
      <trkpt lat="42.9005" lon="-0.06177">
        <ele>1759.55</ele>
        <time>2017-12-05T09:06:32Z</time>
      </trkpt>
      <trkpt lat="42.90055" lon="-0.06178">
        <ele>1759.6</ele>
        <time>2017-12-05T09:06:36Z</time>
      </trkpt>
      <trkpt lat="42.9006" lon="-0.06178">
        <ele>1759.67</ele>
        <time>2017-12-05T09:06:40Z</time>
      </trkpt>
      <trkpt lat="42.90065" lon="-0.06178">
        <ele>1759.69</ele>
        <time>2017-12-05T09:06:44Z</time>
      </trkpt>
      <trkpt lat="42.90071" lon="-0.06178">
        <ele>1759.67</ele>
        <time>2017-12-05T09:06:48Z</time>
      </trkpt>
      <trkpt lat="42.90076" lon="-0.06178">
        <ele>1759.62</ele>
        <time>2017-12-05T09:06:51Z</time>
      </trkpt>
      <trkpt lat="42.9008" lon="-0.06177">
        <ele>1759.53</ele>
        <time>2017-12-05T09:06:54Z</time>
      </trkpt>
      <trkpt lat="42.90085" lon="-0.06175">
        <ele>1759.35</ele>
        <time>2017-12-05T09:06:58Z</time>
      </trkpt>
      <trkpt lat="42.90089" lon="-0.06171">
        <ele>1759.18</ele>
        <time>2017-12-05T09:07:02Z</time>
      </trkpt>
      <trkpt lat="42.90094" lon="-0.06166">
        <ele>1759.06</ele>
        <time>2017-12-05T09:07:07Z</time>
      </trkpt>
      <trkpt lat="42.90097" lon="-0.06162">
        <ele>1759.01</ele>
        <time>2017-12-05T09:07:12Z</time>
      </trkpt>
      <trkpt lat="42.90102" lon="-0.06158">
        <ele>1759.03</ele>
        <time>2017-12-05T09:07:17Z</time>
      </trkpt>
      <trkpt lat="42.90106" lon="-0.06155">
        <ele>1759.17</ele>
        <time>2017-12-05T09:07:22Z</time>
      </trkpt>
      <trkpt lat="42.90109" lon="-0.06151">
        <ele>1759.58</ele>
        <time>2017-12-05T09:07:28Z</time>
      </trkpt>
      <trkpt lat="42.90114" lon="-0.06146">
        <ele>1759.87</ele>
        <time>2017-12-05T09:07:32Z</time>
      </trkpt>
      <trkpt lat="42.90118" lon="-0.06142">
        <ele>1760.11</ele>
        <time>2017-12-05T09:07:36Z</time>
      </trkpt>
      <trkpt lat="42.90122" lon="-0.06139">
        <ele>1760.34</ele>
        <time>2017-12-05T09:07:40Z</time>
      </trkpt>
      <trkpt lat="42.90126" lon="-0.06135">
        <ele>1760.6</ele>
        <time>2017-12-05T09:07:44Z</time>
      </trkpt>
      <trkpt lat="42.90131" lon="-0.06132">
        <ele>1760.99</ele>
        <time>2017-12-05T09:07:50Z</time>
      </trkpt>
      <trkpt lat="42.90136" lon="-0.06131">
        <ele>1761.25</ele>
        <time>2017-12-05T09:07:54Z</time>
      </trkpt>
      <trkpt lat="42.9014" lon="-0.06135">
        <ele>1761.56</ele>
        <time>2017-12-05T09:07:59Z</time>
      </trkpt>
      <trkpt lat="42.90144" lon="-0.06139">
        <ele>1761.76</ele>
        <time>2017-12-05T09:08:03Z</time>
      </trkpt>
      <trkpt lat="42.90148" lon="-0.06144">
        <ele>1761.85</ele>
        <time>2017-12-05T09:08:07Z</time>
      </trkpt>
      <trkpt lat="42.90153" lon="-0.06148">
        <ele>1761.75</ele>
        <time>2017-12-05T09:08:12Z</time>
      </trkpt>
      <trkpt lat="42.90157" lon="-0.06153">
        <ele>1761.5</ele>
        <time>2017-12-05T09:08:17Z</time>
      </trkpt>
      <trkpt lat="42.90161" lon="-0.06157">
        <ele>1761.26</ele>
        <time>2017-12-05T09:08:22Z</time>
      </trkpt>
      <trkpt lat="42.90164" lon="-0.06163">
        <ele>1761.03</ele>
        <time>2017-12-05T09:08:27Z</time>
      </trkpt>
      <trkpt lat="42.90168" lon="-0.06168">
        <ele>1760.88</ele>
        <time>2017-12-05T09:08:33Z</time>
      </trkpt>
      <trkpt lat="42.90171" lon="-0.06171">
        <ele>1760.89</ele>
        <time>2017-12-05T09:08:38Z</time>
      </trkpt>
      <trkpt lat="42.90175" lon="-0.06176">
        <ele>1760.98</ele>
        <time>2017-12-05T09:08:43Z</time>
      </trkpt>
      <trkpt lat="42.90179" lon="-0.06182">
        <ele>1761.1</ele>
        <time>2017-12-05T09:08:48Z</time>
      </trkpt>
      <trkpt lat="42.90182" lon="-0.06189">
        <ele>1761.32</ele>
        <time>2017-12-05T09:08:53Z</time>
      </trkpt>
      <trkpt lat="42.90185" lon="-0.06196">
        <ele>1761.56</ele>
        <time>2017-12-05T09:08:57Z</time>
      </trkpt>
      <trkpt lat="42.90186" lon="-0.06202">
        <ele>1761.86</ele>
        <time>2017-12-05T09:09:02Z</time>
      </trkpt>
      <trkpt lat="42.90191" lon="-0.06204">
        <ele>1762.49</ele>
        <time>2017-12-05T09:09:47Z</time>
      </trkpt>
      <trkpt lat="42.90193" lon="-0.06209">
        <ele>1762.63</ele>
        <time>2017-12-05T09:09:52Z</time>
      </trkpt>
      <trkpt lat="42.90195" lon="-0.06215">
        <ele>1762.86</ele>
        <time>2017-12-05T09:09:57Z</time>
      </trkpt>
      <trkpt lat="42.90196" lon="-0.06223">
        <ele>1763.17</ele>
        <time>2017-12-05T09:10:02Z</time>
      </trkpt>
      <trkpt lat="42.90198" lon="-0.06229">
        <ele>1763.47</ele>
        <time>2017-12-05T09:10:06Z</time>
      </trkpt>
      <trkpt lat="42.90199" lon="-0.06236">
        <ele>1763.93</ele>
        <time>2017-12-05T09:10:12Z</time>
      </trkpt>
      <trkpt lat="42.90201" lon="-0.06242">
        <ele>1764.26</ele>
        <time>2017-12-05T09:10:18Z</time>
      </trkpt>
      <trkpt lat="42.90204" lon="-0.06248">
        <ele>1764.58</ele>
        <time>2017-12-05T09:10:24Z</time>
      </trkpt>
      <trkpt lat="42.90206" lon="-0.06254">
        <ele>1764.9</ele>
        <time>2017-12-05T09:10:29Z</time>
      </trkpt>
      <trkpt lat="42.90208" lon="-0.0626">
        <ele>1765.19</ele>
        <time>2017-12-05T09:10:34Z</time>
      </trkpt>
      <trkpt lat="42.90211" lon="-0.06265">
        <ele>1765.41</ele>
        <time>2017-12-05T09:10:39Z</time>
      </trkpt>
      <trkpt lat="42.90215" lon="-0.06269">
        <ele>1765.73</ele>
        <time>2017-12-05T09:10:44Z</time>
      </trkpt>
      <trkpt lat="42.90219" lon="-0.06274">
        <ele>1766.15</ele>
        <time>2017-12-05T09:10:49Z</time>
      </trkpt>
      <trkpt lat="42.90223" lon="-0.06278">
        <ele>1766.68</ele>
        <time>2017-12-05T09:10:55Z</time>
      </trkpt>
      <trkpt lat="42.90226" lon="-0.06284">
        <ele>1767.1</ele>
        <time>2017-12-05T09:11:00Z</time>
      </trkpt>
      <trkpt lat="42.90229" lon="-0.0629">
        <ele>1767.54</ele>
        <time>2017-12-05T09:11:05Z</time>
      </trkpt>
      <trkpt lat="42.90233" lon="-0.06294">
        <ele>1767.97</ele>
        <time>2017-12-05T09:11:10Z</time>
      </trkpt>
      <trkpt lat="42.90237" lon="-0.06298">
        <ele>1768.34</ele>
        <time>2017-12-05T09:11:15Z</time>
      </trkpt>
      <trkpt lat="42.9024" lon="-0.06303">
        <ele>1768.67</ele>
        <time>2017-12-05T09:11:20Z</time>
      </trkpt>
      <trkpt lat="42.90245" lon="-0.06308">
        <ele>1769.05</ele>
        <time>2017-12-05T09:11:25Z</time>
      </trkpt>
      <trkpt lat="42.90249" lon="-0.06311">
        <ele>1769.55</ele>
        <time>2017-12-05T09:11:30Z</time>
      </trkpt>
      <trkpt lat="42.90253" lon="-0.06315">
        <ele>1770.03</ele>
        <time>2017-12-05T09:11:35Z</time>
      </trkpt>
      <trkpt lat="42.90257" lon="-0.06319">
        <ele>1770.37</ele>
        <time>2017-12-05T09:11:39Z</time>
      </trkpt>
      <trkpt lat="42.9026" lon="-0.06324">
        <ele>1770.62</ele>
        <time>2017-12-05T09:11:43Z</time>
      </trkpt>
      <trkpt lat="42.90264" lon="-0.06329">
        <ele>1770.92</ele>
        <time>2017-12-05T09:11:48Z</time>
      </trkpt>
      <trkpt lat="42.90267" lon="-0.06335">
        <ele>1771.19</ele>
        <time>2017-12-05T09:11:53Z</time>
      </trkpt>
      <trkpt lat="42.90271" lon="-0.06339">
        <ele>1771.4</ele>
        <time>2017-12-05T09:11:58Z</time>
      </trkpt>
      <trkpt lat="42.90275" lon="-0.06344">
        <ele>1771.69</ele>
        <time>2017-12-05T09:12:03Z</time>
      </trkpt>
      <trkpt lat="42.90278" lon="-0.06349">
        <ele>1772.05</ele>
        <time>2017-12-05T09:12:07Z</time>
      </trkpt>
      <trkpt lat="42.90282" lon="-0.06354">
        <ele>1772.57</ele>
        <time>2017-12-05T09:12:12Z</time>
      </trkpt>
      <trkpt lat="42.90285" lon="-0.06359">
        <ele>1773.01</ele>
        <time>2017-12-05T09:12:16Z</time>
      </trkpt>
      <trkpt lat="42.90289" lon="-0.06363">
        <ele>1773.55</ele>
        <time>2017-12-05T09:12:22Z</time>
      </trkpt>
      <trkpt lat="42.90293" lon="-0.06368">
        <ele>1774</ele>
        <time>2017-12-05T09:12:27Z</time>
      </trkpt>
      <trkpt lat="42.90297" lon="-0.06371">
        <ele>1774.38</ele>
        <time>2017-12-05T09:12:31Z</time>
      </trkpt>
      <trkpt lat="42.90302" lon="-0.06374">
        <ele>1774.63</ele>
        <time>2017-12-05T09:12:35Z</time>
      </trkpt>
      <trkpt lat="42.90306" lon="-0.06378">
        <ele>1774.89</ele>
        <time>2017-12-05T09:12:40Z</time>
      </trkpt>
      <trkpt lat="42.9031" lon="-0.06381">
        <ele>1775.13</ele>
        <time>2017-12-05T09:12:44Z</time>
      </trkpt>
      <trkpt lat="42.90313" lon="-0.06386">
        <ele>1775.41</ele>
        <time>2017-12-05T09:12:48Z</time>
      </trkpt>
      <trkpt lat="42.90317" lon="-0.0639">
        <ele>1775.68</ele>
        <time>2017-12-05T09:12:52Z</time>
      </trkpt>
      <trkpt lat="42.90322" lon="-0.06394">
        <ele>1775.95</ele>
        <time>2017-12-05T09:12:56Z</time>
      </trkpt>
      <trkpt lat="42.90325" lon="-0.06398">
        <ele>1776.18</ele>
        <time>2017-12-05T09:13:00Z</time>
      </trkpt>
      <trkpt lat="42.90329" lon="-0.06402">
        <ele>1776.33</ele>
        <time>2017-12-05T09:13:03Z</time>
      </trkpt>
      <trkpt lat="42.90333" lon="-0.06408">
        <ele>1776.46</ele>
        <time>2017-12-05T09:13:06Z</time>
      </trkpt>
      <trkpt lat="42.90336" lon="-0.06413">
        <ele>1776.49</ele>
        <time>2017-12-05T09:13:09Z</time>
      </trkpt>
      <trkpt lat="42.9034" lon="-0.06419">
        <ele>1776.45</ele>
        <time>2017-12-05T09:13:12Z</time>
      </trkpt>
      <trkpt lat="42.90343" lon="-0.06424">
        <ele>1776.34</ele>
        <time>2017-12-05T09:13:15Z</time>
      </trkpt>
      <trkpt lat="42.90346" lon="-0.0643">
        <ele>1776.17</ele>
        <time>2017-12-05T09:13:19Z</time>
      </trkpt>
      <trkpt lat="42.9035" lon="-0.06434">
        <ele>1776</ele>
        <time>2017-12-05T09:13:24Z</time>
      </trkpt>
      <trkpt lat="42.90355" lon="-0.06437">
        <ele>1775.87</ele>
        <time>2017-12-05T09:13:29Z</time>
      </trkpt>
      <trkpt lat="42.9036" lon="-0.0644">
        <ele>1775.75</ele>
        <time>2017-12-05T09:13:35Z</time>
      </trkpt>
      <trkpt lat="42.90365" lon="-0.06443">
        <ele>1775.45</ele>
        <time>2017-12-05T09:13:40Z</time>
      </trkpt>
      <trkpt lat="42.9037" lon="-0.06446">
        <ele>1775.01</ele>
        <time>2017-12-05T09:13:45Z</time>
      </trkpt>
      <trkpt lat="42.90374" lon="-0.06448">
        <ele>1774.66</ele>
        <time>2017-12-05T09:13:49Z</time>
      </trkpt>
      <trkpt lat="42.90378" lon="-0.0645">
        <ele>1774.41</ele>
        <time>2017-12-05T09:13:53Z</time>
      </trkpt>
      <trkpt lat="42.90383" lon="-0.0645">
        <ele>1774.14</ele>
        <time>2017-12-05T09:13:57Z</time>
      </trkpt>
      <trkpt lat="42.90388" lon="-0.06452">
        <ele>1773.74</ele>
        <time>2017-12-05T09:14:02Z</time>
      </trkpt>
      <trkpt lat="42.90393" lon="-0.06454">
        <ele>1773.42</ele>
        <time>2017-12-05T09:14:06Z</time>
      </trkpt>
      <trkpt lat="42.90398" lon="-0.06453">
        <ele>1773.16</ele>
        <time>2017-12-05T09:14:13Z</time>
      </trkpt>
      <trkpt lat="42.90402" lon="-0.06453">
        <ele>1773.03</ele>
        <time>2017-12-05T09:14:17Z</time>
      </trkpt>
      <trkpt lat="42.90408" lon="-0.06452">
        <ele>1772.82</ele>
        <time>2017-12-05T09:14:22Z</time>
      </trkpt>
      <trkpt lat="42.90413" lon="-0.06452">
        <ele>1772.59</ele>
        <time>2017-12-05T09:14:27Z</time>
      </trkpt>
      <trkpt lat="42.90418" lon="-0.06452">
        <ele>1772.39</ele>
        <time>2017-12-05T09:14:31Z</time>
      </trkpt>
      <trkpt lat="42.90423" lon="-0.06452">
        <ele>1772.21</ele>
        <time>2017-12-05T09:14:35Z</time>
      </trkpt>
      <trkpt lat="42.90428" lon="-0.06453">
        <ele>1772.05</ele>
        <time>2017-12-05T09:14:39Z</time>
      </trkpt>
      <trkpt lat="42.90433" lon="-0.06454">
        <ele>1771.87</ele>
        <time>2017-12-05T09:14:44Z</time>
      </trkpt>
      <trkpt lat="42.90436" lon="-0.06458">
        <ele>1771.78</ele>
        <time>2017-12-05T09:14:49Z</time>
      </trkpt>
      <trkpt lat="42.90439" lon="-0.06464">
        <ele>1771.92</ele>
        <time>2017-12-05T09:15:07Z</time>
      </trkpt>
      <trkpt lat="42.90442" lon="-0.06456">
        <ele>1771.98</ele>
        <time>2017-12-05T09:15:12Z</time>
      </trkpt>
      <trkpt lat="42.90443" lon="-0.06448">
        <ele>1771.84</ele>
        <time>2017-12-05T09:15:13Z</time>
      </trkpt>
      <trkpt lat="42.90444" lon="-0.06436">
        <ele>1771.35</ele>
        <time>2017-12-05T09:15:15Z</time>
      </trkpt>
      <trkpt lat="42.90445" lon="-0.06425">
        <ele>1770.51</ele>
        <time>2017-12-05T09:15:17Z</time>
      </trkpt>
      <trkpt lat="42.90446" lon="-0.06418">
        <ele>1769.9</ele>
        <time>2017-12-05T09:15:18Z</time>
      </trkpt>
      <trkpt lat="42.90447" lon="-0.06412">
        <ele>1769.17</ele>
        <time>2017-12-05T09:15:19Z</time>
      </trkpt>
      <trkpt lat="42.90448" lon="-0.06406">
        <ele>1768.34</ele>
        <time>2017-12-05T09:15:20Z</time>
      </trkpt>
      <trkpt lat="42.9045" lon="-0.064">
        <ele>1767.5</ele>
        <time>2017-12-05T09:15:21Z</time>
      </trkpt>
      <trkpt lat="42.90452" lon="-0.06393">
        <ele>1766.86</ele>
        <time>2017-12-05T09:15:22Z</time>
      </trkpt>
      <trkpt lat="42.90454" lon="-0.06387">
        <ele>1766.02</ele>
        <time>2017-12-05T09:15:23Z</time>
      </trkpt>
      <trkpt lat="42.90459" lon="-0.06385">
        <ele>1762.27</ele>
        <time>2017-12-05T09:15:57Z</time>
      </trkpt>
      <trkpt lat="42.90465" lon="-0.06386">
        <ele>1761.48</ele>
        <time>2017-12-05T09:16:02Z</time>
      </trkpt>
      <trkpt lat="42.90469" lon="-0.06385">
        <ele>1760.5</ele>
        <time>2017-12-05T09:16:09Z</time>
      </trkpt>
      <trkpt lat="42.90474" lon="-0.06386">
        <ele>1759.98</ele>
        <time>2017-12-05T09:16:16Z</time>
      </trkpt>
      <trkpt lat="42.90476" lon="-0.06392">
        <ele>1759.47</ele>
        <time>2017-12-05T09:16:22Z</time>
      </trkpt>
      <trkpt lat="42.90476" lon="-0.06399">
        <ele>1758.63</ele>
        <time>2017-12-05T09:16:33Z</time>
      </trkpt>
      <trkpt lat="42.90477" lon="-0.06406">
        <ele>1758.52</ele>
        <time>2017-12-05T09:16:40Z</time>
      </trkpt>
      <trkpt lat="42.90477" lon="-0.06412">
        <ele>1758.57</ele>
        <time>2017-12-05T09:16:46Z</time>
      </trkpt>
      <trkpt lat="42.90475" lon="-0.06419">
        <ele>1758.62</ele>
        <time>2017-12-05T09:16:53Z</time>
      </trkpt>
      <trkpt lat="42.90478" lon="-0.06424">
        <ele>1758.82</ele>
        <time>2017-12-05T09:17:00Z</time>
      </trkpt>
      <trkpt lat="42.90483" lon="-0.06427">
        <ele>1759.47</ele>
        <time>2017-12-05T09:17:11Z</time>
      </trkpt>
      <trkpt lat="42.90487" lon="-0.06423">
        <ele>1760.5</ele>
        <time>2017-12-05T09:17:21Z</time>
      </trkpt>
      <trkpt lat="42.90491" lon="-0.0642">
        <ele>1761.5</ele>
        <time>2017-12-05T09:17:30Z</time>
      </trkpt>
      <trkpt lat="42.90495" lon="-0.06418">
        <ele>1762.34</ele>
        <time>2017-12-05T09:17:40Z</time>
      </trkpt>
      <trkpt lat="42.90499" lon="-0.0642">
        <ele>1764.28</ele>
        <time>2017-12-05T09:18:01Z</time>
      </trkpt>
      <trkpt lat="42.90504" lon="-0.06422">
        <ele>1765.11</ele>
        <time>2017-12-05T09:18:14Z</time>
      </trkpt>
      <trkpt lat="42.90506" lon="-0.06415">
        <ele>1765.37</ele>
        <time>2017-12-05T09:18:18Z</time>
      </trkpt>
      <trkpt lat="42.90505" lon="-0.06409">
        <ele>1765.5</ele>
        <time>2017-12-05T09:18:21Z</time>
      </trkpt>
      <trkpt lat="42.90507" lon="-0.06403">
        <ele>1765.76</ele>
        <time>2017-12-05T09:18:29Z</time>
      </trkpt>
      <trkpt lat="42.9051" lon="-0.06398">
        <ele>1765.98</ele>
        <time>2017-12-05T09:18:36Z</time>
      </trkpt>
      <trkpt lat="42.90509" lon="-0.06391">
        <ele>1766.18</ele>
        <time>2017-12-05T09:18:41Z</time>
      </trkpt>
      <trkpt lat="42.90509" lon="-0.06384">
        <ele>1766.68</ele>
        <time>2017-12-05T09:18:48Z</time>
      </trkpt>
      <trkpt lat="42.90508" lon="-0.06377">
        <ele>1767.28</ele>
        <time>2017-12-05T09:18:55Z</time>
      </trkpt>
      <trkpt lat="42.90508" lon="-0.06371">
        <ele>1767.98</ele>
        <time>2017-12-05T09:19:01Z</time>
      </trkpt>
      <trkpt lat="42.90508" lon="-0.06365">
        <ele>1768.65</ele>
        <time>2017-12-05T09:19:06Z</time>
      </trkpt>
      <trkpt lat="42.90507" lon="-0.06357">
        <ele>1769.45</ele>
        <time>2017-12-05T09:19:13Z</time>
      </trkpt>
      <trkpt lat="42.90507" lon="-0.0635">
        <ele>1770.07</ele>
        <time>2017-12-05T09:19:20Z</time>
      </trkpt>
      <trkpt lat="42.90508" lon="-0.06344">
        <ele>1770.82</ele>
        <time>2017-12-05T09:19:26Z</time>
      </trkpt>
      <trkpt lat="42.90512" lon="-0.0634">
        <ele>1771.96</ele>
        <time>2017-12-05T09:19:48Z</time>
      </trkpt>
      <trkpt lat="42.90516" lon="-0.06338">
        <ele>1772.84</ele>
        <time>2017-12-05T09:19:55Z</time>
      </trkpt>
      <trkpt lat="42.90521" lon="-0.06338">
        <ele>1773.43</ele>
        <time>2017-12-05T09:20:01Z</time>
      </trkpt>
      <trkpt lat="42.90526" lon="-0.06339">
        <ele>1774.03</ele>
        <time>2017-12-05T09:20:18Z</time>
      </trkpt>
      <trkpt lat="42.90531" lon="-0.06339">
        <ele>1774.47</ele>
        <time>2017-12-05T09:20:23Z</time>
      </trkpt>
      <trkpt lat="42.90535" lon="-0.06337">
        <ele>1774.94</ele>
        <time>2017-12-05T09:20:30Z</time>
      </trkpt>
      <trkpt lat="42.9054" lon="-0.06334">
        <ele>1775.51</ele>
        <time>2017-12-05T09:20:38Z</time>
      </trkpt>
      <trkpt lat="42.90545" lon="-0.06333">
        <ele>1776.38</ele>
        <time>2017-12-05T09:20:46Z</time>
      </trkpt>
      <trkpt lat="42.90551" lon="-0.06336">
        <ele>1777.45</ele>
        <time>2017-12-05T09:20:54Z</time>
      </trkpt>
      <trkpt lat="42.90555" lon="-0.06338">
        <ele>1778.06</ele>
        <time>2017-12-05T09:20:59Z</time>
      </trkpt>
      <trkpt lat="42.90559" lon="-0.06341">
        <ele>1778.38</ele>
        <time>2017-12-05T09:21:04Z</time>
      </trkpt>
      <trkpt lat="42.90564" lon="-0.06345">
        <ele>1778.29</ele>
        <time>2017-12-05T09:21:09Z</time>
      </trkpt>
      <trkpt lat="42.90569" lon="-0.06343">
        <ele>1778.39</ele>
        <time>2017-12-05T09:21:18Z</time>
      </trkpt>
      <trkpt lat="42.90573" lon="-0.06346">
        <ele>1778.74</ele>
        <time>2017-12-05T09:21:24Z</time>
      </trkpt>
      <trkpt lat="42.90578" lon="-0.06349">
        <ele>1779.13</ele>
        <time>2017-12-05T09:21:30Z</time>
      </trkpt>
      <trkpt lat="42.90582" lon="-0.06351">
        <ele>1779.48</ele>
        <time>2017-12-05T09:21:35Z</time>
      </trkpt>
      <trkpt lat="42.90586" lon="-0.06354">
        <ele>1779.83</ele>
        <time>2017-12-05T09:21:41Z</time>
      </trkpt>
      <trkpt lat="42.9059" lon="-0.06359">
        <ele>1780</ele>
        <time>2017-12-05T09:21:47Z</time>
      </trkpt>
      <trkpt lat="42.90593" lon="-0.06364">
        <ele>1780.29</ele>
        <time>2017-12-05T09:21:53Z</time>
      </trkpt>
      <trkpt lat="42.90597" lon="-0.06368">
        <ele>1780.58</ele>
        <time>2017-12-05T09:21:58Z</time>
      </trkpt>
      <trkpt lat="42.906" lon="-0.06372">
        <ele>1780.87</ele>
        <time>2017-12-05T09:22:03Z</time>
      </trkpt>
      <trkpt lat="42.90605" lon="-0.06375">
        <ele>1781.11</ele>
        <time>2017-12-05T09:22:09Z</time>
      </trkpt>
      <trkpt lat="42.90609" lon="-0.06373">
        <ele>1781.26</ele>
        <time>2017-12-05T09:22:20Z</time>
      </trkpt>
      <trkpt lat="42.90612" lon="-0.06367">
        <ele>1781.09</ele>
        <time>2017-12-05T09:22:27Z</time>
      </trkpt>
      <trkpt lat="42.90615" lon="-0.06362">
        <ele>1780.99</ele>
        <time>2017-12-05T09:22:33Z</time>
      </trkpt>
      <trkpt lat="42.9062" lon="-0.06363">
        <ele>1781.01</ele>
        <time>2017-12-05T09:22:40Z</time>
      </trkpt>
      <trkpt lat="42.90625" lon="-0.06366">
        <ele>1781.09</ele>
        <time>2017-12-05T09:22:46Z</time>
      </trkpt>
      <trkpt lat="42.9063" lon="-0.06369">
        <ele>1781.09</ele>
        <time>2017-12-05T09:22:51Z</time>
      </trkpt>
      <trkpt lat="42.90634" lon="-0.06367">
        <ele>1781.11</ele>
        <time>2017-12-05T09:22:55Z</time>
      </trkpt>
      <trkpt lat="42.90638" lon="-0.06363">
        <ele>1781.03</ele>
        <time>2017-12-05T09:23:01Z</time>
      </trkpt>
      <trkpt lat="42.90641" lon="-0.06357">
        <ele>1780.97</ele>
        <time>2017-12-05T09:23:06Z</time>
      </trkpt>
      <trkpt lat="42.90641" lon="-0.0635">
        <ele>1780.94</ele>
        <time>2017-12-05T09:23:10Z</time>
      </trkpt>
      <trkpt lat="42.90645" lon="-0.06346">
        <ele>1781.38</ele>
        <time>2017-12-05T09:23:19Z</time>
      </trkpt>
      <trkpt lat="42.9065" lon="-0.06344">
        <ele>1782.03</ele>
        <time>2017-12-05T09:23:24Z</time>
      </trkpt>
      <trkpt lat="42.90655" lon="-0.06343">
        <ele>1782.61</ele>
        <time>2017-12-05T09:23:29Z</time>
      </trkpt>
      <trkpt lat="42.9066" lon="-0.06341">
        <ele>1783.17</ele>
        <time>2017-12-05T09:23:33Z</time>
      </trkpt>
      <trkpt lat="42.90665" lon="-0.0634">
        <ele>1783.86</ele>
        <time>2017-12-05T09:23:39Z</time>
      </trkpt>
      <trkpt lat="42.90671" lon="-0.06341">
        <ele>1784.45</ele>
        <time>2017-12-05T09:23:45Z</time>
      </trkpt>
      <trkpt lat="42.90675" lon="-0.06341">
        <ele>1784.86</ele>
        <time>2017-12-05T09:23:50Z</time>
      </trkpt>
      <trkpt lat="42.9068" lon="-0.06343">
        <ele>1785.19</ele>
        <time>2017-12-05T09:23:56Z</time>
      </trkpt>
      <trkpt lat="42.90684" lon="-0.06347">
        <ele>1785.72</ele>
        <time>2017-12-05T09:24:02Z</time>
      </trkpt>
      <trkpt lat="42.90688" lon="-0.06351">
        <ele>1786.17</ele>
        <time>2017-12-05T09:24:06Z</time>
      </trkpt>
      <trkpt lat="42.90691" lon="-0.06356">
        <ele>1786.75</ele>
        <time>2017-12-05T09:24:12Z</time>
      </trkpt>
      <trkpt lat="42.90694" lon="-0.06362">
        <ele>1787.16</ele>
        <time>2017-12-05T09:24:17Z</time>
      </trkpt>
      <trkpt lat="42.90697" lon="-0.06368">
        <ele>1787.73</ele>
        <time>2017-12-05T09:24:23Z</time>
      </trkpt>
      <trkpt lat="42.90701" lon="-0.06371">
        <ele>1788.55</ele>
        <time>2017-12-05T09:24:31Z</time>
      </trkpt>
      <trkpt lat="42.90705" lon="-0.06374">
        <ele>1789.19</ele>
        <time>2017-12-05T09:24:37Z</time>
      </trkpt>
      <trkpt lat="42.90709" lon="-0.06378">
        <ele>1789.59</ele>
        <time>2017-12-05T09:24:43Z</time>
      </trkpt>
      <trkpt lat="42.90713" lon="-0.06382">
        <ele>1789.77</ele>
        <time>2017-12-05T09:24:51Z</time>
      </trkpt>
      <trkpt lat="42.90718" lon="-0.06385">
        <ele>1789.73</ele>
        <time>2017-12-05T09:24:56Z</time>
      </trkpt>
      <trkpt lat="42.90718" lon="-0.06391">
        <ele>1789.57</ele>
        <time>2017-12-05T09:25:04Z</time>
      </trkpt>
      <trkpt lat="42.90714" lon="-0.06395">
        <ele>1789.64</ele>
        <time>2017-12-05T09:25:11Z</time>
      </trkpt>
      <trkpt lat="42.90716" lon="-0.06401">
        <ele>1789.84</ele>
        <time>2017-12-05T09:25:20Z</time>
      </trkpt>
      <trkpt lat="42.9072" lon="-0.06404">
        <ele>1790.08</ele>
        <time>2017-12-05T09:25:27Z</time>
      </trkpt>
      <trkpt lat="42.90718" lon="-0.0641">
        <ele>1790.37</ele>
        <time>2017-12-05T09:25:41Z</time>
      </trkpt>
      <trkpt lat="42.90717" lon="-0.06417">
        <ele>1790.9</ele>
        <time>2017-12-05T09:25:47Z</time>
      </trkpt>
      <trkpt lat="42.9072" lon="-0.06422">
        <ele>1791.56</ele>
        <time>2017-12-05T09:25:54Z</time>
      </trkpt>
      <trkpt lat="42.90724" lon="-0.06424">
        <ele>1792.32</ele>
        <time>2017-12-05T09:26:02Z</time>
      </trkpt>
      <trkpt lat="42.90724" lon="-0.0643">
        <ele>1793.34</ele>
        <time>2017-12-05T09:26:10Z</time>
      </trkpt>
      <trkpt lat="42.90721" lon="-0.06435">
        <ele>1794.27</ele>
        <time>2017-12-05T09:26:16Z</time>
      </trkpt>
      <trkpt lat="42.90719" lon="-0.06441">
        <ele>1795.88</ele>
        <time>2017-12-05T09:26:27Z</time>
      </trkpt>
      <trkpt lat="42.90722" lon="-0.06447">
        <ele>1796.88</ele>
        <time>2017-12-05T09:26:33Z</time>
      </trkpt>
      <trkpt lat="42.90725" lon="-0.06452">
        <ele>1798.38</ele>
        <time>2017-12-05T09:26:42Z</time>
      </trkpt>
      <trkpt lat="42.90728" lon="-0.06458">
        <ele>1799.62</ele>
        <time>2017-12-05T09:26:54Z</time>
      </trkpt>
      <trkpt lat="42.90731" lon="-0.06464">
        <ele>1801.3</ele>
        <time>2017-12-05T09:27:05Z</time>
      </trkpt>
      <trkpt lat="42.90735" lon="-0.06468">
        <ele>1804.18</ele>
        <time>2017-12-05T09:28:52Z</time>
      </trkpt>
      <trkpt lat="42.90737" lon="-0.06463">
        <ele>1805.91</ele>
        <time>2017-12-05T09:31:22Z</time>
      </trkpt>
      <trkpt lat="42.90738" lon="-0.06456">
        <ele>1806.24</ele>
        <time>2017-12-05T09:31:27Z</time>
      </trkpt>
      <trkpt lat="42.90739" lon="-0.0645">
        <ele>1806.67</ele>
        <time>2017-12-05T09:31:33Z</time>
      </trkpt>
      <trkpt lat="42.90739" lon="-0.06442">
        <ele>1807.5</ele>
        <time>2017-12-05T09:31:42Z</time>
      </trkpt>
      <trkpt lat="42.90741" lon="-0.06437">
        <ele>1808.96</ele>
        <time>2017-12-05T09:31:52Z</time>
      </trkpt>
      <trkpt lat="42.90742" lon="-0.06443">
        <ele>1809.6</ele>
        <time>2017-12-05T09:32:05Z</time>
      </trkpt>
      <trkpt lat="42.90743" lon="-0.06449">
        <ele>1810.42</ele>
        <time>2017-12-05T09:32:10Z</time>
      </trkpt>
      <trkpt lat="42.90745" lon="-0.06456">
        <ele>1811.53</ele>
        <time>2017-12-05T09:32:16Z</time>
      </trkpt>
      <trkpt lat="42.90749" lon="-0.06451">
        <ele>1813.46</ele>
        <time>2017-12-05T09:32:32Z</time>
      </trkpt>
      <trkpt lat="42.9075" lon="-0.06445">
        <ele>1814.54</ele>
        <time>2017-12-05T09:32:46Z</time>
      </trkpt>
      <trkpt lat="42.90753" lon="-0.06439">
        <ele>1815.17</ele>
        <time>2017-12-05T09:32:49Z</time>
      </trkpt>
      <trkpt lat="42.90755" lon="-0.06433">
        <ele>1816.05</ele>
        <time>2017-12-05T09:32:53Z</time>
      </trkpt>
      <trkpt lat="42.90758" lon="-0.06429">
        <ele>1817.3</ele>
        <time>2017-12-05T09:32:59Z</time>
      </trkpt>
      <trkpt lat="42.90762" lon="-0.06425">
        <ele>1818.36</ele>
        <time>2017-12-05T09:33:05Z</time>
      </trkpt>
      <trkpt lat="42.90765" lon="-0.06419">
        <ele>1819.38</ele>
        <time>2017-12-05T09:33:11Z</time>
      </trkpt>
      <trkpt lat="42.90768" lon="-0.06415">
        <ele>1820.42</ele>
        <time>2017-12-05T09:33:18Z</time>
      </trkpt>
      <trkpt lat="42.9077" lon="-0.06409">
        <ele>1821.24</ele>
        <time>2017-12-05T09:33:25Z</time>
      </trkpt>
      <trkpt lat="42.90772" lon="-0.06403">
        <ele>1822.19</ele>
        <time>2017-12-05T09:33:32Z</time>
      </trkpt>
      <trkpt lat="42.90773" lon="-0.06396">
        <ele>1822.83</ele>
        <time>2017-12-05T09:33:38Z</time>
      </trkpt>
      <trkpt lat="42.90777" lon="-0.06401">
        <ele>1823.98</ele>
        <time>2017-12-05T09:33:53Z</time>
      </trkpt>
      <trkpt lat="42.90778" lon="-0.06408">
        <ele>1824.68</ele>
        <time>2017-12-05T09:33:59Z</time>
      </trkpt>
      <trkpt lat="42.90778" lon="-0.06414">
        <ele>1825.64</ele>
        <time>2017-12-05T09:34:06Z</time>
      </trkpt>
      <trkpt lat="42.90778" lon="-0.0642">
        <ele>1826.44</ele>
        <time>2017-12-05T09:34:12Z</time>
      </trkpt>
      <trkpt lat="42.90778" lon="-0.06427">
        <ele>1827.2</ele>
        <time>2017-12-05T09:34:18Z</time>
      </trkpt>
      <trkpt lat="42.90778" lon="-0.06434">
        <ele>1827.84</ele>
        <time>2017-12-05T09:34:25Z</time>
      </trkpt>
      <trkpt lat="42.90778" lon="-0.0644">
        <ele>1828.26</ele>
        <time>2017-12-05T09:34:31Z</time>
      </trkpt>
      <trkpt lat="42.90778" lon="-0.06446">
        <ele>1829.26</ele>
        <time>2017-12-05T09:34:39Z</time>
      </trkpt>
      <trkpt lat="42.90778" lon="-0.06452">
        <ele>1829.97</ele>
        <time>2017-12-05T09:34:44Z</time>
      </trkpt>
      <trkpt lat="42.90782" lon="-0.06449">
        <ele>1834.17</ele>
        <time>2017-12-05T09:37:38Z</time>
      </trkpt>
      <trkpt lat="42.90785" lon="-0.06443">
        <ele>1834.59</ele>
        <time>2017-12-05T09:37:42Z</time>
      </trkpt>
      <trkpt lat="42.90788" lon="-0.06438">
        <ele>1834.94</ele>
        <time>2017-12-05T09:37:47Z</time>
      </trkpt>
      <trkpt lat="42.9079" lon="-0.06432">
        <ele>1835.36</ele>
        <time>2017-12-05T09:37:53Z</time>
      </trkpt>
      <trkpt lat="42.90793" lon="-0.06427">
        <ele>1835.46</ele>
        <time>2017-12-05T09:37:58Z</time>
      </trkpt>
      <trkpt lat="42.90794" lon="-0.0642">
        <ele>1835.59</ele>
        <time>2017-12-05T09:38:05Z</time>
      </trkpt>
      <trkpt lat="42.90795" lon="-0.06414">
        <ele>1835.93</ele>
        <time>2017-12-05T09:38:12Z</time>
      </trkpt>
      <trkpt lat="42.90794" lon="-0.06408">
        <ele>1837.72</ele>
        <time>2017-12-05T09:38:23Z</time>
      </trkpt>
      <trkpt lat="42.90795" lon="-0.064">
        <ele>1839.25</ele>
        <time>2017-12-05T09:38:30Z</time>
      </trkpt>
      <trkpt lat="42.90796" lon="-0.06394">
        <ele>1840.13</ele>
        <time>2017-12-05T09:38:35Z</time>
      </trkpt>
      <trkpt lat="42.90798" lon="-0.06388">
        <ele>1840.65</ele>
        <time>2017-12-05T09:38:39Z</time>
      </trkpt>
      <trkpt lat="42.90798" lon="-0.06381">
        <ele>1841.2</ele>
        <time>2017-12-05T09:38:46Z</time>
      </trkpt>
      <trkpt lat="42.90799" lon="-0.06374">
        <ele>1842.5</ele>
        <time>2017-12-05T09:38:57Z</time>
      </trkpt>
      <trkpt lat="42.90802" lon="-0.06379">
        <ele>1845.4</ele>
        <time>2017-12-05T09:39:23Z</time>
      </trkpt>
      <trkpt lat="42.90805" lon="-0.06386">
        <ele>1846.13</ele>
        <time>2017-12-05T09:39:28Z</time>
      </trkpt>
      <trkpt lat="42.90808" lon="-0.06392">
        <ele>1846.49</ele>
        <time>2017-12-05T09:39:32Z</time>
      </trkpt>
      <trkpt lat="42.90808" lon="-0.06398">
        <ele>1847.18</ele>
        <time>2017-12-05T09:39:45Z</time>
      </trkpt>
      <trkpt lat="42.9081" lon="-0.06404">
        <ele>1847.66</ele>
        <time>2017-12-05T09:39:50Z</time>
      </trkpt>
      <trkpt lat="42.90811" lon="-0.06398">
        <ele>1850.19</ele>
        <time>2017-12-05T09:40:11Z</time>
      </trkpt>
      <trkpt lat="42.90811" lon="-0.06391">
        <ele>1852.44</ele>
        <time>2017-12-05T09:40:21Z</time>
      </trkpt>
      <trkpt lat="42.90813" lon="-0.06384">
        <ele>1853.97</ele>
        <time>2017-12-05T09:40:28Z</time>
      </trkpt>
      <trkpt lat="42.90814" lon="-0.06378">
        <ele>1855.87</ele>
        <time>2017-12-05T09:40:39Z</time>
      </trkpt>
      <trkpt lat="42.90819" lon="-0.06381">
        <ele>1856.94</ele>
        <time>2017-12-05T09:40:52Z</time>
      </trkpt>
      <trkpt lat="42.90821" lon="-0.06388">
        <ele>1857.38</ele>
        <time>2017-12-05T09:40:58Z</time>
      </trkpt>
      <trkpt lat="42.90821" lon="-0.06394">
        <ele>1857.73</ele>
        <time>2017-12-05T09:41:04Z</time>
      </trkpt>
      <trkpt lat="42.90823" lon="-0.06402">
        <ele>1858.18</ele>
        <time>2017-12-05T09:41:11Z</time>
      </trkpt>
      <trkpt lat="42.90824" lon="-0.06408">
        <ele>1858.75</ele>
        <time>2017-12-05T09:41:16Z</time>
      </trkpt>
      <trkpt lat="42.90826" lon="-0.06414">
        <ele>1860.19</ele>
        <time>2017-12-05T09:41:25Z</time>
      </trkpt>
      <trkpt lat="42.90828" lon="-0.06419">
        <ele>1860.98</ele>
        <time>2017-12-05T09:41:34Z</time>
      </trkpt>
      <trkpt lat="42.9083" lon="-0.06425">
        <ele>1861.43</ele>
        <time>2017-12-05T09:41:40Z</time>
      </trkpt>
      <trkpt lat="42.90832" lon="-0.06431">
        <ele>1862.14</ele>
        <time>2017-12-05T09:41:50Z</time>
      </trkpt>
      <trkpt lat="42.90832" lon="-0.06437">
        <ele>1863.05</ele>
        <time>2017-12-05T09:41:57Z</time>
      </trkpt>
      <trkpt lat="42.90834" lon="-0.06444">
        <ele>1864.34</ele>
        <time>2017-12-05T09:42:05Z</time>
      </trkpt>
      <trkpt lat="42.90834" lon="-0.06451">
        <ele>1865.19</ele>
        <time>2017-12-05T09:42:10Z</time>
      </trkpt>
      <trkpt lat="42.90833" lon="-0.06457">
        <ele>1866.49</ele>
        <time>2017-12-05T09:42:17Z</time>
      </trkpt>
      <trkpt lat="42.90836" lon="-0.06453">
        <ele>1867.79</ele>
        <time>2017-12-05T09:42:30Z</time>
      </trkpt>
      <trkpt lat="42.90838" lon="-0.06446">
        <ele>1868.81</ele>
        <time>2017-12-05T09:42:41Z</time>
      </trkpt>
      <trkpt lat="42.9084" lon="-0.0644">
        <ele>1870.02</ele>
        <time>2017-12-05T09:42:47Z</time>
      </trkpt>
      <trkpt lat="42.90843" lon="-0.06433">
        <ele>1870.7</ele>
        <time>2017-12-05T09:42:52Z</time>
      </trkpt>
      <trkpt lat="42.90844" lon="-0.06427">
        <ele>1871.35</ele>
        <time>2017-12-05T09:42:59Z</time>
      </trkpt>
      <trkpt lat="42.90844" lon="-0.0642">
        <ele>1871.89</ele>
        <time>2017-12-05T09:43:05Z</time>
      </trkpt>
      <trkpt lat="42.90845" lon="-0.06414">
        <ele>1872.79</ele>
        <time>2017-12-05T09:43:13Z</time>
      </trkpt>
      <trkpt lat="42.90846" lon="-0.06407">
        <ele>1873.44</ele>
        <time>2017-12-05T09:43:20Z</time>
      </trkpt>
      <trkpt lat="42.90847" lon="-0.064">
        <ele>1874.07</ele>
        <time>2017-12-05T09:43:26Z</time>
      </trkpt>
      <trkpt lat="42.90848" lon="-0.06393">
        <ele>1874.71</ele>
        <time>2017-12-05T09:43:33Z</time>
      </trkpt>
      <trkpt lat="42.90848" lon="-0.06387">
        <ele>1876.14</ele>
        <time>2017-12-05T09:43:44Z</time>
      </trkpt>
      <trkpt lat="42.90849" lon="-0.06381">
        <ele>1877.13</ele>
        <time>2017-12-05T09:43:49Z</time>
      </trkpt>
      <trkpt lat="42.90851" lon="-0.06374">
        <ele>1878.47</ele>
        <time>2017-12-05T09:43:55Z</time>
      </trkpt>
      <trkpt lat="42.90854" lon="-0.06368">
        <ele>1880.95</ele>
        <time>2017-12-05T09:44:06Z</time>
      </trkpt>
      <trkpt lat="42.90859" lon="-0.06366">
        <ele>1882.82</ele>
        <time>2017-12-05T09:44:27Z</time>
      </trkpt>
      <trkpt lat="42.90861" lon="-0.06372">
        <ele>1883</ele>
        <time>2017-12-05T09:44:42Z</time>
      </trkpt>
      <trkpt lat="42.90863" lon="-0.06379">
        <ele>1883.21</ele>
        <time>2017-12-05T09:44:45Z</time>
      </trkpt>
      <trkpt lat="42.90865" lon="-0.06385">
        <ele>1883.77</ele>
        <time>2017-12-05T09:44:50Z</time>
      </trkpt>
      <trkpt lat="42.90866" lon="-0.06393">
        <ele>1884.43</ele>
        <time>2017-12-05T09:44:56Z</time>
      </trkpt>
      <trkpt lat="42.90867" lon="-0.06399">
        <ele>1885.31</ele>
        <time>2017-12-05T09:45:04Z</time>
      </trkpt>
      <trkpt lat="42.9087" lon="-0.06406">
        <ele>1885.81</ele>
        <time>2017-12-05T09:45:10Z</time>
      </trkpt>
      <trkpt lat="42.90873" lon="-0.06411">
        <ele>1886.82</ele>
        <time>2017-12-05T09:45:19Z</time>
      </trkpt>
      <trkpt lat="42.90874" lon="-0.06418">
        <ele>1887.74</ele>
        <time>2017-12-05T09:45:27Z</time>
      </trkpt>
      <trkpt lat="42.90874" lon="-0.06424">
        <ele>1888.59</ele>
        <time>2017-12-05T09:45:36Z</time>
      </trkpt>
      <trkpt lat="42.90875" lon="-0.06431">
        <ele>1889.06</ele>
        <time>2017-12-05T09:45:42Z</time>
      </trkpt>
      <trkpt lat="42.90876" lon="-0.06437">
        <ele>1889.47</ele>
        <time>2017-12-05T09:45:47Z</time>
      </trkpt>
      <trkpt lat="42.90878" lon="-0.06443">
        <ele>1890.02</ele>
        <time>2017-12-05T09:45:53Z</time>
      </trkpt>
      <trkpt lat="42.90878" lon="-0.0645">
        <ele>1890.82</ele>
        <time>2017-12-05T09:46:00Z</time>
      </trkpt>
      <trkpt lat="42.9088" lon="-0.06456">
        <ele>1891.8</ele>
        <time>2017-12-05T09:46:09Z</time>
      </trkpt>
      <trkpt lat="42.9088" lon="-0.06463">
        <ele>1892.42</ele>
        <time>2017-12-05T09:46:15Z</time>
      </trkpt>
      <trkpt lat="42.9088" lon="-0.06469">
        <ele>1893.27</ele>
        <time>2017-12-05T09:46:23Z</time>
      </trkpt>
      <trkpt lat="42.90881" lon="-0.06476">
        <ele>1894.11</ele>
        <time>2017-12-05T09:46:30Z</time>
      </trkpt>
      <trkpt lat="42.90881" lon="-0.06483">
        <ele>1895.12</ele>
        <time>2017-12-05T09:46:37Z</time>
      </trkpt>
      <trkpt lat="42.90881" lon="-0.0649">
        <ele>1896.02</ele>
        <time>2017-12-05T09:46:43Z</time>
      </trkpt>
      <trkpt lat="42.90881" lon="-0.06497">
        <ele>1896.7</ele>
        <time>2017-12-05T09:46:47Z</time>
      </trkpt>
      <trkpt lat="42.90881" lon="-0.06503">
        <ele>1898.27</ele>
        <time>2017-12-05T09:46:55Z</time>
      </trkpt>
      <trkpt lat="42.90882" lon="-0.0651">
        <ele>1899.59</ele>
        <time>2017-12-05T09:47:03Z</time>
      </trkpt>
      <trkpt lat="42.90887" lon="-0.06509">
        <ele>1902.17</ele>
        <time>2017-12-05T09:47:26Z</time>
      </trkpt>
      <trkpt lat="42.9089" lon="-0.06503">
        <ele>1902.89</ele>
        <time>2017-12-05T09:47:30Z</time>
      </trkpt>
      <trkpt lat="42.90891" lon="-0.06496">
        <ele>1903.84</ele>
        <time>2017-12-05T09:47:35Z</time>
      </trkpt>
      <trkpt lat="42.90893" lon="-0.0649">
        <ele>1904.9</ele>
        <time>2017-12-05T09:47:40Z</time>
      </trkpt>
      <trkpt lat="42.90896" lon="-0.06486">
        <ele>1907.01</ele>
        <time>2017-12-05T09:47:51Z</time>
      </trkpt>
      <trkpt lat="42.90901" lon="-0.0648">
        <ele>1907.92</ele>
        <time>2017-12-05T09:47:59Z</time>
      </trkpt>
      <trkpt lat="42.90904" lon="-0.06475">
        <ele>1909.11</ele>
        <time>2017-12-05T09:48:05Z</time>
      </trkpt>
      <trkpt lat="42.90908" lon="-0.06474">
        <ele>1910.6</ele>
        <time>2017-12-05T09:48:20Z</time>
      </trkpt>
      <trkpt lat="42.9091" lon="-0.06481">
        <ele>1911.05</ele>
        <time>2017-12-05T09:48:26Z</time>
      </trkpt>
      <trkpt lat="42.90911" lon="-0.06487">
        <ele>1911.67</ele>
        <time>2017-12-05T09:48:33Z</time>
      </trkpt>
      <trkpt lat="42.9091" lon="-0.06493">
        <ele>1912.43</ele>
        <time>2017-12-05T09:48:40Z</time>
      </trkpt>
      <trkpt lat="42.9091" lon="-0.065">
        <ele>1913.15</ele>
        <time>2017-12-05T09:48:47Z</time>
      </trkpt>
      <trkpt lat="42.90909" lon="-0.06506">
        <ele>1913.57</ele>
        <time>2017-12-05T09:48:52Z</time>
      </trkpt>
      <trkpt lat="42.90909" lon="-0.06513">
        <ele>1914.08</ele>
        <time>2017-12-05T09:48:57Z</time>
      </trkpt>
      <trkpt lat="42.90909" lon="-0.06519">
        <ele>1915.06</ele>
        <time>2017-12-05T09:49:04Z</time>
      </trkpt>
      <trkpt lat="42.9091" lon="-0.06526">
        <ele>1915.9</ele>
        <time>2017-12-05T09:49:10Z</time>
      </trkpt>
      <trkpt lat="42.90909" lon="-0.06532">
        <ele>1916.64</ele>
        <time>2017-12-05T09:49:17Z</time>
      </trkpt>
      <trkpt lat="42.90907" lon="-0.06539">
        <ele>1917.53</ele>
        <time>2017-12-05T09:49:26Z</time>
      </trkpt>
      <trkpt lat="42.90907" lon="-0.06546">
        <ele>1917.97</ele>
        <time>2017-12-05T09:49:31Z</time>
      </trkpt>
      <trkpt lat="42.90906" lon="-0.06552">
        <ele>1918.54</ele>
        <time>2017-12-05T09:49:40Z</time>
      </trkpt>
      <trkpt lat="42.90911" lon="-0.06551">
        <ele>1919.5</ele>
        <time>2017-12-05T09:49:53Z</time>
      </trkpt>
      <trkpt lat="42.90913" lon="-0.06545">
        <ele>1920.46</ele>
        <time>2017-12-05T09:49:59Z</time>
      </trkpt>
      <trkpt lat="42.90916" lon="-0.0654">
        <ele>1921.83</ele>
        <time>2017-12-05T09:50:06Z</time>
      </trkpt>
      <trkpt lat="42.9092" lon="-0.06535">
        <ele>1923.1</ele>
        <time>2017-12-05T09:50:12Z</time>
      </trkpt>
      <trkpt lat="42.90923" lon="-0.06531">
        <ele>1924.13</ele>
        <time>2017-12-05T09:50:18Z</time>
      </trkpt>
      <trkpt lat="42.90927" lon="-0.06527">
        <ele>1925.2</ele>
        <time>2017-12-05T09:50:26Z</time>
      </trkpt>
      <trkpt lat="42.90928" lon="-0.06535">
        <ele>1926.48</ele>
        <time>2017-12-05T09:50:45Z</time>
      </trkpt>
      <trkpt lat="42.90927" lon="-0.06541">
        <ele>1927.05</ele>
        <time>2017-12-05T09:50:49Z</time>
      </trkpt>
      <trkpt lat="42.90925" lon="-0.06548">
        <ele>1927.76</ele>
        <time>2017-12-05T09:50:54Z</time>
      </trkpt>
      <trkpt lat="42.90924" lon="-0.06554">
        <ele>1928.81</ele>
        <time>2017-12-05T09:51:01Z</time>
      </trkpt>
      <trkpt lat="42.90923" lon="-0.06561">
        <ele>1929.87</ele>
        <time>2017-12-05T09:51:10Z</time>
      </trkpt>
      <trkpt lat="42.90921" lon="-0.06567">
        <ele>1930.33</ele>
        <time>2017-12-05T09:51:16Z</time>
      </trkpt>
      <trkpt lat="42.9092" lon="-0.06573">
        <ele>1930.83</ele>
        <time>2017-12-05T09:51:22Z</time>
      </trkpt>
      <trkpt lat="42.90918" lon="-0.0658">
        <ele>1931.55</ele>
        <time>2017-12-05T09:51:30Z</time>
      </trkpt>
      <trkpt lat="42.90916" lon="-0.06585">
        <ele>1932.06</ele>
        <time>2017-12-05T09:51:36Z</time>
      </trkpt>
      <trkpt lat="42.90914" lon="-0.06592">
        <ele>1932.92</ele>
        <time>2017-12-05T09:51:45Z</time>
      </trkpt>
      <trkpt lat="42.90912" lon="-0.06598">
        <ele>1933.41</ele>
        <time>2017-12-05T09:51:50Z</time>
      </trkpt>
      <trkpt lat="42.90917" lon="-0.066">
        <ele>1934.45</ele>
        <time>2017-12-05T09:51:58Z</time>
      </trkpt>
      <trkpt lat="42.90921" lon="-0.06597">
        <ele>1935.17</ele>
        <time>2017-12-05T09:52:03Z</time>
      </trkpt>
      <trkpt lat="42.90925" lon="-0.06595">
        <ele>1936.58</ele>
        <time>2017-12-05T09:52:12Z</time>
      </trkpt>
      <trkpt lat="42.90929" lon="-0.06592">
        <ele>1937.86</ele>
        <time>2017-12-05T09:52:19Z</time>
      </trkpt>
      <trkpt lat="42.90933" lon="-0.06589">
        <ele>1938.86</ele>
        <time>2017-12-05T09:52:29Z</time>
      </trkpt>
      <trkpt lat="42.90938" lon="-0.06585">
        <ele>1940.06</ele>
        <time>2017-12-05T09:52:37Z</time>
      </trkpt>
      <trkpt lat="42.90942" lon="-0.06582">
        <ele>1940.84</ele>
        <time>2017-12-05T09:52:43Z</time>
      </trkpt>
      <trkpt lat="42.90942" lon="-0.0659">
        <ele>1941.5</ele>
        <time>2017-12-05T09:52:56Z</time>
      </trkpt>
      <trkpt lat="42.90941" lon="-0.06596">
        <ele>1942.23</ele>
        <time>2017-12-05T09:53:08Z</time>
      </trkpt>
      <trkpt lat="42.90939" lon="-0.06603">
        <ele>1942.73</ele>
        <time>2017-12-05T09:53:14Z</time>
      </trkpt>
      <trkpt lat="42.90938" lon="-0.0661">
        <ele>1943.55</ele>
        <time>2017-12-05T09:53:22Z</time>
      </trkpt>
      <trkpt lat="42.90936" lon="-0.06616">
        <ele>1944.05</ele>
        <time>2017-12-05T09:53:28Z</time>
      </trkpt>
      <trkpt lat="42.90934" lon="-0.06623">
        <ele>1944.7</ele>
        <time>2017-12-05T09:53:38Z</time>
      </trkpt>
      <trkpt lat="42.90932" lon="-0.06631">
        <ele>1945.39</ele>
        <time>2017-12-05T09:53:44Z</time>
      </trkpt>
      <trkpt lat="42.9093" lon="-0.06638">
        <ele>1946.47</ele>
        <time>2017-12-05T09:53:50Z</time>
      </trkpt>
      <trkpt lat="42.90928" lon="-0.06644">
        <ele>1947.55</ele>
        <time>2017-12-05T09:53:56Z</time>
      </trkpt>
      <trkpt lat="42.90925" lon="-0.06649">
        <ele>1948.88</ele>
        <time>2017-12-05T09:54:04Z</time>
      </trkpt>
      <trkpt lat="42.90929" lon="-0.06654">
        <ele>1950</ele>
        <time>2017-12-05T09:54:12Z</time>
      </trkpt>
      <trkpt lat="42.90933" lon="-0.06656">
        <ele>1950.61</ele>
        <time>2017-12-05T09:54:17Z</time>
      </trkpt>
      <trkpt lat="42.90938" lon="-0.06655">
        <ele>1951.41</ele>
        <time>2017-12-05T09:54:25Z</time>
      </trkpt>
      <trkpt lat="42.90943" lon="-0.06653">
        <ele>1951.7</ele>
        <time>2017-12-05T09:54:32Z</time>
      </trkpt>
      <trkpt lat="42.90948" lon="-0.06652">
        <ele>1951.87</ele>
        <time>2017-12-05T09:54:40Z</time>
      </trkpt>
      <trkpt lat="42.90953" lon="-0.06653">
        <ele>1952.03</ele>
        <time>2017-12-05T09:54:47Z</time>
      </trkpt>
      <trkpt lat="42.90958" lon="-0.06651">
        <ele>1952.29</ele>
        <time>2017-12-05T09:54:54Z</time>
      </trkpt>
      <trkpt lat="42.90955" lon="-0.06658">
        <ele>1952.73</ele>
        <time>2017-12-05T09:55:04Z</time>
      </trkpt>
      <trkpt lat="42.90952" lon="-0.06663">
        <ele>1953.2</ele>
        <time>2017-12-05T09:55:08Z</time>
      </trkpt>
      <trkpt lat="42.90949" lon="-0.06669">
        <ele>1954.28</ele>
        <time>2017-12-05T09:55:14Z</time>
      </trkpt>
      <trkpt lat="42.90948" lon="-0.06675">
        <ele>1955.6</ele>
        <time>2017-12-05T09:55:21Z</time>
      </trkpt>
      <trkpt lat="42.90944" lon="-0.0668">
        <ele>1957.6</ele>
        <time>2017-12-05T09:55:32Z</time>
      </trkpt>
      <trkpt lat="42.90941" lon="-0.06684">
        <ele>1959.1</ele>
        <time>2017-12-05T09:55:40Z</time>
      </trkpt>
      <trkpt lat="42.90938" lon="-0.06689">
        <ele>1960.36</ele>
        <time>2017-12-05T09:55:54Z</time>
      </trkpt>
      <trkpt lat="42.90936" lon="-0.06694">
        <ele>1961.21</ele>
        <time>2017-12-05T09:56:00Z</time>
      </trkpt>
      <trkpt lat="42.90939" lon="-0.06699">
        <ele>1962.1</ele>
        <time>2017-12-05T09:56:08Z</time>
      </trkpt>
      <trkpt lat="42.90944" lon="-0.06702">
        <ele>1962.76</ele>
        <time>2017-12-05T09:56:20Z</time>
      </trkpt>
      <trkpt lat="42.90948" lon="-0.06703">
        <ele>1963.5</ele>
        <time>2017-12-05T09:56:28Z</time>
      </trkpt>
      <trkpt lat="42.90954" lon="-0.06703">
        <ele>1964.04</ele>
        <time>2017-12-05T09:56:32Z</time>
      </trkpt>
      <trkpt lat="42.90958" lon="-0.06703">
        <ele>1965.11</ele>
        <time>2017-12-05T09:56:40Z</time>
      </trkpt>
      <trkpt lat="42.90963" lon="-0.06704">
        <ele>1966.26</ele>
        <time>2017-12-05T09:56:52Z</time>
      </trkpt>
      <trkpt lat="42.90969" lon="-0.06704">
        <ele>1967.05</ele>
        <time>2017-12-05T09:57:05Z</time>
      </trkpt>
      <trkpt lat="42.90971" lon="-0.0671">
        <ele>1967.89</ele>
        <time>2017-12-05T09:57:16Z</time>
      </trkpt>
      <trkpt lat="42.90968" lon="-0.06717">
        <ele>1968.87</ele>
        <time>2017-12-05T09:57:21Z</time>
      </trkpt>
      <trkpt lat="42.90967" lon="-0.06723">
        <ele>1969.51</ele>
        <time>2017-12-05T09:57:24Z</time>
      </trkpt>
      <trkpt lat="42.90965" lon="-0.06729">
        <ele>1970.93</ele>
        <time>2017-12-05T09:57:31Z</time>
      </trkpt>
      <trkpt lat="42.90962" lon="-0.06734">
        <ele>1972.58</ele>
        <time>2017-12-05T09:57:39Z</time>
      </trkpt>
      <trkpt lat="42.90959" lon="-0.0674">
        <ele>1974.61</ele>
        <time>2017-12-05T09:57:48Z</time>
      </trkpt>
      <trkpt lat="42.90958" lon="-0.06746">
        <ele>1976.38</ele>
        <time>2017-12-05T09:57:55Z</time>
      </trkpt>
      <trkpt lat="42.90955" lon="-0.06751">
        <ele>1978.21</ele>
        <time>2017-12-05T09:58:03Z</time>
      </trkpt>
      <trkpt lat="42.90954" lon="-0.06757">
        <ele>1979.56</ele>
        <time>2017-12-05T09:58:10Z</time>
      </trkpt>
      <trkpt lat="42.90952" lon="-0.06763">
        <ele>1980.79</ele>
        <time>2017-12-05T09:58:17Z</time>
      </trkpt>
      <trkpt lat="42.9095" lon="-0.06769">
        <ele>1981.93</ele>
        <time>2017-12-05T09:58:24Z</time>
      </trkpt>
      <trkpt lat="42.90949" lon="-0.06775">
        <ele>1982.91</ele>
        <time>2017-12-05T09:58:31Z</time>
      </trkpt>
      <trkpt lat="42.90947" lon="-0.06782">
        <ele>1983.77</ele>
        <time>2017-12-05T09:58:38Z</time>
      </trkpt>
      <trkpt lat="42.90945" lon="-0.06788">
        <ele>1984.78</ele>
        <time>2017-12-05T09:58:46Z</time>
      </trkpt>
      <trkpt lat="42.90944" lon="-0.06794">
        <ele>1985.79</ele>
        <time>2017-12-05T09:58:53Z</time>
      </trkpt>
      <trkpt lat="42.90942" lon="-0.068">
        <ele>1986.95</ele>
        <time>2017-12-05T09:59:01Z</time>
      </trkpt>
      <trkpt lat="42.90946" lon="-0.06804">
        <ele>1987.89</ele>
        <time>2017-12-05T09:59:13Z</time>
      </trkpt>
      <trkpt lat="42.90951" lon="-0.06807">
        <ele>1988.03</ele>
        <time>2017-12-05T09:59:18Z</time>
      </trkpt>
      <trkpt lat="42.90956" lon="-0.06807">
        <ele>1988.21</ele>
        <time>2017-12-05T09:59:24Z</time>
      </trkpt>
      <trkpt lat="42.90962" lon="-0.06806">
        <ele>1988.45</ele>
        <time>2017-12-05T09:59:33Z</time>
      </trkpt>
      <trkpt lat="42.90967" lon="-0.06805">
        <ele>1988.56</ele>
        <time>2017-12-05T09:59:37Z</time>
      </trkpt>
      <trkpt lat="42.90971" lon="-0.06804">
        <ele>1988.86</ele>
        <time>2017-12-05T09:59:44Z</time>
      </trkpt>
      <trkpt lat="42.90976" lon="-0.06803">
        <ele>1989.28</ele>
        <time>2017-12-05T09:59:53Z</time>
      </trkpt>
      <trkpt lat="42.90981" lon="-0.06803">
        <ele>1989.66</ele>
        <time>2017-12-05T10:00:01Z</time>
      </trkpt>
      <trkpt lat="42.90985" lon="-0.06802">
        <ele>1990.19</ele>
        <time>2017-12-05T10:00:08Z</time>
      </trkpt>
      <trkpt lat="42.9099" lon="-0.06801">
        <ele>1990.6</ele>
        <time>2017-12-05T10:00:23Z</time>
      </trkpt>
      <trkpt lat="42.90996" lon="-0.06799">
        <ele>1991.03</ele>
        <time>2017-12-05T10:00:34Z</time>
      </trkpt>
      <trkpt lat="42.90996" lon="-0.06807">
        <ele>1992.35</ele>
        <time>2017-12-05T10:00:44Z</time>
      </trkpt>
      <trkpt lat="42.90993" lon="-0.06813">
        <ele>1993.57</ele>
        <time>2017-12-05T10:00:50Z</time>
      </trkpt>
      <trkpt lat="42.9099" lon="-0.06819">
        <ele>1994.73</ele>
        <time>2017-12-05T10:00:57Z</time>
      </trkpt>
      <trkpt lat="42.90988" lon="-0.06825">
        <ele>1995.7</ele>
        <time>2017-12-05T10:01:04Z</time>
      </trkpt>
      <trkpt lat="42.90987" lon="-0.06831">
        <ele>1996.82</ele>
        <time>2017-12-05T10:01:12Z</time>
      </trkpt>
      <trkpt lat="42.90986" lon="-0.06837">
        <ele>1998.24</ele>
        <time>2017-12-05T10:01:23Z</time>
      </trkpt>
      <trkpt lat="42.90984" lon="-0.06844">
        <ele>1999.58</ele>
        <time>2017-12-05T10:01:29Z</time>
      </trkpt>
      <trkpt lat="42.90982" lon="-0.0685">
        <ele>2001.41</ele>
        <time>2017-12-05T10:01:40Z</time>
      </trkpt>
      <trkpt lat="42.90981" lon="-0.06856">
        <ele>2002.63</ele>
        <time>2017-12-05T10:01:46Z</time>
      </trkpt>
      <trkpt lat="42.9098" lon="-0.06862">
        <ele>2003.74</ele>
        <time>2017-12-05T10:01:52Z</time>
      </trkpt>
      <trkpt lat="42.90979" lon="-0.06869">
        <ele>2004.55</ele>
        <time>2017-12-05T10:01:58Z</time>
      </trkpt>
      <trkpt lat="42.90979" lon="-0.06875">
        <ele>2005.2</ele>
        <time>2017-12-05T10:02:03Z</time>
      </trkpt>
      <trkpt lat="42.9098" lon="-0.06882">
        <ele>2005.88</ele>
        <time>2017-12-05T10:02:08Z</time>
      </trkpt>
      <trkpt lat="42.9098" lon="-0.06889">
        <ele>2007.38</ele>
        <time>2017-12-05T10:02:19Z</time>
      </trkpt>
      <trkpt lat="42.90979" lon="-0.06896">
        <ele>2008.54</ele>
        <time>2017-12-05T10:02:27Z</time>
      </trkpt>
      <trkpt lat="42.90979" lon="-0.06902">
        <ele>2009.57</ele>
        <time>2017-12-05T10:02:35Z</time>
      </trkpt>
      <trkpt lat="42.9098" lon="-0.06909">
        <ele>2010.53</ele>
        <time>2017-12-05T10:02:45Z</time>
      </trkpt>
      <trkpt lat="42.90984" lon="-0.06906">
        <ele>2011.28</ele>
        <time>2017-12-05T10:03:04Z</time>
      </trkpt>
      <trkpt lat="42.90989" lon="-0.06902">
        <ele>2012.15</ele>
        <time>2017-12-05T10:03:09Z</time>
      </trkpt>
      <trkpt lat="42.90992" lon="-0.06896">
        <ele>2013.77</ele>
        <time>2017-12-05T10:03:16Z</time>
      </trkpt>
      <trkpt lat="42.90995" lon="-0.06891">
        <ele>2015.54</ele>
        <time>2017-12-05T10:03:24Z</time>
      </trkpt>
      <trkpt lat="42.90998" lon="-0.06886">
        <ele>2017.07</ele>
        <time>2017-12-05T10:03:32Z</time>
      </trkpt>
      <trkpt lat="42.91001" lon="-0.06881">
        <ele>2018.07</ele>
        <time>2017-12-05T10:03:38Z</time>
      </trkpt>
      <trkpt lat="42.91005" lon="-0.06876">
        <ele>2019.38</ele>
        <time>2017-12-05T10:03:46Z</time>
      </trkpt>
      <trkpt lat="42.9101" lon="-0.06874">
        <ele>2020.56</ele>
        <time>2017-12-05T10:03:53Z</time>
      </trkpt>
      <trkpt lat="42.91015" lon="-0.06872">
        <ele>2021.9</ele>
        <time>2017-12-05T10:04:01Z</time>
      </trkpt>
      <trkpt lat="42.91015" lon="-0.06878">
        <ele>2022.47</ele>
        <time>2017-12-05T10:04:14Z</time>
      </trkpt>
      <trkpt lat="42.91015" lon="-0.06887">
        <ele>2022.71</ele>
        <time>2017-12-05T10:04:19Z</time>
      </trkpt>
      <trkpt lat="42.91013" lon="-0.06892">
        <ele>2022.87</ele>
        <time>2017-12-05T10:04:22Z</time>
      </trkpt>
      <trkpt lat="42.91013" lon="-0.06899">
        <ele>2023.26</ele>
        <time>2017-12-05T10:04:28Z</time>
      </trkpt>
      <trkpt lat="42.9101" lon="-0.06904">
        <ele>2024.63</ele>
        <time>2017-12-05T10:04:41Z</time>
      </trkpt>
      <trkpt lat="42.91011" lon="-0.06911">
        <ele>2025.83</ele>
        <time>2017-12-05T10:04:49Z</time>
      </trkpt>
      <trkpt lat="42.91015" lon="-0.06912">
        <ele>2026.5</ele>
        <time>2017-12-05T10:04:55Z</time>
      </trkpt>
      <trkpt lat="42.91019" lon="-0.06908">
        <ele>2027.7</ele>
        <time>2017-12-05T10:05:04Z</time>
      </trkpt>
      <trkpt lat="42.91024" lon="-0.06907">
        <ele>2028.83</ele>
        <time>2017-12-05T10:05:20Z</time>
      </trkpt>
      <trkpt lat="42.91029" lon="-0.06907">
        <ele>2029.04</ele>
        <time>2017-12-05T10:05:25Z</time>
      </trkpt>
      <trkpt lat="42.91029" lon="-0.06913">
        <ele>2029.8</ele>
        <time>2017-12-05T10:05:33Z</time>
      </trkpt>
      <trkpt lat="42.91026" lon="-0.0692">
        <ele>2030.41</ele>
        <time>2017-12-05T10:05:38Z</time>
      </trkpt>
      <trkpt lat="42.91026" lon="-0.06927">
        <ele>2031.71</ele>
        <time>2017-12-05T10:05:45Z</time>
      </trkpt>
      <trkpt lat="42.91026" lon="-0.06933">
        <ele>2032.91</ele>
        <time>2017-12-05T10:05:51Z</time>
      </trkpt>
      <trkpt lat="42.91027" lon="-0.0694">
        <ele>2033.99</ele>
        <time>2017-12-05T10:05:57Z</time>
      </trkpt>
      <trkpt lat="42.91028" lon="-0.06947">
        <ele>2034.53</ele>
        <time>2017-12-05T10:06:01Z</time>
      </trkpt>
      <trkpt lat="42.91028" lon="-0.06954">
        <ele>2035.26</ele>
        <time>2017-12-05T10:06:08Z</time>
      </trkpt>
      <trkpt lat="42.91029" lon="-0.0696">
        <ele>2035.66</ele>
        <time>2017-12-05T10:06:13Z</time>
      </trkpt>
      <trkpt lat="42.91028" lon="-0.06966">
        <ele>2037.06</ele>
        <time>2017-12-05T10:06:34Z</time>
      </trkpt>
      <trkpt lat="42.91029" lon="-0.06959">
        <ele>2037.72</ele>
        <time>2017-12-05T10:06:40Z</time>
      </trkpt>
      <trkpt lat="42.91032" lon="-0.06955">
        <ele>2038.85</ele>
        <time>2017-12-05T10:06:47Z</time>
      </trkpt>
      <trkpt lat="42.91036" lon="-0.0695">
        <ele>2040.37</ele>
        <time>2017-12-05T10:06:58Z</time>
      </trkpt>
      <trkpt lat="42.91039" lon="-0.06946">
        <ele>2041.26</ele>
        <time>2017-12-05T10:07:03Z</time>
      </trkpt>
      <trkpt lat="42.91042" lon="-0.06941">
        <ele>2042.39</ele>
        <time>2017-12-05T10:07:08Z</time>
      </trkpt>
      <trkpt lat="42.91046" lon="-0.06937">
        <ele>2043.95</ele>
        <time>2017-12-05T10:07:14Z</time>
      </trkpt>
      <trkpt lat="42.91051" lon="-0.06935">
        <ele>2045.51</ele>
        <time>2017-12-05T10:07:21Z</time>
      </trkpt>
      <trkpt lat="42.91056" lon="-0.06934">
        <ele>2046.91</ele>
        <time>2017-12-05T10:07:29Z</time>
      </trkpt>
      <trkpt lat="42.91061" lon="-0.06934">
        <ele>2047.47</ele>
        <time>2017-12-05T10:07:33Z</time>
      </trkpt>
      <trkpt lat="42.91065" lon="-0.06935">
        <ele>2048.34</ele>
        <time>2017-12-05T10:07:41Z</time>
      </trkpt>
      <trkpt lat="42.91064" lon="-0.06943">
        <ele>2048.9</ele>
        <time>2017-12-05T10:07:47Z</time>
      </trkpt>
      <trkpt lat="42.91061" lon="-0.06948">
        <ele>2049.37</ele>
        <time>2017-12-05T10:07:51Z</time>
      </trkpt>
      <trkpt lat="42.91059" lon="-0.06954">
        <ele>2050.6</ele>
        <time>2017-12-05T10:08:00Z</time>
      </trkpt>
      <trkpt lat="42.91058" lon="-0.0696">
        <ele>2051.82</ele>
        <time>2017-12-05T10:08:09Z</time>
      </trkpt>
      <trkpt lat="42.91057" lon="-0.06967">
        <ele>2052.8</ele>
        <time>2017-12-05T10:08:16Z</time>
      </trkpt>
      <trkpt lat="42.91057" lon="-0.06973">
        <ele>2053.49</ele>
        <time>2017-12-05T10:08:23Z</time>
      </trkpt>
      <trkpt lat="42.91057" lon="-0.06979">
        <ele>2054.12</ele>
        <time>2017-12-05T10:08:30Z</time>
      </trkpt>
      <trkpt lat="42.91058" lon="-0.06986">
        <ele>2054.42</ele>
        <time>2017-12-05T10:08:35Z</time>
      </trkpt>
      <trkpt lat="42.91061" lon="-0.0699">
        <ele>2054.78</ele>
        <time>2017-12-05T10:08:45Z</time>
      </trkpt>
      <trkpt lat="42.91062" lon="-0.06984">
        <ele>2055.19</ele>
        <time>2017-12-05T10:08:53Z</time>
      </trkpt>
      <trkpt lat="42.91066" lon="-0.0698">
        <ele>2055.5</ele>
        <time>2017-12-05T10:09:01Z</time>
      </trkpt>
      <trkpt lat="42.9107" lon="-0.06976">
        <ele>2056.05</ele>
        <time>2017-12-05T10:09:06Z</time>
      </trkpt>
      <trkpt lat="42.91074" lon="-0.06973">
        <ele>2056.9</ele>
        <time>2017-12-05T10:09:13Z</time>
      </trkpt>
      <trkpt lat="42.91079" lon="-0.06971">
        <ele>2057.59</ele>
        <time>2017-12-05T10:09:20Z</time>
      </trkpt>
      <trkpt lat="42.91084" lon="-0.06969">
        <ele>2058.18</ele>
        <time>2017-12-05T10:09:27Z</time>
      </trkpt>
      <trkpt lat="42.91088" lon="-0.06965">
        <ele>2059.45</ele>
        <time>2017-12-05T10:09:37Z</time>
      </trkpt>
      <trkpt lat="42.91093" lon="-0.06964">
        <ele>2060.41</ele>
        <time>2017-12-05T10:09:43Z</time>
      </trkpt>
      <trkpt lat="42.91098" lon="-0.06965">
        <ele>2061.49</ele>
        <time>2017-12-05T10:09:50Z</time>
      </trkpt>
      <trkpt lat="42.91102" lon="-0.06966">
        <ele>2062.26</ele>
        <time>2017-12-05T10:09:56Z</time>
      </trkpt>
      <trkpt lat="42.91107" lon="-0.06968">
        <ele>2062.88</ele>
        <time>2017-12-05T10:10:02Z</time>
      </trkpt>
      <trkpt lat="42.91111" lon="-0.0697">
        <ele>2063.47</ele>
        <time>2017-12-05T10:10:09Z</time>
      </trkpt>
      <trkpt lat="42.91116" lon="-0.06973">
        <ele>2064.13</ele>
        <time>2017-12-05T10:10:17Z</time>
      </trkpt>
      <trkpt lat="42.9112" lon="-0.06976">
        <ele>2065.06</ele>
        <time>2017-12-05T10:10:26Z</time>
      </trkpt>
      <trkpt lat="42.91124" lon="-0.0698">
        <ele>2066.37</ele>
        <time>2017-12-05T10:10:39Z</time>
      </trkpt>
      <trkpt lat="42.91127" lon="-0.06985">
        <ele>2067</ele>
        <time>2017-12-05T10:10:47Z</time>
      </trkpt>
      <trkpt lat="42.91131" lon="-0.0699">
        <ele>2067.74</ele>
        <time>2017-12-05T10:10:53Z</time>
      </trkpt>
      <trkpt lat="42.91125" lon="-0.06993">
        <ele>2068.8</ele>
        <time>2017-12-05T10:11:04Z</time>
      </trkpt>
      <trkpt lat="42.91121" lon="-0.06994">
        <ele>2070.15</ele>
        <time>2017-12-05T10:11:13Z</time>
      </trkpt>
      <trkpt lat="42.91116" lon="-0.06996">
        <ele>2071.35</ele>
        <time>2017-12-05T10:11:23Z</time>
      </trkpt>
      <trkpt lat="42.91112" lon="-0.06999">
        <ele>2072</ele>
        <time>2017-12-05T10:11:28Z</time>
      </trkpt>
      <trkpt lat="42.91108" lon="-0.07002">
        <ele>2073.07</ele>
        <time>2017-12-05T10:11:36Z</time>
      </trkpt>
      <trkpt lat="42.91103" lon="-0.07007">
        <ele>2074.06</ele>
        <time>2017-12-05T10:11:43Z</time>
      </trkpt>
      <trkpt lat="42.91106" lon="-0.07011">
        <ele>2074.83</ele>
        <time>2017-12-05T10:11:57Z</time>
      </trkpt>
      <trkpt lat="42.91111" lon="-0.07011">
        <ele>2075.56</ele>
        <time>2017-12-05T10:12:03Z</time>
      </trkpt>
      <trkpt lat="42.91116" lon="-0.07015">
        <ele>2076.47</ele>
        <time>2017-12-05T10:12:12Z</time>
      </trkpt>
      <trkpt lat="42.91119" lon="-0.0702">
        <ele>2077.59</ele>
        <time>2017-12-05T10:12:19Z</time>
      </trkpt>
      <trkpt lat="42.9112" lon="-0.07027">
        <ele>2078.55</ele>
        <time>2017-12-05T10:12:26Z</time>
      </trkpt>
      <trkpt lat="42.91119" lon="-0.07034">
        <ele>2079.19</ele>
        <time>2017-12-05T10:12:32Z</time>
      </trkpt>
      <trkpt lat="42.91116" lon="-0.07038">
        <ele>2079.93</ele>
        <time>2017-12-05T10:12:44Z</time>
      </trkpt>
      <trkpt lat="42.91113" lon="-0.07044">
        <ele>2080.62</ele>
        <time>2017-12-05T10:12:48Z</time>
      </trkpt>
      <trkpt lat="42.91115" lon="-0.07051">
        <ele>2081.38</ele>
        <time>2017-12-05T10:12:53Z</time>
      </trkpt>
      <trkpt lat="42.91118" lon="-0.07057">
        <ele>2081.9</ele>
        <time>2017-12-05T10:12:57Z</time>
      </trkpt>
      <trkpt lat="42.91116" lon="-0.0705">
        <ele>2082.81</ele>
        <time>2017-12-05T10:13:26Z</time>
      </trkpt>
      <trkpt lat="42.91111" lon="-0.07056">
        <ele>2087.91</ele>
        <time>2017-12-05T10:31:12Z</time>
      </trkpt>
      <trkpt lat="42.91104" lon="-0.07065">
        <ele>2087.55</ele>
        <time>2017-12-05T10:31:14Z</time>
      </trkpt>
      <trkpt lat="42.91099" lon="-0.07074">
        <ele>2087.32</ele>
        <time>2017-12-05T10:31:16Z</time>
      </trkpt>
      <trkpt lat="42.91096" lon="-0.07079">
        <ele>2086.74</ele>
        <time>2017-12-05T10:31:17Z</time>
      </trkpt>
      <trkpt lat="42.91093" lon="-0.07084">
        <ele>2086.14</ele>
        <time>2017-12-05T10:31:18Z</time>
      </trkpt>
      <trkpt lat="42.91091" lon="-0.0709">
        <ele>2085.76</ele>
        <time>2017-12-05T10:31:19Z</time>
      </trkpt>
      <trkpt lat="42.91086" lon="-0.07087">
        <ele>2084.79</ele>
        <time>2017-12-05T10:31:21Z</time>
      </trkpt>
      <trkpt lat="42.91081" lon="-0.07087">
        <ele>2084.13</ele>
        <time>2017-12-05T10:31:22Z</time>
      </trkpt>
      <trkpt lat="42.91073" lon="-0.07091">
        <ele>2082.96</ele>
        <time>2017-12-05T10:31:24Z</time>
      </trkpt>
      <trkpt lat="42.91065" lon="-0.0709">
        <ele>2081.84</ele>
        <time>2017-12-05T10:31:26Z</time>
      </trkpt>
      <trkpt lat="42.91061" lon="-0.07093">
        <ele>2081.56</ele>
        <time>2017-12-05T10:31:27Z</time>
      </trkpt>
      <trkpt lat="42.91057" lon="-0.07095">
        <ele>2081.25</ele>
        <time>2017-12-05T10:31:28Z</time>
      </trkpt>
      <trkpt lat="42.91049" lon="-0.07096">
        <ele>2080.37</ele>
        <time>2017-12-05T10:31:29Z</time>
      </trkpt>
      <trkpt lat="42.91043" lon="-0.07099">
        <ele>2079.34</ele>
        <time>2017-12-05T10:31:30Z</time>
      </trkpt>
      <trkpt lat="42.91037" lon="-0.0711">
        <ele>2077.58</ele>
        <time>2017-12-05T10:31:32Z</time>
      </trkpt>
      <trkpt lat="42.9103" lon="-0.07113">
        <ele>2074.7</ele>
        <time>2017-12-05T10:31:34Z</time>
      </trkpt>
      <trkpt lat="42.91023" lon="-0.0712">
        <ele>2074.18</ele>
        <time>2017-12-05T10:31:35Z</time>
      </trkpt>
      <trkpt lat="42.9102" lon="-0.07127">
        <ele>2074</ele>
        <time>2017-12-05T10:31:36Z</time>
      </trkpt>
      <trkpt lat="42.91014" lon="-0.0713">
        <ele>2073.41</ele>
        <time>2017-12-05T10:31:37Z</time>
      </trkpt>
      <trkpt lat="42.91008" lon="-0.07125">
        <ele>2072.73</ele>
        <time>2017-12-05T10:31:39Z</time>
      </trkpt>
      <trkpt lat="42.91005" lon="-0.07119">
        <ele>2072.04</ele>
        <time>2017-12-05T10:31:40Z</time>
      </trkpt>
      <trkpt lat="42.91" lon="-0.0712">
        <ele>2070.88</ele>
        <time>2017-12-05T10:31:41Z</time>
      </trkpt>
      <trkpt lat="42.90996" lon="-0.07125">
        <ele>2069.27</ele>
        <time>2017-12-05T10:31:42Z</time>
      </trkpt>
      <trkpt lat="42.90992" lon="-0.07131">
        <ele>2068.7</ele>
        <time>2017-12-05T10:31:43Z</time>
      </trkpt>
      <trkpt lat="42.90987" lon="-0.07133">
        <ele>2067.76</ele>
        <time>2017-12-05T10:31:49Z</time>
      </trkpt>
      <trkpt lat="42.90983" lon="-0.07134">
        <ele>2067.13</ele>
        <time>2017-12-05T10:31:51Z</time>
      </trkpt>
      <trkpt lat="42.90976" lon="-0.0714">
        <ele>2063.91</ele>
        <time>2017-12-05T10:31:53Z</time>
      </trkpt>
      <trkpt lat="42.90973" lon="-0.07146">
        <ele>2060.6</ele>
        <time>2017-12-05T10:31:54Z</time>
      </trkpt>
      <trkpt lat="42.90969" lon="-0.0715">
        <ele>2057.49</ele>
        <time>2017-12-05T10:31:55Z</time>
      </trkpt>
      <trkpt lat="42.90965" lon="-0.07155">
        <ele>2054.69</ele>
        <time>2017-12-05T10:31:56Z</time>
      </trkpt>
      <trkpt lat="42.90961" lon="-0.0716">
        <ele>2052.18</ele>
        <time>2017-12-05T10:31:57Z</time>
      </trkpt>
      <trkpt lat="42.90955" lon="-0.07167">
        <ele>2049.96</ele>
        <time>2017-12-05T10:31:58Z</time>
      </trkpt>
      <trkpt lat="42.90949" lon="-0.07174">
        <ele>2047.84</ele>
        <time>2017-12-05T10:31:59Z</time>
      </trkpt>
      <trkpt lat="42.90943" lon="-0.0718">
        <ele>2045.85</ele>
        <time>2017-12-05T10:32:00Z</time>
      </trkpt>
      <trkpt lat="42.90937" lon="-0.07186">
        <ele>2043.96</ele>
        <time>2017-12-05T10:32:01Z</time>
      </trkpt>
      <trkpt lat="42.9093" lon="-0.07193">
        <ele>2042.21</ele>
        <time>2017-12-05T10:32:02Z</time>
      </trkpt>
      <trkpt lat="42.90922" lon="-0.07198">
        <ele>2040.69</ele>
        <time>2017-12-05T10:32:03Z</time>
      </trkpt>
      <trkpt lat="42.90915" lon="-0.07202">
        <ele>2039.37</ele>
        <time>2017-12-05T10:32:04Z</time>
      </trkpt>
      <trkpt lat="42.90907" lon="-0.07205">
        <ele>2038.12</ele>
        <time>2017-12-05T10:32:05Z</time>
      </trkpt>
      <trkpt lat="42.90899" lon="-0.07208">
        <ele>2036.9</ele>
        <time>2017-12-05T10:32:06Z</time>
      </trkpt>
      <trkpt lat="42.90891" lon="-0.07211">
        <ele>2035.72</ele>
        <time>2017-12-05T10:32:07Z</time>
      </trkpt>
      <trkpt lat="42.90885" lon="-0.07218">
        <ele>2034.91</ele>
        <time>2017-12-05T10:32:08Z</time>
      </trkpt>
      <trkpt lat="42.90878" lon="-0.0722">
        <ele>2034.32</ele>
        <time>2017-12-05T10:32:09Z</time>
      </trkpt>
      <trkpt lat="42.90872" lon="-0.07219">
        <ele>2033.87</ele>
        <time>2017-12-05T10:32:10Z</time>
      </trkpt>
      <trkpt lat="42.90866" lon="-0.07218">
        <ele>2033.52</ele>
        <time>2017-12-05T10:32:11Z</time>
      </trkpt>
      <trkpt lat="42.90861" lon="-0.07218">
        <ele>2033.17</ele>
        <time>2017-12-05T10:32:12Z</time>
      </trkpt>
      <trkpt lat="42.90856" lon="-0.07217">
        <ele>2032.85</ele>
        <time>2017-12-05T10:32:13Z</time>
      </trkpt>
      <trkpt lat="42.9085" lon="-0.07214">
        <ele>2032.38</ele>
        <time>2017-12-05T10:32:15Z</time>
      </trkpt>
      <trkpt lat="42.90844" lon="-0.07211">
        <ele>2032.26</ele>
        <time>2017-12-05T10:32:17Z</time>
      </trkpt>
      <trkpt lat="42.90838" lon="-0.07208">
        <ele>2032.15</ele>
        <time>2017-12-05T10:32:19Z</time>
      </trkpt>
      <trkpt lat="42.90831" lon="-0.07203">
        <ele>2032.02</ele>
        <time>2017-12-05T10:32:21Z</time>
      </trkpt>
      <trkpt lat="42.90824" lon="-0.07197">
        <ele>2030.79</ele>
        <time>2017-12-05T10:32:23Z</time>
      </trkpt>
      <trkpt lat="42.9082" lon="-0.07193">
        <ele>2030.04</ele>
        <time>2017-12-05T10:32:24Z</time>
      </trkpt>
      <trkpt lat="42.90815" lon="-0.0719">
        <ele>2029.33</ele>
        <time>2017-12-05T10:32:25Z</time>
      </trkpt>
      <trkpt lat="42.9081" lon="-0.07185">
        <ele>2028.57</ele>
        <time>2017-12-05T10:32:26Z</time>
      </trkpt>
      <trkpt lat="42.90803" lon="-0.0718">
        <ele>2027.8</ele>
        <time>2017-12-05T10:32:27Z</time>
      </trkpt>
      <trkpt lat="42.90797" lon="-0.07176">
        <ele>2027.06</ele>
        <time>2017-12-05T10:32:28Z</time>
      </trkpt>
      <trkpt lat="42.9079" lon="-0.07172">
        <ele>2026.27</ele>
        <time>2017-12-05T10:32:29Z</time>
      </trkpt>
      <trkpt lat="42.90785" lon="-0.07168">
        <ele>2025.43</ele>
        <time>2017-12-05T10:32:30Z</time>
      </trkpt>
      <trkpt lat="42.90779" lon="-0.07165">
        <ele>2024.57</ele>
        <time>2017-12-05T10:32:31Z</time>
      </trkpt>
      <trkpt lat="42.90775" lon="-0.07162">
        <ele>2023.74</ele>
        <time>2017-12-05T10:32:32Z</time>
      </trkpt>
      <trkpt lat="42.90769" lon="-0.07157">
        <ele>2022.81</ele>
        <time>2017-12-05T10:32:33Z</time>
      </trkpt>
      <trkpt lat="42.90765" lon="-0.07154">
        <ele>2021.85</ele>
        <time>2017-12-05T10:32:34Z</time>
      </trkpt>
      <trkpt lat="42.9076" lon="-0.07151">
        <ele>2020.88</ele>
        <time>2017-12-05T10:32:35Z</time>
      </trkpt>
      <trkpt lat="42.90756" lon="-0.07149">
        <ele>2019.9</ele>
        <time>2017-12-05T10:32:36Z</time>
      </trkpt>
      <trkpt lat="42.90754" lon="-0.07137">
        <ele>2017.77</ele>
        <time>2017-12-05T10:32:38Z</time>
      </trkpt>
      <trkpt lat="42.90751" lon="-0.07126">
        <ele>2015.58</ele>
        <time>2017-12-05T10:32:40Z</time>
      </trkpt>
      <trkpt lat="42.90754" lon="-0.07117">
        <ele>2012.63</ele>
        <time>2017-12-05T10:32:42Z</time>
      </trkpt>
      <trkpt lat="42.90751" lon="-0.0711">
        <ele>2003.59</ele>
        <time>2017-12-05T10:32:48Z</time>
      </trkpt>
      <trkpt lat="42.90746" lon="-0.071">
        <ele>2000.35</ele>
        <time>2017-12-05T10:32:50Z</time>
      </trkpt>
      <trkpt lat="42.90741" lon="-0.0709">
        <ele>1996.55</ele>
        <time>2017-12-05T10:32:52Z</time>
      </trkpt>
      <trkpt lat="42.90736" lon="-0.07082">
        <ele>1994.2</ele>
        <time>2017-12-05T10:32:53Z</time>
      </trkpt>
      <trkpt lat="42.90731" lon="-0.07074">
        <ele>1991.46</ele>
        <time>2017-12-05T10:32:54Z</time>
      </trkpt>
      <trkpt lat="42.90728" lon="-0.07067">
        <ele>1988.81</ele>
        <time>2017-12-05T10:32:55Z</time>
      </trkpt>
      <trkpt lat="42.90727" lon="-0.07058">
        <ele>1986.03</ele>
        <time>2017-12-05T10:32:56Z</time>
      </trkpt>
      <trkpt lat="42.90724" lon="-0.07049">
        <ele>1982.89</ele>
        <time>2017-12-05T10:32:57Z</time>
      </trkpt>
      <trkpt lat="42.90722" lon="-0.07039">
        <ele>1979.65</ele>
        <time>2017-12-05T10:32:58Z</time>
      </trkpt>
      <trkpt lat="42.90723" lon="-0.07029">
        <ele>1976.28</ele>
        <time>2017-12-05T10:32:59Z</time>
      </trkpt>
      <trkpt lat="42.90723" lon="-0.07019">
        <ele>1973.23</ele>
        <time>2017-12-05T10:33:00Z</time>
      </trkpt>
      <trkpt lat="42.90725" lon="-0.07012">
        <ele>1970.4</ele>
        <time>2017-12-05T10:33:01Z</time>
      </trkpt>
      <trkpt lat="42.90726" lon="-0.07005">
        <ele>1967.89</ele>
        <time>2017-12-05T10:33:02Z</time>
      </trkpt>
      <trkpt lat="42.90725" lon="-0.06998">
        <ele>1965.44</ele>
        <time>2017-12-05T10:33:03Z</time>
      </trkpt>
      <trkpt lat="42.90727" lon="-0.0699">
        <ele>1962.98</ele>
        <time>2017-12-05T10:33:04Z</time>
      </trkpt>
      <trkpt lat="42.90727" lon="-0.0698">
        <ele>1960.85</ele>
        <time>2017-12-05T10:33:05Z</time>
      </trkpt>
      <trkpt lat="42.90725" lon="-0.06972">
        <ele>1958.64</ele>
        <time>2017-12-05T10:33:06Z</time>
      </trkpt>
      <trkpt lat="42.90723" lon="-0.06962">
        <ele>1956.4</ele>
        <time>2017-12-05T10:33:07Z</time>
      </trkpt>
      <trkpt lat="42.90722" lon="-0.06954">
        <ele>1954.24</ele>
        <time>2017-12-05T10:33:08Z</time>
      </trkpt>
      <trkpt lat="42.90717" lon="-0.06947">
        <ele>1952.19</ele>
        <time>2017-12-05T10:33:09Z</time>
      </trkpt>
      <trkpt lat="42.90711" lon="-0.06942">
        <ele>1950.53</ele>
        <time>2017-12-05T10:33:10Z</time>
      </trkpt>
      <trkpt lat="42.90705" lon="-0.06935">
        <ele>1949.13</ele>
        <time>2017-12-05T10:33:11Z</time>
      </trkpt>
      <trkpt lat="42.907" lon="-0.06929">
        <ele>1947.88</ele>
        <time>2017-12-05T10:33:12Z</time>
      </trkpt>
      <trkpt lat="42.90695" lon="-0.06922">
        <ele>1946.58</ele>
        <time>2017-12-05T10:33:13Z</time>
      </trkpt>
      <trkpt lat="42.90691" lon="-0.06916">
        <ele>1945.22</ele>
        <time>2017-12-05T10:33:14Z</time>
      </trkpt>
      <trkpt lat="42.90687" lon="-0.06911">
        <ele>1943.72</ele>
        <time>2017-12-05T10:33:15Z</time>
      </trkpt>
      <trkpt lat="42.90683" lon="-0.06906">
        <ele>1942.16</ele>
        <time>2017-12-05T10:33:16Z</time>
      </trkpt>
      <trkpt lat="42.9068" lon="-0.06901">
        <ele>1940.66</ele>
        <time>2017-12-05T10:33:17Z</time>
      </trkpt>
      <trkpt lat="42.90677" lon="-0.06896">
        <ele>1940.09</ele>
        <time>2017-12-05T10:33:18Z</time>
      </trkpt>
      <trkpt lat="42.90672" lon="-0.06886">
        <ele>1937.77</ele>
        <time>2017-12-05T10:33:20Z</time>
      </trkpt>
      <trkpt lat="42.90671" lon="-0.06877">
        <ele>1935.36</ele>
        <time>2017-12-05T10:33:21Z</time>
      </trkpt>
      <trkpt lat="42.9067" lon="-0.06869">
        <ele>1932.94</ele>
        <time>2017-12-05T10:33:22Z</time>
      </trkpt>
      <trkpt lat="42.9067" lon="-0.06857">
        <ele>1930.33</ele>
        <time>2017-12-05T10:33:23Z</time>
      </trkpt>
      <trkpt lat="42.90668" lon="-0.06848">
        <ele>1927.79</ele>
        <time>2017-12-05T10:33:24Z</time>
      </trkpt>
      <trkpt lat="42.90663" lon="-0.06841">
        <ele>1925.45</ele>
        <time>2017-12-05T10:33:25Z</time>
      </trkpt>
      <trkpt lat="42.90658" lon="-0.06837">
        <ele>1923.26</ele>
        <time>2017-12-05T10:33:26Z</time>
      </trkpt>
      <trkpt lat="42.90654" lon="-0.06832">
        <ele>1921.19</ele>
        <time>2017-12-05T10:33:27Z</time>
      </trkpt>
      <trkpt lat="42.90652" lon="-0.06825">
        <ele>1919.5</ele>
        <time>2017-12-05T10:33:28Z</time>
      </trkpt>
      <trkpt lat="42.90647" lon="-0.06818">
        <ele>1917.82</ele>
        <time>2017-12-05T10:33:29Z</time>
      </trkpt>
      <trkpt lat="42.90642" lon="-0.06809">
        <ele>1916.35</ele>
        <time>2017-12-05T10:33:30Z</time>
      </trkpt>
      <trkpt lat="42.90637" lon="-0.06802">
        <ele>1914.96</ele>
        <time>2017-12-05T10:33:31Z</time>
      </trkpt>
      <trkpt lat="42.90633" lon="-0.06795">
        <ele>1913.43</ele>
        <time>2017-12-05T10:33:32Z</time>
      </trkpt>
      <trkpt lat="42.90629" lon="-0.06788">
        <ele>1911.79</ele>
        <time>2017-12-05T10:33:33Z</time>
      </trkpt>
      <trkpt lat="42.90625" lon="-0.0678">
        <ele>1910.02</ele>
        <time>2017-12-05T10:33:34Z</time>
      </trkpt>
      <trkpt lat="42.90622" lon="-0.06772">
        <ele>1908.19</ele>
        <time>2017-12-05T10:33:35Z</time>
      </trkpt>
      <trkpt lat="42.9062" lon="-0.06764">
        <ele>1906.37</ele>
        <time>2017-12-05T10:33:36Z</time>
      </trkpt>
      <trkpt lat="42.90618" lon="-0.06754">
        <ele>1904.43</ele>
        <time>2017-12-05T10:33:37Z</time>
      </trkpt>
      <trkpt lat="42.90616" lon="-0.06745">
        <ele>1902.52</ele>
        <time>2017-12-05T10:33:38Z</time>
      </trkpt>
      <trkpt lat="42.9061" lon="-0.06737">
        <ele>1900.68</ele>
        <time>2017-12-05T10:33:39Z</time>
      </trkpt>
      <trkpt lat="42.90606" lon="-0.06731">
        <ele>1898.91</ele>
        <time>2017-12-05T10:33:40Z</time>
      </trkpt>
      <trkpt lat="42.90603" lon="-0.06726">
        <ele>1897.25</ele>
        <time>2017-12-05T10:33:41Z</time>
      </trkpt>
      <trkpt lat="42.90601" lon="-0.06718">
        <ele>1895.71</ele>
        <time>2017-12-05T10:33:42Z</time>
      </trkpt>
      <trkpt lat="42.90601" lon="-0.0671">
        <ele>1894.18</ele>
        <time>2017-12-05T10:33:43Z</time>
      </trkpt>
      <trkpt lat="42.90603" lon="-0.06703">
        <ele>1892.52</ele>
        <time>2017-12-05T10:33:44Z</time>
      </trkpt>
      <trkpt lat="42.90603" lon="-0.06696">
        <ele>1890.88</ele>
        <time>2017-12-05T10:33:45Z</time>
      </trkpt>
      <trkpt lat="42.90599" lon="-0.06686">
        <ele>1888.68</ele>
        <time>2017-12-05T10:33:47Z</time>
      </trkpt>
      <trkpt lat="42.90603" lon="-0.06682">
        <ele>1881.74</ele>
        <time>2017-12-05T10:36:39Z</time>
      </trkpt>
      <trkpt lat="42.90604" lon="-0.06669">
        <ele>1877.22</ele>
        <time>2017-12-05T10:36:41Z</time>
      </trkpt>
      <trkpt lat="42.90603" lon="-0.06658">
        <ele>1872.93</ele>
        <time>2017-12-05T10:36:43Z</time>
      </trkpt>
      <trkpt lat="42.90603" lon="-0.0665">
        <ele>1871.23</ele>
        <time>2017-12-05T10:36:44Z</time>
      </trkpt>
      <trkpt lat="42.90601" lon="-0.06643">
        <ele>1869.64</ele>
        <time>2017-12-05T10:36:45Z</time>
      </trkpt>
      <trkpt lat="42.90601" lon="-0.06635">
        <ele>1868.18</ele>
        <time>2017-12-05T10:36:46Z</time>
      </trkpt>
      <trkpt lat="42.90599" lon="-0.06628">
        <ele>1866.81</ele>
        <time>2017-12-05T10:36:47Z</time>
      </trkpt>
      <trkpt lat="42.90598" lon="-0.06618">
        <ele>1863.69</ele>
        <time>2017-12-05T10:36:49Z</time>
      </trkpt>
      <trkpt lat="42.90598" lon="-0.0661">
        <ele>1862.08</ele>
        <time>2017-12-05T10:36:50Z</time>
      </trkpt>
      <trkpt lat="42.906" lon="-0.06604">
        <ele>1860.56</ele>
        <time>2017-12-05T10:36:51Z</time>
      </trkpt>
      <trkpt lat="42.90598" lon="-0.06598">
        <ele>1858.84</ele>
        <time>2017-12-05T10:36:52Z</time>
      </trkpt>
      <trkpt lat="42.906" lon="-0.06588">
        <ele>1856.46</ele>
        <time>2017-12-05T10:36:54Z</time>
      </trkpt>
      <trkpt lat="42.90597" lon="-0.06583">
        <ele>1854.49</ele>
        <time>2017-12-05T10:36:55Z</time>
      </trkpt>
      <trkpt lat="42.90593" lon="-0.06578">
        <ele>1852.6</ele>
        <time>2017-12-05T10:36:56Z</time>
      </trkpt>
      <trkpt lat="42.90592" lon="-0.06572">
        <ele>1850.74</ele>
        <time>2017-12-05T10:36:57Z</time>
      </trkpt>
      <trkpt lat="42.90592" lon="-0.06565">
        <ele>1848.83</ele>
        <time>2017-12-05T10:36:58Z</time>
      </trkpt>
      <trkpt lat="42.90592" lon="-0.06558">
        <ele>1846.92</ele>
        <time>2017-12-05T10:36:59Z</time>
      </trkpt>
      <trkpt lat="42.90593" lon="-0.06551">
        <ele>1845.19</ele>
        <time>2017-12-05T10:37:00Z</time>
      </trkpt>
      <trkpt lat="42.90592" lon="-0.06544">
        <ele>1843.52</ele>
        <time>2017-12-05T10:37:01Z</time>
      </trkpt>
      <trkpt lat="42.90591" lon="-0.06531">
        <ele>1840.44</ele>
        <time>2017-12-05T10:37:03Z</time>
      </trkpt>
      <trkpt lat="42.90591" lon="-0.06522">
        <ele>1838.99</ele>
        <time>2017-12-05T10:37:04Z</time>
      </trkpt>
      <trkpt lat="42.90589" lon="-0.06516">
        <ele>1837.61</ele>
        <time>2017-12-05T10:37:05Z</time>
      </trkpt>
      <trkpt lat="42.90588" lon="-0.06509">
        <ele>1836.38</ele>
        <time>2017-12-05T10:37:06Z</time>
      </trkpt>
      <trkpt lat="42.90585" lon="-0.06501">
        <ele>1834.95</ele>
        <time>2017-12-05T10:37:07Z</time>
      </trkpt>
      <trkpt lat="42.90583" lon="-0.06493">
        <ele>1833.43</ele>
        <time>2017-12-05T10:37:08Z</time>
      </trkpt>
      <trkpt lat="42.90582" lon="-0.06479">
        <ele>1829.8</ele>
        <time>2017-12-05T10:37:10Z</time>
      </trkpt>
      <trkpt lat="42.90582" lon="-0.06471">
        <ele>1827.97</ele>
        <time>2017-12-05T10:37:11Z</time>
      </trkpt>
      <trkpt lat="42.90581" lon="-0.06462">
        <ele>1825.93</ele>
        <time>2017-12-05T10:37:12Z</time>
      </trkpt>
      <trkpt lat="42.90579" lon="-0.06455">
        <ele>1823.74</ele>
        <time>2017-12-05T10:37:13Z</time>
      </trkpt>
      <trkpt lat="42.90578" lon="-0.06446">
        <ele>1821.8</ele>
        <time>2017-12-05T10:37:14Z</time>
      </trkpt>
      <trkpt lat="42.90578" lon="-0.0644">
        <ele>1820.06</ele>
        <time>2017-12-05T10:37:15Z</time>
      </trkpt>
      <trkpt lat="42.90576" lon="-0.06434">
        <ele>1818.52</ele>
        <time>2017-12-05T10:37:16Z</time>
      </trkpt>
      <trkpt lat="42.90576" lon="-0.06427">
        <ele>1817.13</ele>
        <time>2017-12-05T10:37:17Z</time>
      </trkpt>
      <trkpt lat="42.90575" lon="-0.0642">
        <ele>1815.73</ele>
        <time>2017-12-05T10:37:18Z</time>
      </trkpt>
      <trkpt lat="42.9057" lon="-0.06414">
        <ele>1814.41</ele>
        <time>2017-12-05T10:37:19Z</time>
      </trkpt>
      <trkpt lat="42.90566" lon="-0.0641">
        <ele>1813.37</ele>
        <time>2017-12-05T10:37:20Z</time>
      </trkpt>
      <trkpt lat="42.90563" lon="-0.06401">
        <ele>1812.46</ele>
        <time>2017-12-05T10:37:21Z</time>
      </trkpt>
      <trkpt lat="42.90559" lon="-0.06394">
        <ele>1811.21</ele>
        <time>2017-12-05T10:37:22Z</time>
      </trkpt>
      <trkpt lat="42.90556" lon="-0.06386">
        <ele>1809.84</ele>
        <time>2017-12-05T10:37:23Z</time>
      </trkpt>
      <trkpt lat="42.90554" lon="-0.06378">
        <ele>1808.33</ele>
        <time>2017-12-05T10:37:24Z</time>
      </trkpt>
      <trkpt lat="42.90552" lon="-0.06372">
        <ele>1806.73</ele>
        <time>2017-12-05T10:37:25Z</time>
      </trkpt>
      <trkpt lat="42.90549" lon="-0.06365">
        <ele>1805.17</ele>
        <time>2017-12-05T10:37:26Z</time>
      </trkpt>
      <trkpt lat="42.90549" lon="-0.06356">
        <ele>1803.56</ele>
        <time>2017-12-05T10:37:27Z</time>
      </trkpt>
      <trkpt lat="42.90545" lon="-0.0635">
        <ele>1802.97</ele>
        <time>2017-12-05T10:37:28Z</time>
      </trkpt>
      <trkpt lat="42.90539" lon="-0.06339">
        <ele>1790.95</ele>
        <time>2017-12-05T10:41:35Z</time>
      </trkpt>
      <trkpt lat="42.90536" lon="-0.06344">
        <ele>1784.8</ele>
        <time>2017-12-05T10:45:22Z</time>
      </trkpt>
      <trkpt lat="42.90531" lon="-0.06347">
        <ele>1784.21</ele>
        <time>2017-12-05T10:45:30Z</time>
      </trkpt>
      <trkpt lat="42.90536" lon="-0.06348">
        <ele>1783.92</ele>
        <time>2017-12-05T10:45:46Z</time>
      </trkpt>
      <trkpt lat="42.9054" lon="-0.06343">
        <ele>1784.18</ele>
        <time>2017-12-05T10:46:10Z</time>
      </trkpt>
      <trkpt lat="42.90536" lon="-0.06339">
        <ele>1780.24</ele>
        <time>2017-12-05T10:49:24Z</time>
      </trkpt>
      <trkpt lat="42.90531" lon="-0.06341">
        <ele>1779.28</ele>
        <time>2017-12-05T10:49:38Z</time>
      </trkpt>
      <trkpt lat="42.90535" lon="-0.06343">
        <ele>1778.57</ele>
        <time>2017-12-05T10:50:13Z</time>
      </trkpt>
      <trkpt lat="42.9054" lon="-0.06341">
        <ele>1777.99</ele>
        <time>2017-12-05T10:52:36Z</time>
      </trkpt>
      <trkpt lat="42.90545" lon="-0.06345">
        <ele>1780.47</ele>
        <time>2017-12-05T10:53:32Z</time>
      </trkpt>
      <trkpt lat="42.9055" lon="-0.0635">
        <ele>1781.1</ele>
        <time>2017-12-05T10:53:35Z</time>
      </trkpt>
      <trkpt lat="42.90554" lon="-0.06353">
        <ele>1782.14</ele>
        <time>2017-12-05T10:53:39Z</time>
      </trkpt>
      <trkpt lat="42.90555" lon="-0.0636">
        <ele>1783.58</ele>
        <time>2017-12-05T10:53:50Z</time>
      </trkpt>
      <trkpt lat="42.90554" lon="-0.06366">
        <ele>1783.23</ele>
        <time>2017-12-05T10:53:57Z</time>
      </trkpt>
      <trkpt lat="42.90556" lon="-0.06372">
        <ele>1782.46</ele>
        <time>2017-12-05T10:54:07Z</time>
      </trkpt>
      <trkpt lat="42.90559" lon="-0.06377">
        <ele>1782.49</ele>
        <time>2017-12-05T10:54:13Z</time>
      </trkpt>
      <trkpt lat="42.90561" lon="-0.06383">
        <ele>1782.81</ele>
        <time>2017-12-05T10:54:20Z</time>
      </trkpt>
      <trkpt lat="42.90565" lon="-0.06386">
        <ele>1782.52</ele>
        <time>2017-12-05T10:54:28Z</time>
      </trkpt>
      <trkpt lat="42.9057" lon="-0.06388">
        <ele>1782.61</ele>
        <time>2017-12-05T10:54:33Z</time>
      </trkpt>
      <trkpt lat="42.90573" lon="-0.06394">
        <ele>1783.32</ele>
        <time>2017-12-05T10:54:37Z</time>
      </trkpt>
      <trkpt lat="42.90577" lon="-0.06396">
        <ele>1785.7</ele>
        <time>2017-12-05T10:54:46Z</time>
      </trkpt>
      <trkpt lat="42.90577" lon="-0.06403">
        <ele>1787.81</ele>
        <time>2017-12-05T10:54:53Z</time>
      </trkpt>
      <trkpt lat="42.90573" lon="-0.06407">
        <ele>1791.04</ele>
        <time>2017-12-05T10:55:07Z</time>
      </trkpt>
      <trkpt lat="42.90572" lon="-0.06414">
        <ele>1792.24</ele>
        <time>2017-12-05T10:55:16Z</time>
      </trkpt>
      <trkpt lat="42.90575" lon="-0.06419">
        <ele>1792.84</ele>
        <time>2017-12-05T10:55:24Z</time>
      </trkpt>
      <trkpt lat="42.90579" lon="-0.0642">
        <ele>1793.63</ele>
        <time>2017-12-05T10:55:29Z</time>
      </trkpt>
      <trkpt lat="42.90582" lon="-0.06426">
        <ele>1794.87</ele>
        <time>2017-12-05T10:55:35Z</time>
      </trkpt>
      <trkpt lat="42.90584" lon="-0.06433">
        <ele>1796.54</ele>
        <time>2017-12-05T10:55:44Z</time>
      </trkpt>
      <trkpt lat="42.90581" lon="-0.06438">
        <ele>1797.36</ele>
        <time>2017-12-05T10:55:51Z</time>
      </trkpt>
      <trkpt lat="42.90582" lon="-0.06446">
        <ele>1797.93</ele>
        <time>2017-12-05T10:55:57Z</time>
      </trkpt>
      <trkpt lat="42.90585" lon="-0.06451">
        <ele>1798.59</ele>
        <time>2017-12-05T10:56:05Z</time>
      </trkpt>
      <trkpt lat="42.90584" lon="-0.06459">
        <ele>1800.12</ele>
        <time>2017-12-05T10:56:18Z</time>
      </trkpt>
      <trkpt lat="42.90585" lon="-0.06469">
        <ele>1801.42</ele>
        <time>2017-12-05T10:56:30Z</time>
      </trkpt>
      <trkpt lat="42.90583" lon="-0.06475">
        <ele>1803.9</ele>
        <time>2017-12-05T10:56:49Z</time>
      </trkpt>
      <trkpt lat="42.90583" lon="-0.06482">
        <ele>1805.83</ele>
        <time>2017-12-05T10:56:58Z</time>
      </trkpt>
      <trkpt lat="42.90586" lon="-0.06486">
        <ele>1807.07</ele>
        <time>2017-12-05T10:57:04Z</time>
      </trkpt>
      <trkpt lat="42.9059" lon="-0.06489">
        <ele>1808.35</ele>
        <time>2017-12-05T10:57:09Z</time>
      </trkpt>
      <trkpt lat="42.90588" lon="-0.06496">
        <ele>1811.08</ele>
        <time>2017-12-05T10:57:23Z</time>
      </trkpt>
      <trkpt lat="42.90587" lon="-0.06502">
        <ele>1812.04</ele>
        <time>2017-12-05T10:57:28Z</time>
      </trkpt>
      <trkpt lat="42.90587" lon="-0.06508">
        <ele>1813.66</ele>
        <time>2017-12-05T10:57:36Z</time>
      </trkpt>
      <trkpt lat="42.9059" lon="-0.06514">
        <ele>1814.23</ele>
        <time>2017-12-05T10:57:51Z</time>
      </trkpt>
      <trkpt lat="42.90594" lon="-0.06517">
        <ele>1813.52</ele>
        <time>2017-12-05T10:57:57Z</time>
      </trkpt>
      <trkpt lat="42.90597" lon="-0.06522">
        <ele>1813</ele>
        <time>2017-12-05T10:58:04Z</time>
      </trkpt>
      <trkpt lat="42.90597" lon="-0.06529">
        <ele>1813.26</ele>
        <time>2017-12-05T10:58:19Z</time>
      </trkpt>
      <trkpt lat="42.90596" lon="-0.06536">
        <ele>1814.64</ele>
        <time>2017-12-05T10:58:26Z</time>
      </trkpt>
      <trkpt lat="42.90592" lon="-0.06541">
        <ele>1817.89</ele>
        <time>2017-12-05T10:58:37Z</time>
      </trkpt>
      <trkpt lat="42.90592" lon="-0.06548">
        <ele>1819.67</ele>
        <time>2017-12-05T10:58:47Z</time>
      </trkpt>
      <trkpt lat="42.90593" lon="-0.06555">
        <ele>1819.81</ele>
        <time>2017-12-05T10:58:52Z</time>
      </trkpt>
      <trkpt lat="42.90596" lon="-0.06561">
        <ele>1819.84</ele>
        <time>2017-12-05T10:58:56Z</time>
      </trkpt>
      <trkpt lat="42.90598" lon="-0.06567">
        <ele>1819.81</ele>
        <time>2017-12-05T10:59:02Z</time>
      </trkpt>
      <trkpt lat="42.90593" lon="-0.06568">
        <ele>1822.29</ele>
        <time>2017-12-05T10:59:18Z</time>
      </trkpt>
      <trkpt lat="42.90591" lon="-0.06575">
        <ele>1823.3</ele>
        <time>2017-12-05T10:59:25Z</time>
      </trkpt>
      <trkpt lat="42.90593" lon="-0.0658">
        <ele>1824.01</ele>
        <time>2017-12-05T10:59:33Z</time>
      </trkpt>
      <trkpt lat="42.90596" lon="-0.06586">
        <ele>1824.43</ele>
        <time>2017-12-05T10:59:39Z</time>
      </trkpt>
      <trkpt lat="42.90595" lon="-0.06592">
        <ele>1829.08</ele>
        <time>2017-12-05T11:00:02Z</time>
      </trkpt>
      <trkpt lat="42.90592" lon="-0.06597">
        <ele>1830.67</ele>
        <time>2017-12-05T11:00:08Z</time>
      </trkpt>
      <trkpt lat="42.90589" lon="-0.06603">
        <ele>1832.24</ele>
        <time>2017-12-05T11:00:16Z</time>
      </trkpt>
      <trkpt lat="42.90586" lon="-0.06612">
        <ele>1834.05</ele>
        <time>2017-12-05T11:00:27Z</time>
      </trkpt>
      <trkpt lat="42.9059" lon="-0.06615">
        <ele>1835.38</ele>
        <time>2017-12-05T11:00:35Z</time>
      </trkpt>
      <trkpt lat="42.90596" lon="-0.06619">
        <ele>1836.94</ele>
        <time>2017-12-05T11:00:40Z</time>
      </trkpt>
      <trkpt lat="42.906" lon="-0.06622">
        <ele>1839.1</ele>
        <time>2017-12-05T11:00:46Z</time>
      </trkpt>
      <trkpt lat="42.90602" lon="-0.06628">
        <ele>1842.38</ele>
        <time>2017-12-05T11:00:56Z</time>
      </trkpt>
      <trkpt lat="42.90597" lon="-0.06628">
        <ele>1844.13</ele>
        <time>2017-12-05T11:01:02Z</time>
      </trkpt>
      <trkpt lat="42.90592" lon="-0.06631">
        <ele>1846.12</ele>
        <time>2017-12-05T11:01:08Z</time>
      </trkpt>
      <trkpt lat="42.90588" lon="-0.06635">
        <ele>1849.01</ele>
        <time>2017-12-05T11:01:17Z</time>
      </trkpt>
      <trkpt lat="42.90588" lon="-0.06642">
        <ele>1852.14</ele>
        <time>2017-12-05T11:01:37Z</time>
      </trkpt>
      <trkpt lat="42.90591" lon="-0.06648">
        <ele>1852.36</ele>
        <time>2017-12-05T11:01:42Z</time>
      </trkpt>
      <trkpt lat="42.90596" lon="-0.06652">
        <ele>1852.99</ele>
        <time>2017-12-05T11:01:50Z</time>
      </trkpt>
      <trkpt lat="42.90597" lon="-0.06657">
        <ele>1853.06</ele>
        <time>2017-12-05T11:01:53Z</time>
      </trkpt>
      <trkpt lat="42.90594" lon="-0.06661">
        <ele>1852</ele>
        <time>2017-12-05T11:02:16Z</time>
      </trkpt>
      <trkpt lat="42.90594" lon="-0.0667">
        <ele>1852.37</ele>
        <time>2017-12-05T11:02:23Z</time>
      </trkpt>
      <trkpt lat="42.90596" lon="-0.06676">
        <ele>1852.43</ele>
        <time>2017-12-05T11:02:25Z</time>
      </trkpt>
      <trkpt lat="42.90599" lon="-0.06682">
        <ele>1853.03</ele>
        <time>2017-12-05T11:02:37Z</time>
      </trkpt>
      <trkpt lat="42.90598" lon="-0.06688">
        <ele>1855.15</ele>
        <time>2017-12-05T11:02:50Z</time>
      </trkpt>
      <trkpt lat="42.90595" lon="-0.06693">
        <ele>1859.72</ele>
        <time>2017-12-05T11:03:10Z</time>
      </trkpt>
      <trkpt lat="42.90594" lon="-0.06699">
        <ele>1860.4</ele>
        <time>2017-12-05T11:03:15Z</time>
      </trkpt>
      <trkpt lat="42.90596" lon="-0.06705">
        <ele>1860.84</ele>
        <time>2017-12-05T11:03:19Z</time>
      </trkpt>
      <trkpt lat="42.906" lon="-0.06709">
        <ele>1861.52</ele>
        <time>2017-12-05T11:03:27Z</time>
      </trkpt>
      <trkpt lat="42.90604" lon="-0.06713">
        <ele>1862.25</ele>
        <time>2017-12-05T11:03:35Z</time>
      </trkpt>
      <trkpt lat="42.90603" lon="-0.0672">
        <ele>1865.21</ele>
        <time>2017-12-05T11:03:46Z</time>
      </trkpt>
      <trkpt lat="42.906" lon="-0.06725">
        <ele>1868.21</ele>
        <time>2017-12-05T11:03:54Z</time>
      </trkpt>
      <trkpt lat="42.90597" lon="-0.0673">
        <ele>1872.88</ele>
        <time>2017-12-05T11:04:07Z</time>
      </trkpt>
      <trkpt lat="42.90597" lon="-0.06736">
        <ele>1874.03</ele>
        <time>2017-12-05T11:04:11Z</time>
      </trkpt>
      <trkpt lat="42.90598" lon="-0.06743">
        <ele>1875.49</ele>
        <time>2017-12-05T11:04:18Z</time>
      </trkpt>
      <trkpt lat="42.90602" lon="-0.06749">
        <ele>1876.71</ele>
        <time>2017-12-05T11:04:24Z</time>
      </trkpt>
      <trkpt lat="42.90606" lon="-0.06753">
        <ele>1878.7</ele>
        <time>2017-12-05T11:04:32Z</time>
      </trkpt>
      <trkpt lat="42.9061" lon="-0.06759">
        <ele>1880.42</ele>
        <time>2017-12-05T11:04:41Z</time>
      </trkpt>
      <trkpt lat="42.90612" lon="-0.06764">
        <ele>1881.46</ele>
        <time>2017-12-05T11:04:49Z</time>
      </trkpt>
      <trkpt lat="42.90615" lon="-0.06771">
        <ele>1882.13</ele>
        <time>2017-12-05T11:04:53Z</time>
      </trkpt>
      <trkpt lat="42.90619" lon="-0.06774">
        <ele>1883.8</ele>
        <time>2017-12-05T11:05:07Z</time>
      </trkpt>
      <trkpt lat="42.9062" lon="-0.0678">
        <ele>1884.36</ele>
        <time>2017-12-05T11:05:12Z</time>
      </trkpt>
      <trkpt lat="42.90621" lon="-0.06787">
        <ele>1885</ele>
        <time>2017-12-05T11:05:17Z</time>
      </trkpt>
      <trkpt lat="42.90624" lon="-0.06792">
        <ele>1886.09</ele>
        <time>2017-12-05T11:05:27Z</time>
      </trkpt>
      <trkpt lat="42.90622" lon="-0.06797">
        <ele>1888.41</ele>
        <time>2017-12-05T11:05:45Z</time>
      </trkpt>
      <trkpt lat="42.90619" lon="-0.06803">
        <ele>1890.32</ele>
        <time>2017-12-05T11:05:57Z</time>
      </trkpt>
      <trkpt lat="42.90616" lon="-0.06812">
        <ele>1891.64</ele>
        <time>2017-12-05T11:06:03Z</time>
      </trkpt>
      <trkpt lat="42.90615" lon="-0.06818">
        <ele>1894.38</ele>
        <time>2017-12-05T11:06:14Z</time>
      </trkpt>
      <trkpt lat="42.90614" lon="-0.06824">
        <ele>1894.98</ele>
        <time>2017-12-05T11:06:18Z</time>
      </trkpt>
      <trkpt lat="42.90616" lon="-0.0683">
        <ele>1897.16</ele>
        <time>2017-12-05T11:06:29Z</time>
      </trkpt>
      <trkpt lat="42.90619" lon="-0.06837">
        <ele>1898.47</ele>
        <time>2017-12-05T11:06:34Z</time>
      </trkpt>
      <trkpt lat="42.90622" lon="-0.06843">
        <ele>1900.15</ele>
        <time>2017-12-05T11:06:44Z</time>
      </trkpt>
      <trkpt lat="42.90624" lon="-0.06853">
        <ele>1900.7</ele>
        <time>2017-12-05T11:06:48Z</time>
      </trkpt>
      <trkpt lat="42.90627" lon="-0.06857">
        <ele>1903.07</ele>
        <time>2017-12-05T11:07:02Z</time>
      </trkpt>
      <trkpt lat="42.90629" lon="-0.06863">
        <ele>1904.11</ele>
        <time>2017-12-05T11:07:09Z</time>
      </trkpt>
      <trkpt lat="42.90632" lon="-0.06869">
        <ele>1905.7</ele>
        <time>2017-12-05T11:07:20Z</time>
      </trkpt>
      <trkpt lat="42.90631" lon="-0.06876">
        <ele>1906.68</ele>
        <time>2017-12-05T11:07:27Z</time>
      </trkpt>
      <trkpt lat="42.90631" lon="-0.06882">
        <ele>1908.43</ele>
        <time>2017-12-05T11:07:36Z</time>
      </trkpt>
      <trkpt lat="42.90629" lon="-0.06889">
        <ele>1910.31</ele>
        <time>2017-12-05T11:07:44Z</time>
      </trkpt>
      <trkpt lat="42.90629" lon="-0.06895">
        <ele>1912.1</ele>
        <time>2017-12-05T11:07:53Z</time>
      </trkpt>
      <trkpt lat="42.90631" lon="-0.06902">
        <ele>1912.71</ele>
        <time>2017-12-05T11:08:00Z</time>
      </trkpt>
      <trkpt lat="42.90635" lon="-0.06905">
        <ele>1913.09</ele>
        <time>2017-12-05T11:08:09Z</time>
      </trkpt>
      <trkpt lat="42.90638" lon="-0.0691">
        <ele>1913.36</ele>
        <time>2017-12-05T11:08:16Z</time>
      </trkpt>
      <trkpt lat="42.90641" lon="-0.06916">
        <ele>1914.86</ele>
        <time>2017-12-05T11:08:26Z</time>
      </trkpt>
      <trkpt lat="42.9064" lon="-0.06923">
        <ele>1917.87</ele>
        <time>2017-12-05T11:08:35Z</time>
      </trkpt>
      <trkpt lat="42.90639" lon="-0.06929">
        <ele>1919.64</ele>
        <time>2017-12-05T11:08:42Z</time>
      </trkpt>
      <trkpt lat="42.90639" lon="-0.06936">
        <ele>1920.97</ele>
        <time>2017-12-05T11:08:48Z</time>
      </trkpt>
      <trkpt lat="42.90638" lon="-0.06942">
        <ele>1924.19</ele>
        <time>2017-12-05T11:09:02Z</time>
      </trkpt>
      <trkpt lat="42.90638" lon="-0.0695">
        <ele>1926.13</ele>
        <time>2017-12-05T11:09:10Z</time>
      </trkpt>
      <trkpt lat="42.90636" lon="-0.06956">
        <ele>1928.1</ele>
        <time>2017-12-05T11:09:19Z</time>
      </trkpt>
      <trkpt lat="42.90638" lon="-0.06963">
        <ele>1930.17</ele>
        <time>2017-12-05T11:09:34Z</time>
      </trkpt>
      <trkpt lat="42.9064" lon="-0.0697">
        <ele>1931.91</ele>
        <time>2017-12-05T11:09:42Z</time>
      </trkpt>
      <trkpt lat="42.9064" lon="-0.06977">
        <ele>1933.39</ele>
        <time>2017-12-05T11:09:50Z</time>
      </trkpt>
      <trkpt lat="42.90642" lon="-0.06982">
        <ele>1934.53</ele>
        <time>2017-12-05T11:09:57Z</time>
      </trkpt>
      <trkpt lat="42.90647" lon="-0.06983">
        <ele>1935.92</ele>
        <time>2017-12-05T11:10:04Z</time>
      </trkpt>
      <trkpt lat="42.90651" lon="-0.06986">
        <ele>1937.81</ele>
        <time>2017-12-05T11:10:14Z</time>
      </trkpt>
      <trkpt lat="42.90651" lon="-0.06993">
        <ele>1938.6</ele>
        <time>2017-12-05T11:10:22Z</time>
      </trkpt>
      <trkpt lat="42.9065" lon="-0.06999">
        <ele>1939.87</ele>
        <time>2017-12-05T11:10:31Z</time>
      </trkpt>
      <trkpt lat="42.9065" lon="-0.07006">
        <ele>1941.75</ele>
        <time>2017-12-05T11:10:41Z</time>
      </trkpt>
      <trkpt lat="42.9065" lon="-0.07014">
        <ele>1943.54</ele>
        <time>2017-12-05T11:10:48Z</time>
      </trkpt>
      <trkpt lat="42.90652" lon="-0.0702">
        <ele>1945.73</ele>
        <time>2017-12-05T11:11:01Z</time>
      </trkpt>
      <trkpt lat="42.90653" lon="-0.07026">
        <ele>1947.15</ele>
        <time>2017-12-05T11:11:10Z</time>
      </trkpt>
      <trkpt lat="42.90652" lon="-0.07032">
        <ele>1947.89</ele>
        <time>2017-12-05T11:11:14Z</time>
      </trkpt>
      <trkpt lat="42.90654" lon="-0.07038">
        <ele>1949.61</ele>
        <time>2017-12-05T11:11:24Z</time>
      </trkpt>
      <trkpt lat="42.90658" lon="-0.07043">
        <ele>1950.48</ele>
        <time>2017-12-05T11:11:34Z</time>
      </trkpt>
      <trkpt lat="42.90662" lon="-0.07045">
        <ele>1951.42</ele>
        <time>2017-12-05T11:11:41Z</time>
      </trkpt>
      <trkpt lat="42.90664" lon="-0.07052">
        <ele>1952.86</ele>
        <time>2017-12-05T11:11:49Z</time>
      </trkpt>
      <trkpt lat="42.90663" lon="-0.07059">
        <ele>1954.51</ele>
        <time>2017-12-05T11:11:56Z</time>
      </trkpt>
      <trkpt lat="42.90661" lon="-0.07065">
        <ele>1957.07</ele>
        <time>2017-12-05T11:12:05Z</time>
      </trkpt>
      <trkpt lat="42.90661" lon="-0.07072">
        <ele>1959.27</ele>
        <time>2017-12-05T11:12:13Z</time>
      </trkpt>
      <trkpt lat="42.90665" lon="-0.07076">
        <ele>1961.14</ele>
        <time>2017-12-05T11:12:26Z</time>
      </trkpt>
      <trkpt lat="42.90669" lon="-0.07077">
        <ele>1961.97</ele>
        <time>2017-12-05T11:12:30Z</time>
      </trkpt>
      <trkpt lat="42.90674" lon="-0.07079">
        <ele>1963.25</ele>
        <time>2017-12-05T11:12:35Z</time>
      </trkpt>
      <trkpt lat="42.90673" lon="-0.07085">
        <ele>1966.33</ele>
        <time>2017-12-05T11:12:48Z</time>
      </trkpt>
      <trkpt lat="42.90671" lon="-0.07092">
        <ele>1967.69</ele>
        <time>2017-12-05T11:12:57Z</time>
      </trkpt>
      <trkpt lat="42.9067" lon="-0.07098">
        <ele>1968.52</ele>
        <time>2017-12-05T11:13:05Z</time>
      </trkpt>
      <trkpt lat="42.90674" lon="-0.07103">
        <ele>1969.7</ele>
        <time>2017-12-05T11:13:17Z</time>
      </trkpt>
      <trkpt lat="42.90678" lon="-0.07107">
        <ele>1971.79</ele>
        <time>2017-12-05T11:13:25Z</time>
      </trkpt>
      <trkpt lat="42.90679" lon="-0.07114">
        <ele>1974.46</ele>
        <time>2017-12-05T11:13:36Z</time>
      </trkpt>
      <trkpt lat="42.90678" lon="-0.0712">
        <ele>1975.43</ele>
        <time>2017-12-05T11:13:40Z</time>
      </trkpt>
      <trkpt lat="42.90676" lon="-0.07127">
        <ele>1977.57</ele>
        <time>2017-12-05T11:13:52Z</time>
      </trkpt>
      <trkpt lat="42.90675" lon="-0.07134">
        <ele>1978.65</ele>
        <time>2017-12-05T11:14:01Z</time>
      </trkpt>
      <trkpt lat="42.90675" lon="-0.07141">
        <ele>1979.56</ele>
        <time>2017-12-05T11:14:14Z</time>
      </trkpt>
      <trkpt lat="42.90673" lon="-0.07147">
        <ele>1980.97</ele>
        <time>2017-12-05T11:14:36Z</time>
      </trkpt>
      <trkpt lat="42.90672" lon="-0.07153">
        <ele>1983.37</ele>
        <time>2017-12-05T11:14:47Z</time>
      </trkpt>
      <trkpt lat="42.9067" lon="-0.07159">
        <ele>1983.93</ele>
        <time>2017-12-05T11:14:51Z</time>
      </trkpt>
      <trkpt lat="42.90668" lon="-0.07166">
        <ele>1986.42</ele>
        <time>2017-12-05T11:15:38Z</time>
      </trkpt>
      <trkpt lat="42.90667" lon="-0.07174">
        <ele>1986.98</ele>
        <time>2017-12-05T11:15:44Z</time>
      </trkpt>
      <trkpt lat="42.90666" lon="-0.07181">
        <ele>1987.62</ele>
        <time>2017-12-05T11:15:49Z</time>
      </trkpt>
      <trkpt lat="42.90664" lon="-0.07188">
        <ele>1988.41</ele>
        <time>2017-12-05T11:15:53Z</time>
      </trkpt>
      <trkpt lat="42.90662" lon="-0.07194">
        <ele>1990.41</ele>
        <time>2017-12-05T11:16:01Z</time>
      </trkpt>
      <trkpt lat="42.9066" lon="-0.072">
        <ele>1991.98</ele>
        <time>2017-12-05T11:16:08Z</time>
      </trkpt>
      <trkpt lat="42.90657" lon="-0.07205">
        <ele>1992.98</ele>
        <time>2017-12-05T11:16:13Z</time>
      </trkpt>
      <trkpt lat="42.90655" lon="-0.0721">
        <ele>1994.3</ele>
        <time>2017-12-05T11:16:21Z</time>
      </trkpt>
      <trkpt lat="42.90653" lon="-0.07217">
        <ele>1994.98</ele>
        <time>2017-12-05T11:16:26Z</time>
      </trkpt>
      <trkpt lat="42.90651" lon="-0.07223">
        <ele>1995.36</ele>
        <time>2017-12-05T11:16:30Z</time>
      </trkpt>
      <trkpt lat="42.90649" lon="-0.07229">
        <ele>1995.94</ele>
        <time>2017-12-05T11:16:36Z</time>
      </trkpt>
      <trkpt lat="42.90647" lon="-0.07236">
        <ele>1996.56</ele>
        <time>2017-12-05T11:16:42Z</time>
      </trkpt>
      <trkpt lat="42.90644" lon="-0.0724">
        <ele>1997.1</ele>
        <time>2017-12-05T11:16:50Z</time>
      </trkpt>
      <trkpt lat="42.90642" lon="-0.07246">
        <ele>1997.4</ele>
        <time>2017-12-05T11:16:55Z</time>
      </trkpt>
      <trkpt lat="42.90641" lon="-0.07253">
        <ele>1997.67</ele>
        <time>2017-12-05T11:17:00Z</time>
      </trkpt>
      <trkpt lat="42.90638" lon="-0.07259">
        <ele>1997.91</ele>
        <time>2017-12-05T11:17:04Z</time>
      </trkpt>
      <trkpt lat="42.90636" lon="-0.07266">
        <ele>1998.51</ele>
        <time>2017-12-05T11:17:10Z</time>
      </trkpt>
      <trkpt lat="42.90633" lon="-0.07272">
        <ele>1999.13</ele>
        <time>2017-12-05T11:17:15Z</time>
      </trkpt>
      <trkpt lat="42.90631" lon="-0.07278">
        <ele>2000.12</ele>
        <time>2017-12-05T11:17:23Z</time>
      </trkpt>
      <trkpt lat="42.9063" lon="-0.07284">
        <ele>2000.7</ele>
        <time>2017-12-05T11:17:29Z</time>
      </trkpt>
      <trkpt lat="42.90629" lon="-0.07291">
        <ele>2001.07</ele>
        <time>2017-12-05T11:17:33Z</time>
      </trkpt>
      <trkpt lat="42.90627" lon="-0.07297">
        <ele>2001.88</ele>
        <time>2017-12-05T11:17:42Z</time>
      </trkpt>
      <trkpt lat="42.90623" lon="-0.07302">
        <ele>2002.15</ele>
        <time>2017-12-05T11:17:46Z</time>
      </trkpt>
      <trkpt lat="42.90621" lon="-0.07307">
        <ele>2002.64</ele>
        <time>2017-12-05T11:17:52Z</time>
      </trkpt>
      <trkpt lat="42.90618" lon="-0.07313">
        <ele>2003.17</ele>
        <time>2017-12-05T11:17:59Z</time>
      </trkpt>
      <trkpt lat="42.90616" lon="-0.07319">
        <ele>2003.72</ele>
        <time>2017-12-05T11:18:06Z</time>
      </trkpt>
      <trkpt lat="42.90613" lon="-0.07323">
        <ele>2004.05</ele>
        <time>2017-12-05T11:18:10Z</time>
      </trkpt>
      <trkpt lat="42.90609" lon="-0.07326">
        <ele>2004.88</ele>
        <time>2017-12-05T11:18:19Z</time>
      </trkpt>
      <trkpt lat="42.90605" lon="-0.0733">
        <ele>2005.36</ele>
        <time>2017-12-05T11:18:25Z</time>
      </trkpt>
      <trkpt lat="42.906" lon="-0.0733">
        <ele>2005.97</ele>
        <time>2017-12-05T11:18:33Z</time>
      </trkpt>
      <trkpt lat="42.90596" lon="-0.07333">
        <ele>2006.35</ele>
        <time>2017-12-05T11:18:39Z</time>
      </trkpt>
      <trkpt lat="42.90591" lon="-0.07337">
        <ele>2006.85</ele>
        <time>2017-12-05T11:18:46Z</time>
      </trkpt>
      <trkpt lat="42.90586" lon="-0.07339">
        <ele>2007.88</ele>
        <time>2017-12-05T11:18:54Z</time>
      </trkpt>
      <trkpt lat="42.9058" lon="-0.0734">
        <ele>2008.97</ele>
        <time>2017-12-05T11:19:01Z</time>
      </trkpt>
      <trkpt lat="42.90575" lon="-0.07341">
        <ele>2009.69</ele>
        <time>2017-12-05T11:19:07Z</time>
      </trkpt>
      <trkpt lat="42.90571" lon="-0.07342">
        <ele>2010.35</ele>
        <time>2017-12-05T11:19:14Z</time>
      </trkpt>
      <trkpt lat="42.90566" lon="-0.07344">
        <ele>2011.2</ele>
        <time>2017-12-05T11:19:24Z</time>
      </trkpt>
      <trkpt lat="42.90561" lon="-0.07346">
        <ele>2011.91</ele>
        <time>2017-12-05T11:19:32Z</time>
      </trkpt>
      <trkpt lat="42.90557" lon="-0.07348">
        <ele>2012.63</ele>
        <time>2017-12-05T11:19:40Z</time>
      </trkpt>
      <trkpt lat="42.90552" lon="-0.07351">
        <ele>2013.3</ele>
        <time>2017-12-05T11:19:46Z</time>
      </trkpt>
      <trkpt lat="42.90547" lon="-0.07353">
        <ele>2013.84</ele>
        <time>2017-12-05T11:19:51Z</time>
      </trkpt>
      <trkpt lat="42.90543" lon="-0.07355">
        <ele>2014.47</ele>
        <time>2017-12-05T11:20:00Z</time>
      </trkpt>
      <trkpt lat="42.90538" lon="-0.07356">
        <ele>2015.11</ele>
        <time>2017-12-05T11:20:06Z</time>
      </trkpt>
      <trkpt lat="42.90534" lon="-0.07358">
        <ele>2016.26</ele>
        <time>2017-12-05T11:20:14Z</time>
      </trkpt>
      <trkpt lat="42.90529" lon="-0.0736">
        <ele>2017.46</ele>
        <time>2017-12-05T11:20:22Z</time>
      </trkpt>
      <trkpt lat="42.90524" lon="-0.07362">
        <ele>2018.17</ele>
        <time>2017-12-05T11:20:28Z</time>
      </trkpt>
      <trkpt lat="42.90519" lon="-0.07364">
        <ele>2018.85</ele>
        <time>2017-12-05T11:20:34Z</time>
      </trkpt>
      <trkpt lat="42.90514" lon="-0.07366">
        <ele>2019.62</ele>
        <time>2017-12-05T11:20:42Z</time>
      </trkpt>
      <trkpt lat="42.9051" lon="-0.07368">
        <ele>2020.14</ele>
        <time>2017-12-05T11:20:48Z</time>
      </trkpt>
      <trkpt lat="42.90506" lon="-0.07372">
        <ele>2020.74</ele>
        <time>2017-12-05T11:20:55Z</time>
      </trkpt>
      <trkpt lat="42.90503" lon="-0.07376">
        <ele>2021.39</ele>
        <time>2017-12-05T11:21:01Z</time>
      </trkpt>
      <trkpt lat="42.905" lon="-0.07381">
        <ele>2022.18</ele>
        <time>2017-12-05T11:21:09Z</time>
      </trkpt>
      <trkpt lat="42.90497" lon="-0.07386">
        <ele>2022.88</ele>
        <time>2017-12-05T11:21:16Z</time>
      </trkpt>
      <trkpt lat="42.90494" lon="-0.07392">
        <ele>2023.91</ele>
        <time>2017-12-05T11:21:25Z</time>
      </trkpt>
      <trkpt lat="42.90494" lon="-0.07399">
        <ele>2024.66</ele>
        <time>2017-12-05T11:21:33Z</time>
      </trkpt>
      <trkpt lat="42.90494" lon="-0.07405">
        <ele>2025.28</ele>
        <time>2017-12-05T11:21:39Z</time>
      </trkpt>
      <trkpt lat="42.9049" lon="-0.07411">
        <ele>2025.96</ele>
        <time>2017-12-05T11:21:46Z</time>
      </trkpt>
      <trkpt lat="42.90486" lon="-0.0741">
        <ele>2026.58</ele>
        <time>2017-12-05T11:21:58Z</time>
      </trkpt>
      <trkpt lat="42.90481" lon="-0.07409">
        <ele>2027.19</ele>
        <time>2017-12-05T11:22:03Z</time>
      </trkpt>
      <trkpt lat="42.90477" lon="-0.07407">
        <ele>2027.97</ele>
        <time>2017-12-05T11:22:09Z</time>
      </trkpt>
      <trkpt lat="42.90472" lon="-0.07406">
        <ele>2029.21</ele>
        <time>2017-12-05T11:22:17Z</time>
      </trkpt>
      <trkpt lat="42.90467" lon="-0.07405">
        <ele>2030.18</ele>
        <time>2017-12-05T11:22:24Z</time>
      </trkpt>
      <trkpt lat="42.90462" lon="-0.07404">
        <ele>2031.13</ele>
        <time>2017-12-05T11:22:31Z</time>
      </trkpt>
      <trkpt lat="42.90457" lon="-0.07403">
        <ele>2031.84</ele>
        <time>2017-12-05T11:22:36Z</time>
      </trkpt>
      <trkpt lat="42.90452" lon="-0.07401">
        <ele>2032.47</ele>
        <time>2017-12-05T11:22:40Z</time>
      </trkpt>
      <trkpt lat="42.90447" lon="-0.07397">
        <ele>2033.3</ele>
        <time>2017-12-05T11:22:45Z</time>
      </trkpt>
      <trkpt lat="42.90443" lon="-0.07394">
        <ele>2034.45</ele>
        <time>2017-12-05T11:22:51Z</time>
      </trkpt>
      <trkpt lat="42.90437" lon="-0.0739">
        <ele>2035.67</ele>
        <time>2017-12-05T11:22:57Z</time>
      </trkpt>
      <trkpt lat="42.90433" lon="-0.07386">
        <ele>2037.21</ele>
        <time>2017-12-05T11:23:05Z</time>
      </trkpt>
      <trkpt lat="42.90429" lon="-0.07382">
        <ele>2038.21</ele>
        <time>2017-12-05T11:23:12Z</time>
      </trkpt>
      <trkpt lat="42.90426" lon="-0.07378">
        <ele>2038.73</ele>
        <time>2017-12-05T11:23:16Z</time>
      </trkpt>
      <trkpt lat="42.90422" lon="-0.07375">
        <ele>2039.5</ele>
        <time>2017-12-05T11:23:22Z</time>
      </trkpt>
      <trkpt lat="42.90417" lon="-0.07374">
        <ele>2040.03</ele>
        <time>2017-12-05T11:23:28Z</time>
      </trkpt>
      <trkpt lat="42.90412" lon="-0.0737">
        <ele>2040.51</ele>
        <time>2017-12-05T11:23:37Z</time>
      </trkpt>
      <trkpt lat="42.90407" lon="-0.07369">
        <ele>2040.77</ele>
        <time>2017-12-05T11:23:43Z</time>
      </trkpt>
      <trkpt lat="42.90402" lon="-0.07368">
        <ele>2041.02</ele>
        <time>2017-12-05T11:23:48Z</time>
      </trkpt>
      <trkpt lat="42.90398" lon="-0.07367">
        <ele>2041.74</ele>
        <time>2017-12-05T11:23:58Z</time>
      </trkpt>
      <trkpt lat="42.90393" lon="-0.07364">
        <ele>2042.19</ele>
        <time>2017-12-05T11:24:05Z</time>
      </trkpt>
      <trkpt lat="42.9039" lon="-0.07361">
        <ele>2042.79</ele>
        <time>2017-12-05T11:24:12Z</time>
      </trkpt>
      <trkpt lat="42.90385" lon="-0.07358">
        <ele>2043.54</ele>
        <time>2017-12-05T11:24:18Z</time>
      </trkpt>
      <trkpt lat="42.90381" lon="-0.07357">
        <ele>2044.27</ele>
        <time>2017-12-05T11:24:25Z</time>
      </trkpt>
      <trkpt lat="42.90376" lon="-0.07354">
        <ele>2044.78</ele>
        <time>2017-12-05T11:24:30Z</time>
      </trkpt>
      <trkpt lat="42.90371" lon="-0.07353">
        <ele>2046.03</ele>
        <time>2017-12-05T11:24:40Z</time>
      </trkpt>
      <trkpt lat="42.90366" lon="-0.07352">
        <ele>2046.62</ele>
        <time>2017-12-05T11:24:45Z</time>
      </trkpt>
      <trkpt lat="42.90361" lon="-0.07354">
        <ele>2048.96</ele>
        <time>2017-12-05T11:26:27Z</time>
      </trkpt>
      <trkpt lat="42.90366" lon="-0.07352">
        <ele>2053.52</ele>
        <time>2017-12-05T11:38:59Z</time>
      </trkpt>
      <trkpt lat="42.9036" lon="-0.07354">
        <ele>2053.46</ele>
        <time>2017-12-05T11:40:08Z</time>
      </trkpt>
      <trkpt lat="42.90356" lon="-0.07357">
        <ele>2053.47</ele>
        <time>2017-12-05T11:40:11Z</time>
      </trkpt>
      <trkpt lat="42.90362" lon="-0.07356">
        <ele>2053.75</ele>
        <time>2017-12-05T11:40:35Z</time>
      </trkpt>
      <trkpt lat="42.90363" lon="-0.0735">
        <ele>2054.46</ele>
        <time>2017-12-05T11:46:56Z</time>
      </trkpt>
      <trkpt lat="42.90359" lon="-0.07346">
        <ele>2054.53</ele>
        <time>2017-12-05T11:47:02Z</time>
      </trkpt>
      <trkpt lat="42.90361" lon="-0.07352">
        <ele>2055.13</ele>
        <time>2017-12-05T11:49:11Z</time>
      </trkpt>
      <trkpt lat="42.90365" lon="-0.07351">
        <ele>2055.01</ele>
        <time>2017-12-05T12:00:31Z</time>
      </trkpt>
      <trkpt lat="42.9037" lon="-0.07355">
        <ele>2055.07</ele>
        <time>2017-12-05T12:01:21Z</time>
      </trkpt>
      <trkpt lat="42.90365" lon="-0.07352">
        <ele>2054.82</ele>
        <time>2017-12-05T12:02:15Z</time>
      </trkpt>
      <trkpt lat="42.90369" lon="-0.07346">
        <ele>2054</ele>
        <time>2017-12-05T12:05:54Z</time>
      </trkpt>
      <trkpt lat="42.90376" lon="-0.07346">
        <ele>2052.21</ele>
        <time>2017-12-05T12:05:56Z</time>
      </trkpt>
      <trkpt lat="42.90381" lon="-0.07348">
        <ele>2050.43</ele>
        <time>2017-12-05T12:05:57Z</time>
      </trkpt>
      <trkpt lat="42.90386" lon="-0.0735">
        <ele>2048.76</ele>
        <time>2017-12-05T12:05:58Z</time>
      </trkpt>
      <trkpt lat="42.90392" lon="-0.07342">
        <ele>2047.75</ele>
        <time>2017-12-05T12:06:00Z</time>
      </trkpt>
      <trkpt lat="42.904" lon="-0.07336">
        <ele>2044.54</ele>
        <time>2017-12-05T12:06:02Z</time>
      </trkpt>
      <trkpt lat="42.90402" lon="-0.07328">
        <ele>2039.98</ele>
        <time>2017-12-05T12:06:04Z</time>
      </trkpt>
      <trkpt lat="42.90409" lon="-0.07317">
        <ele>2033.86</ele>
        <time>2017-12-05T12:06:06Z</time>
      </trkpt>
      <trkpt lat="42.90411" lon="-0.07311">
        <ele>2030.86</ele>
        <time>2017-12-05T12:06:07Z</time>
      </trkpt>
      <trkpt lat="42.90415" lon="-0.07308">
        <ele>2029.85</ele>
        <time>2017-12-05T12:06:08Z</time>
      </trkpt>
      <trkpt lat="42.90418" lon="-0.07303">
        <ele>2028.31</ele>
        <time>2017-12-05T12:06:09Z</time>
      </trkpt>
      <trkpt lat="42.90422" lon="-0.07298">
        <ele>2026.69</ele>
        <time>2017-12-05T12:06:10Z</time>
      </trkpt>
      <trkpt lat="42.90426" lon="-0.07292">
        <ele>2026.11</ele>
        <time>2017-12-05T12:06:11Z</time>
      </trkpt>
      <trkpt lat="42.90424" lon="-0.07282">
        <ele>2024.59</ele>
        <time>2017-12-05T12:06:13Z</time>
      </trkpt>
      <trkpt lat="42.90424" lon="-0.07272">
        <ele>2022.37</ele>
        <time>2017-12-05T12:06:15Z</time>
      </trkpt>
      <trkpt lat="42.90427" lon="-0.07263">
        <ele>2020.44</ele>
        <time>2017-12-05T12:06:17Z</time>
      </trkpt>
      <trkpt lat="42.9043" lon="-0.07258">
        <ele>2020.14</ele>
        <time>2017-12-05T12:06:18Z</time>
      </trkpt>
      <trkpt lat="42.90434" lon="-0.07247">
        <ele>2016.38</ele>
        <time>2017-12-05T12:06:20Z</time>
      </trkpt>
      <trkpt lat="42.90436" lon="-0.0724">
        <ele>2014.16</ele>
        <time>2017-12-05T12:06:21Z</time>
      </trkpt>
      <trkpt lat="42.90438" lon="-0.07231">
        <ele>2011.92</ele>
        <time>2017-12-05T12:06:22Z</time>
      </trkpt>
      <trkpt lat="42.9044" lon="-0.07225">
        <ele>2009.74</ele>
        <time>2017-12-05T12:06:23Z</time>
      </trkpt>
      <trkpt lat="42.90442" lon="-0.07216">
        <ele>2005.52</ele>
        <time>2017-12-05T12:06:25Z</time>
      </trkpt>
      <trkpt lat="42.90442" lon="-0.07204">
        <ele>2001.24</ele>
        <time>2017-12-05T12:06:27Z</time>
      </trkpt>
      <trkpt lat="42.90444" lon="-0.07193">
        <ele>1996.82</ele>
        <time>2017-12-05T12:06:29Z</time>
      </trkpt>
      <trkpt lat="42.90446" lon="-0.07185">
        <ele>1994.68</ele>
        <time>2017-12-05T12:06:30Z</time>
      </trkpt>
      <trkpt lat="42.90447" lon="-0.07178">
        <ele>1992.84</ele>
        <time>2017-12-05T12:06:31Z</time>
      </trkpt>
      <trkpt lat="42.90449" lon="-0.07168">
        <ele>1991.24</ele>
        <time>2017-12-05T12:06:32Z</time>
      </trkpt>
      <trkpt lat="42.9045" lon="-0.07161">
        <ele>1989.56</ele>
        <time>2017-12-05T12:06:33Z</time>
      </trkpt>
      <trkpt lat="42.90451" lon="-0.07155">
        <ele>1987.8</ele>
        <time>2017-12-05T12:06:34Z</time>
      </trkpt>
      <trkpt lat="42.90451" lon="-0.07149">
        <ele>1985.99</ele>
        <time>2017-12-05T12:06:35Z</time>
      </trkpt>
      <trkpt lat="42.90452" lon="-0.07142">
        <ele>1984.18</ele>
        <time>2017-12-05T12:06:36Z</time>
      </trkpt>
      <trkpt lat="42.90455" lon="-0.07132">
        <ele>1980.6</ele>
        <time>2017-12-05T12:06:38Z</time>
      </trkpt>
      <trkpt lat="42.90456" lon="-0.07126">
        <ele>1978.61</ele>
        <time>2017-12-05T12:06:39Z</time>
      </trkpt>
      <trkpt lat="42.90458" lon="-0.07119">
        <ele>1976.91</ele>
        <time>2017-12-05T12:06:40Z</time>
      </trkpt>
      <trkpt lat="42.90458" lon="-0.07112">
        <ele>1975.01</ele>
        <time>2017-12-05T12:06:41Z</time>
      </trkpt>
      <trkpt lat="42.90459" lon="-0.07105">
        <ele>1973.17</ele>
        <time>2017-12-05T12:06:42Z</time>
      </trkpt>
      <trkpt lat="42.9046" lon="-0.07099">
        <ele>1971.63</ele>
        <time>2017-12-05T12:06:43Z</time>
      </trkpt>
      <trkpt lat="42.90463" lon="-0.0709">
        <ele>1970.05</ele>
        <time>2017-12-05T12:06:44Z</time>
      </trkpt>
      <trkpt lat="42.90464" lon="-0.07083">
        <ele>1968.38</ele>
        <time>2017-12-05T12:06:45Z</time>
      </trkpt>
      <trkpt lat="42.90466" lon="-0.07075">
        <ele>1966.73</ele>
        <time>2017-12-05T12:06:46Z</time>
      </trkpt>
      <trkpt lat="42.90466" lon="-0.07068">
        <ele>1964.91</ele>
        <time>2017-12-05T12:06:47Z</time>
      </trkpt>
      <trkpt lat="42.90467" lon="-0.07058">
        <ele>1962.85</ele>
        <time>2017-12-05T12:06:48Z</time>
      </trkpt>
      <trkpt lat="42.90467" lon="-0.07051">
        <ele>1960.59</ele>
        <time>2017-12-05T12:06:49Z</time>
      </trkpt>
      <trkpt lat="42.90467" lon="-0.07042">
        <ele>1958.18</ele>
        <time>2017-12-05T12:06:50Z</time>
      </trkpt>
      <trkpt lat="42.90468" lon="-0.07036">
        <ele>1955.86</ele>
        <time>2017-12-05T12:06:51Z</time>
      </trkpt>
      <trkpt lat="42.90472" lon="-0.07028">
        <ele>1953.49</ele>
        <time>2017-12-05T12:06:52Z</time>
      </trkpt>
      <trkpt lat="42.90471" lon="-0.07019">
        <ele>1951.14</ele>
        <time>2017-12-05T12:06:53Z</time>
      </trkpt>
      <trkpt lat="42.90468" lon="-0.07011">
        <ele>1948.82</ele>
        <time>2017-12-05T12:06:54Z</time>
      </trkpt>
      <trkpt lat="42.90464" lon="-0.07005">
        <ele>1946.42</ele>
        <time>2017-12-05T12:06:55Z</time>
      </trkpt>
      <trkpt lat="42.9046" lon="-0.06998">
        <ele>1944.09</ele>
        <time>2017-12-05T12:06:56Z</time>
      </trkpt>
      <trkpt lat="42.90457" lon="-0.06992">
        <ele>1942.12</ele>
        <time>2017-12-05T12:06:57Z</time>
      </trkpt>
      <trkpt lat="42.90453" lon="-0.06985">
        <ele>1940.07</ele>
        <time>2017-12-05T12:06:58Z</time>
      </trkpt>
      <trkpt lat="42.90449" lon="-0.06977">
        <ele>1938.19</ele>
        <time>2017-12-05T12:06:59Z</time>
      </trkpt>
      <trkpt lat="42.90446" lon="-0.06969">
        <ele>1936.33</ele>
        <time>2017-12-05T12:07:00Z</time>
      </trkpt>
      <trkpt lat="42.90446" lon="-0.06961">
        <ele>1934.63</ele>
        <time>2017-12-05T12:07:01Z</time>
      </trkpt>
      <trkpt lat="42.90446" lon="-0.06953">
        <ele>1932.89</ele>
        <time>2017-12-05T12:07:02Z</time>
      </trkpt>
      <trkpt lat="42.90447" lon="-0.06944">
        <ele>1930.96</ele>
        <time>2017-12-05T12:07:03Z</time>
      </trkpt>
      <trkpt lat="42.90447" lon="-0.06937">
        <ele>1928.85</ele>
        <time>2017-12-05T12:07:04Z</time>
      </trkpt>
      <trkpt lat="42.90448" lon="-0.06931">
        <ele>1926.6</ele>
        <time>2017-12-05T12:07:05Z</time>
      </trkpt>
      <trkpt lat="42.90448" lon="-0.06924">
        <ele>1924.38</ele>
        <time>2017-12-05T12:07:06Z</time>
      </trkpt>
      <trkpt lat="42.90448" lon="-0.06918">
        <ele>1922.06</ele>
        <time>2017-12-05T12:07:07Z</time>
      </trkpt>
      <trkpt lat="42.9045" lon="-0.06911">
        <ele>1920.29</ele>
        <time>2017-12-05T12:07:08Z</time>
      </trkpt>
      <trkpt lat="42.90449" lon="-0.06905">
        <ele>1918.8</ele>
        <time>2017-12-05T12:07:09Z</time>
      </trkpt>
      <trkpt lat="42.90451" lon="-0.06899">
        <ele>1917.35</ele>
        <time>2017-12-05T12:07:10Z</time>
      </trkpt>
      <trkpt lat="42.90455" lon="-0.06888">
        <ele>1913.8</ele>
        <time>2017-12-05T12:07:12Z</time>
      </trkpt>
      <trkpt lat="42.90454" lon="-0.0688">
        <ele>1912.2</ele>
        <time>2017-12-05T12:07:13Z</time>
      </trkpt>
      <trkpt lat="42.9045" lon="-0.06875">
        <ele>1910.7</ele>
        <time>2017-12-05T12:07:14Z</time>
      </trkpt>
      <trkpt lat="42.90445" lon="-0.06868">
        <ele>1909.17</ele>
        <time>2017-12-05T12:07:15Z</time>
      </trkpt>
      <trkpt lat="42.90442" lon="-0.06862">
        <ele>1907.46</ele>
        <time>2017-12-05T12:07:16Z</time>
      </trkpt>
      <trkpt lat="42.90437" lon="-0.06854">
        <ele>1905.76</ele>
        <time>2017-12-05T12:07:17Z</time>
      </trkpt>
      <trkpt lat="42.90433" lon="-0.06846">
        <ele>1903.98</ele>
        <time>2017-12-05T12:07:18Z</time>
      </trkpt>
      <trkpt lat="42.90428" lon="-0.06836">
        <ele>1902.07</ele>
        <time>2017-12-05T12:07:19Z</time>
      </trkpt>
      <trkpt lat="42.90425" lon="-0.06828">
        <ele>1900.05</ele>
        <time>2017-12-05T12:07:20Z</time>
      </trkpt>
      <trkpt lat="42.90424" lon="-0.06821">
        <ele>1897.74</ele>
        <time>2017-12-05T12:07:21Z</time>
      </trkpt>
      <trkpt lat="42.90427" lon="-0.06816">
        <ele>1895.5</ele>
        <time>2017-12-05T12:07:22Z</time>
      </trkpt>
      <trkpt lat="42.90434" lon="-0.06812">
        <ele>1893.77</ele>
        <time>2017-12-05T12:07:23Z</time>
      </trkpt>
      <trkpt lat="42.90442" lon="-0.06809">
        <ele>1892.27</ele>
        <time>2017-12-05T12:07:24Z</time>
      </trkpt>
      <trkpt lat="42.90449" lon="-0.06806">
        <ele>1890.64</ele>
        <time>2017-12-05T12:07:25Z</time>
      </trkpt>
      <trkpt lat="42.90453" lon="-0.068">
        <ele>1888.82</ele>
        <time>2017-12-05T12:07:26Z</time>
      </trkpt>
      <trkpt lat="42.90454" lon="-0.06793">
        <ele>1887.23</ele>
        <time>2017-12-05T12:07:27Z</time>
      </trkpt>
      <trkpt lat="42.90451" lon="-0.06788">
        <ele>1885.65</ele>
        <time>2017-12-05T12:07:28Z</time>
      </trkpt>
      <trkpt lat="42.90446" lon="-0.06783">
        <ele>1884.31</ele>
        <time>2017-12-05T12:07:29Z</time>
      </trkpt>
      <trkpt lat="42.90442" lon="-0.06778">
        <ele>1882.96</ele>
        <time>2017-12-05T12:07:30Z</time>
      </trkpt>
      <trkpt lat="42.90439" lon="-0.06773">
        <ele>1881.55</ele>
        <time>2017-12-05T12:07:31Z</time>
      </trkpt>
      <trkpt lat="42.90436" lon="-0.06767">
        <ele>1880.42</ele>
        <time>2017-12-05T12:07:32Z</time>
      </trkpt>
      <trkpt lat="42.90434" lon="-0.0676">
        <ele>1879.22</ele>
        <time>2017-12-05T12:07:33Z</time>
      </trkpt>
      <trkpt lat="42.90435" lon="-0.06753">
        <ele>1877.96</ele>
        <time>2017-12-05T12:07:34Z</time>
      </trkpt>
      <trkpt lat="42.90435" lon="-0.06746">
        <ele>1876.63</ele>
        <time>2017-12-05T12:07:35Z</time>
      </trkpt>
      <trkpt lat="42.90437" lon="-0.06739">
        <ele>1875.63</ele>
        <time>2017-12-05T12:07:36Z</time>
      </trkpt>
      <trkpt lat="42.90441" lon="-0.06735">
        <ele>1875.25</ele>
        <time>2017-12-05T12:07:37Z</time>
      </trkpt>
      <trkpt lat="42.90447" lon="-0.06739">
        <ele>1871.64</ele>
        <time>2017-12-05T12:08:28Z</time>
      </trkpt>
      <trkpt lat="42.90452" lon="-0.06736">
        <ele>1863.37</ele>
        <time>2017-12-05T12:10:23Z</time>
      </trkpt>
      <trkpt lat="42.90453" lon="-0.06741">
        <ele>1858.31</ele>
        <time>2017-12-05T12:13:27Z</time>
      </trkpt>
      <trkpt lat="42.90454" lon="-0.06736">
        <ele>1856.18</ele>
        <time>2017-12-05T12:14:24Z</time>
      </trkpt>
      <trkpt lat="42.90453" lon="-0.06742">
        <ele>1855.67</ele>
        <time>2017-12-05T12:15:28Z</time>
      </trkpt>
      <trkpt lat="42.90449" lon="-0.06739">
        <ele>1855.16</ele>
        <time>2017-12-05T12:15:46Z</time>
      </trkpt>
      <trkpt lat="42.90448" lon="-0.06746">
        <ele>1855.09</ele>
        <time>2017-12-05T12:15:54Z</time>
      </trkpt>
      <trkpt lat="42.90447" lon="-0.06752">
        <ele>1855.01</ele>
        <time>2017-12-05T12:17:12Z</time>
      </trkpt>
      <trkpt lat="42.90452" lon="-0.06754">
        <ele>1854.7</ele>
        <time>2017-12-05T12:17:20Z</time>
      </trkpt>
      <trkpt lat="42.90456" lon="-0.06757">
        <ele>1854.21</ele>
        <time>2017-12-05T12:17:26Z</time>
      </trkpt>
      <trkpt lat="42.90458" lon="-0.06763">
        <ele>1853.63</ele>
        <time>2017-12-05T12:17:32Z</time>
      </trkpt>
      <trkpt lat="42.90463" lon="-0.06767">
        <ele>1853.31</ele>
        <time>2017-12-05T12:17:36Z</time>
      </trkpt>
      <trkpt lat="42.90466" lon="-0.06773">
        <ele>1853.02</ele>
        <time>2017-12-05T12:17:48Z</time>
      </trkpt>
      <trkpt lat="42.9047" lon="-0.06779">
        <ele>1853.43</ele>
        <time>2017-12-05T12:17:55Z</time>
      </trkpt>
      <trkpt lat="42.90465" lon="-0.0678">
        <ele>1854.51</ele>
        <time>2017-12-05T12:18:12Z</time>
      </trkpt>
      <trkpt lat="42.90461" lon="-0.06782">
        <ele>1854.89</ele>
        <time>2017-12-05T12:18:17Z</time>
      </trkpt>
      <trkpt lat="42.90457" lon="-0.06786">
        <ele>1855.48</ele>
        <time>2017-12-05T12:18:24Z</time>
      </trkpt>
      <trkpt lat="42.90456" lon="-0.06793">
        <ele>1856.05</ele>
        <time>2017-12-05T12:18:29Z</time>
      </trkpt>
      <trkpt lat="42.9046" lon="-0.06798">
        <ele>1857.63</ele>
        <time>2017-12-05T12:18:41Z</time>
      </trkpt>
      <trkpt lat="42.90464" lon="-0.06802">
        <ele>1858.42</ele>
        <time>2017-12-05T12:18:49Z</time>
      </trkpt>
      <trkpt lat="42.90464" lon="-0.06809">
        <ele>1860.5</ele>
        <time>2017-12-05T12:19:30Z</time>
      </trkpt>
      <trkpt lat="42.90459" lon="-0.06811">
        <ele>1861.43</ele>
        <time>2017-12-05T12:19:39Z</time>
      </trkpt>
      <trkpt lat="42.90454" lon="-0.06814">
        <ele>1862.94</ele>
        <time>2017-12-05T12:19:49Z</time>
      </trkpt>
      <trkpt lat="42.90449" lon="-0.06817">
        <ele>1863.91</ele>
        <time>2017-12-05T12:19:57Z</time>
      </trkpt>
      <trkpt lat="42.90445" lon="-0.06819">
        <ele>1864.94</ele>
        <time>2017-12-05T12:20:05Z</time>
      </trkpt>
      <trkpt lat="42.9044" lon="-0.06822">
        <ele>1866.23</ele>
        <time>2017-12-05T12:20:13Z</time>
      </trkpt>
      <trkpt lat="42.90438" lon="-0.06827">
        <ele>1867.56</ele>
        <time>2017-12-05T12:20:19Z</time>
      </trkpt>
      <trkpt lat="42.90434" lon="-0.06831">
        <ele>1868.94</ele>
        <time>2017-12-05T12:20:26Z</time>
      </trkpt>
      <trkpt lat="42.9043" lon="-0.06835">
        <ele>1870.56</ele>
        <time>2017-12-05T12:20:36Z</time>
      </trkpt>
      <trkpt lat="42.90425" lon="-0.06836">
        <ele>1871.62</ele>
        <time>2017-12-05T12:20:41Z</time>
      </trkpt>
      <trkpt lat="42.9042" lon="-0.06836">
        <ele>1873.44</ele>
        <time>2017-12-05T12:20:50Z</time>
      </trkpt>
      <trkpt lat="42.90416" lon="-0.06837">
        <ele>1874.8</ele>
        <time>2017-12-05T12:20:56Z</time>
      </trkpt>
      <trkpt lat="42.90418" lon="-0.06843">
        <ele>1875.82</ele>
        <time>2017-12-05T12:21:06Z</time>
      </trkpt>
      <trkpt lat="42.90418" lon="-0.06852">
        <ele>1875.84</ele>
        <time>2017-12-05T12:21:07Z</time>
      </trkpt>
      <trkpt lat="42.90418" lon="-0.0686">
        <ele>1875.88</ele>
        <time>2017-12-05T12:21:20Z</time>
      </trkpt>
      <trkpt lat="42.90419" lon="-0.06867">
        <ele>1874.83</ele>
        <time>2017-12-05T12:21:30Z</time>
      </trkpt>
      <trkpt lat="42.90423" lon="-0.0687">
        <ele>1874.09</ele>
        <time>2017-12-05T12:21:37Z</time>
      </trkpt>
      <trkpt lat="42.90428" lon="-0.06873">
        <ele>1873.75</ele>
        <time>2017-12-05T12:21:42Z</time>
      </trkpt>
      <trkpt lat="42.90433" lon="-0.06877">
        <ele>1873.59</ele>
        <time>2017-12-05T12:21:49Z</time>
      </trkpt>
      <trkpt lat="42.90438" lon="-0.06879">
        <ele>1873.66</ele>
        <time>2017-12-05T12:21:54Z</time>
      </trkpt>
      <trkpt lat="42.90444" lon="-0.06882">
        <ele>1874.27</ele>
        <time>2017-12-05T12:22:00Z</time>
      </trkpt>
      <trkpt lat="42.90447" lon="-0.06888">
        <ele>1875.66</ele>
        <time>2017-12-05T12:22:07Z</time>
      </trkpt>
      <trkpt lat="42.90451" lon="-0.06893">
        <ele>1876.42</ele>
        <time>2017-12-05T12:22:22Z</time>
      </trkpt>
      <trkpt lat="42.90453" lon="-0.06901">
        <ele>1877.31</ele>
        <time>2017-12-05T12:22:29Z</time>
      </trkpt>
      <trkpt lat="42.90452" lon="-0.06908">
        <ele>1878.77</ele>
        <time>2017-12-05T12:22:47Z</time>
      </trkpt>
      <trkpt lat="42.90454" lon="-0.06913">
        <ele>1878.76</ele>
        <time>2017-12-05T12:22:54Z</time>
      </trkpt>
      <trkpt lat="42.90459" lon="-0.06916">
        <ele>1878.77</ele>
        <time>2017-12-05T12:23:00Z</time>
      </trkpt>
      <trkpt lat="42.90461" lon="-0.06921">
        <ele>1879.18</ele>
        <time>2017-12-05T12:23:05Z</time>
      </trkpt>
      <trkpt lat="42.90456" lon="-0.06922">
        <ele>1885.44</ele>
        <time>2017-12-05T12:23:26Z</time>
      </trkpt>
      <trkpt lat="42.90451" lon="-0.06924">
        <ele>1887.57</ele>
        <time>2017-12-05T12:23:32Z</time>
      </trkpt>
      <trkpt lat="42.90446" lon="-0.06924">
        <ele>1890.93</ele>
        <time>2017-12-05T12:23:40Z</time>
      </trkpt>
      <trkpt lat="42.90441" lon="-0.06924">
        <ele>1894.53</ele>
        <time>2017-12-05T12:23:49Z</time>
      </trkpt>
      <trkpt lat="42.90436" lon="-0.06927">
        <ele>1897.73</ele>
        <time>2017-12-05T12:23:59Z</time>
      </trkpt>
      <trkpt lat="42.90432" lon="-0.0693">
        <ele>1898.44</ele>
        <time>2017-12-05T12:24:02Z</time>
      </trkpt>
      <trkpt lat="42.90427" lon="-0.0693">
        <ele>1900.16</ele>
        <time>2017-12-05T12:24:09Z</time>
      </trkpt>
      <trkpt lat="42.90427" lon="-0.06936">
        <ele>1901.32</ele>
        <time>2017-12-05T12:24:15Z</time>
      </trkpt>
      <trkpt lat="42.9043" lon="-0.06942">
        <ele>1901.6</ele>
        <time>2017-12-05T12:24:22Z</time>
      </trkpt>
      <trkpt lat="42.90435" lon="-0.06948">
        <ele>1900.67</ele>
        <time>2017-12-05T12:24:32Z</time>
      </trkpt>
      <trkpt lat="42.90435" lon="-0.06956">
        <ele>1900.31</ele>
        <time>2017-12-05T12:24:34Z</time>
      </trkpt>
      <trkpt lat="42.90436" lon="-0.06962">
        <ele>1898.26</ele>
        <time>2017-12-05T12:24:44Z</time>
      </trkpt>
      <trkpt lat="42.90433" lon="-0.06967">
        <ele>1894.04</ele>
        <time>2017-12-05T12:24:57Z</time>
      </trkpt>
      <trkpt lat="42.90428" lon="-0.06969">
        <ele>1892.05</ele>
        <time>2017-12-05T12:25:02Z</time>
      </trkpt>
      <trkpt lat="42.90424" lon="-0.06973">
        <ele>1890.48</ele>
        <time>2017-12-05T12:25:06Z</time>
      </trkpt>
      <trkpt lat="42.90419" lon="-0.06979">
        <ele>1888.08</ele>
        <time>2017-12-05T12:25:12Z</time>
      </trkpt>
      <trkpt lat="42.90417" lon="-0.06984">
        <ele>1884.47</ele>
        <time>2017-12-05T12:25:18Z</time>
      </trkpt>
      <trkpt lat="42.90421" lon="-0.06989">
        <ele>1879.79</ele>
        <time>2017-12-05T12:25:27Z</time>
      </trkpt>
      <trkpt lat="42.90424" lon="-0.06994">
        <ele>1877.94</ele>
        <time>2017-12-05T12:25:32Z</time>
      </trkpt>
      <trkpt lat="42.9043" lon="-0.06999">
        <ele>1875.99</ele>
        <time>2017-12-05T12:25:39Z</time>
      </trkpt>
      <trkpt lat="42.90433" lon="-0.07005">
        <ele>1875.07</ele>
        <time>2017-12-05T12:25:43Z</time>
      </trkpt>
      <trkpt lat="42.90437" lon="-0.0701">
        <ele>1874.37</ele>
        <time>2017-12-05T12:25:48Z</time>
      </trkpt>
      <trkpt lat="42.90441" lon="-0.07015">
        <ele>1873.89</ele>
        <time>2017-12-05T12:25:54Z</time>
      </trkpt>
      <trkpt lat="42.90445" lon="-0.07019">
        <ele>1874.01</ele>
        <time>2017-12-05T12:26:00Z</time>
      </trkpt>
      <trkpt lat="42.90449" lon="-0.07022">
        <ele>1874.46</ele>
        <time>2017-12-05T12:26:06Z</time>
      </trkpt>
      <trkpt lat="42.90454" lon="-0.07025">
        <ele>1875.05</ele>
        <time>2017-12-05T12:26:10Z</time>
      </trkpt>
      <trkpt lat="42.90458" lon="-0.0703">
        <ele>1875.66</ele>
        <time>2017-12-05T12:26:13Z</time>
      </trkpt>
      <trkpt lat="42.90462" lon="-0.07034">
        <ele>1876.74</ele>
        <time>2017-12-05T12:26:17Z</time>
      </trkpt>
      <trkpt lat="42.90468" lon="-0.07034">
        <ele>1879.46</ele>
        <time>2017-12-05T12:26:30Z</time>
      </trkpt>
      <trkpt lat="42.90473" lon="-0.07031">
        <ele>1880.82</ele>
        <time>2017-12-05T12:26:36Z</time>
      </trkpt>
      <trkpt lat="42.9047" lon="-0.07026">
        <ele>1884.14</ele>
        <time>2017-12-05T12:26:52Z</time>
      </trkpt>
      <trkpt lat="42.90465" lon="-0.07028">
        <ele>1889.69</ele>
        <time>2017-12-05T12:27:03Z</time>
      </trkpt>
      <trkpt lat="42.9046" lon="-0.07029">
        <ele>1892.96</ele>
        <time>2017-12-05T12:27:09Z</time>
      </trkpt>
      <trkpt lat="42.90455" lon="-0.07029">
        <ele>1895.89</ele>
        <time>2017-12-05T12:27:15Z</time>
      </trkpt>
      <trkpt lat="42.90451" lon="-0.07028">
        <ele>1898.55</ele>
        <time>2017-12-05T12:27:21Z</time>
      </trkpt>
      <trkpt lat="42.90446" lon="-0.07027">
        <ele>1900.98</ele>
        <time>2017-12-05T12:27:27Z</time>
      </trkpt>
      <trkpt lat="42.90441" lon="-0.07026">
        <ele>1903.18</ele>
        <time>2017-12-05T12:27:33Z</time>
      </trkpt>
      <trkpt lat="42.90437" lon="-0.07027">
        <ele>1904.88</ele>
        <time>2017-12-05T12:27:43Z</time>
      </trkpt>
      <trkpt lat="42.90441" lon="-0.0703">
        <ele>1908.08</ele>
        <time>2017-12-05T12:27:57Z</time>
      </trkpt>
      <trkpt lat="42.90443" lon="-0.07037">
        <ele>1909.31</ele>
        <time>2017-12-05T12:28:01Z</time>
      </trkpt>
      <trkpt lat="42.90444" lon="-0.07045">
        <ele>1910.14</ele>
        <time>2017-12-05T12:28:04Z</time>
      </trkpt>
      <trkpt lat="42.90445" lon="-0.07052">
        <ele>1911.17</ele>
        <time>2017-12-05T12:28:08Z</time>
      </trkpt>
      <trkpt lat="42.90447" lon="-0.07058">
        <ele>1912.49</ele>
        <time>2017-12-05T12:28:13Z</time>
      </trkpt>
      <trkpt lat="42.90449" lon="-0.07064">
        <ele>1913.47</ele>
        <time>2017-12-05T12:28:17Z</time>
      </trkpt>
      <trkpt lat="42.90451" lon="-0.0707">
        <ele>1915.48</ele>
        <time>2017-12-05T12:28:27Z</time>
      </trkpt>
      <trkpt lat="42.90455" lon="-0.07074">
        <ele>1917.1</ele>
        <time>2017-12-05T12:28:33Z</time>
      </trkpt>
      <trkpt lat="42.9045" lon="-0.07073">
        <ele>1923.06</ele>
        <time>2017-12-05T12:29:01Z</time>
      </trkpt>
      <trkpt lat="42.90446" lon="-0.0707">
        <ele>1925.01</ele>
        <time>2017-12-05T12:29:10Z</time>
      </trkpt>
      <trkpt lat="42.90441" lon="-0.07068">
        <ele>1926.26</ele>
        <time>2017-12-05T12:29:16Z</time>
      </trkpt>
      <trkpt lat="42.90436" lon="-0.07066">
        <ele>1927.14</ele>
        <time>2017-12-05T12:29:20Z</time>
      </trkpt>
      <trkpt lat="42.90431" lon="-0.07062">
        <ele>1928.64</ele>
        <time>2017-12-05T12:29:25Z</time>
      </trkpt>
      <trkpt lat="42.90426" lon="-0.0706">
        <ele>1930.8</ele>
        <time>2017-12-05T12:29:31Z</time>
      </trkpt>
      <trkpt lat="42.90422" lon="-0.07058">
        <ele>1932.3</ele>
        <time>2017-12-05T12:29:35Z</time>
      </trkpt>
      <trkpt lat="42.90417" lon="-0.07055">
        <ele>1934.17</ele>
        <time>2017-12-05T12:29:40Z</time>
      </trkpt>
      <trkpt lat="42.90413" lon="-0.07053">
        <ele>1937.08</ele>
        <time>2017-12-05T12:29:49Z</time>
      </trkpt>
      <trkpt lat="42.90408" lon="-0.07051">
        <ele>1938.81</ele>
        <time>2017-12-05T12:29:55Z</time>
      </trkpt>
      <trkpt lat="42.90403" lon="-0.07051">
        <ele>1940.51</ele>
        <time>2017-12-05T12:30:01Z</time>
      </trkpt>
      <trkpt lat="42.90402" lon="-0.07058">
        <ele>1941.33</ele>
        <time>2017-12-05T12:30:05Z</time>
      </trkpt>
      <trkpt lat="42.90402" lon="-0.07065">
        <ele>1941.63</ele>
        <time>2017-12-05T12:30:08Z</time>
      </trkpt>
      <trkpt lat="42.90402" lon="-0.07072">
        <ele>1941.81</ele>
        <time>2017-12-05T12:30:16Z</time>
      </trkpt>
      <trkpt lat="42.90407" lon="-0.07077">
        <ele>1941.93</ele>
        <time>2017-12-05T12:30:21Z</time>
      </trkpt>
      <trkpt lat="42.90411" lon="-0.0708">
        <ele>1942.26</ele>
        <time>2017-12-05T12:30:26Z</time>
      </trkpt>
      <trkpt lat="42.90411" lon="-0.07086">
        <ele>1942.63</ele>
        <time>2017-12-05T12:30:32Z</time>
      </trkpt>
      <trkpt lat="42.90413" lon="-0.07095">
        <ele>1942.81</ele>
        <time>2017-12-05T12:30:39Z</time>
      </trkpt>
      <trkpt lat="42.90415" lon="-0.07101">
        <ele>1942.79</ele>
        <time>2017-12-05T12:30:48Z</time>
      </trkpt>
      <trkpt lat="42.90414" lon="-0.07107">
        <ele>1942.63</ele>
        <time>2017-12-05T12:30:55Z</time>
      </trkpt>
      <trkpt lat="42.90416" lon="-0.07114">
        <ele>1942.33</ele>
        <time>2017-12-05T12:31:04Z</time>
      </trkpt>
      <trkpt lat="42.90421" lon="-0.07116">
        <ele>1942.3</ele>
        <time>2017-12-05T12:31:06Z</time>
      </trkpt>
      <trkpt lat="42.90426" lon="-0.07115">
        <ele>1942.69</ele>
        <time>2017-12-05T12:31:09Z</time>
      </trkpt>
      <trkpt lat="42.90421" lon="-0.07114">
        <ele>1947.26</ele>
        <time>2017-12-05T12:31:26Z</time>
      </trkpt>
      <trkpt lat="42.90416" lon="-0.07113">
        <ele>1949.35</ele>
        <time>2017-12-05T12:31:34Z</time>
      </trkpt>
      <trkpt lat="42.90411" lon="-0.07111">
        <ele>1951.22</ele>
        <time>2017-12-05T12:31:41Z</time>
      </trkpt>
      <trkpt lat="42.90407" lon="-0.07109">
        <ele>1952.98</ele>
        <time>2017-12-05T12:31:47Z</time>
      </trkpt>
      <trkpt lat="42.90402" lon="-0.07107">
        <ele>1954.77</ele>
        <time>2017-12-05T12:31:54Z</time>
      </trkpt>
      <trkpt lat="42.90397" lon="-0.07105">
        <ele>1956.36</ele>
        <time>2017-12-05T12:32:01Z</time>
      </trkpt>
      <trkpt lat="42.90394" lon="-0.07111">
        <ele>1958.02</ele>
        <time>2017-12-05T12:32:08Z</time>
      </trkpt>
      <trkpt lat="42.90395" lon="-0.07117">
        <ele>1958.99</ele>
        <time>2017-12-05T12:32:12Z</time>
      </trkpt>
      <trkpt lat="42.90396" lon="-0.07124">
        <ele>1960.92</ele>
        <time>2017-12-05T12:32:19Z</time>
      </trkpt>
      <trkpt lat="42.90399" lon="-0.0713">
        <ele>1961.54</ele>
        <time>2017-12-05T12:32:23Z</time>
      </trkpt>
      <trkpt lat="42.90401" lon="-0.07136">
        <ele>1962.48</ele>
        <time>2017-12-05T12:32:31Z</time>
      </trkpt>
      <trkpt lat="42.90401" lon="-0.07142">
        <ele>1963.12</ele>
        <time>2017-12-05T12:32:40Z</time>
      </trkpt>
      <trkpt lat="42.90403" lon="-0.07148">
        <ele>1963.36</ele>
        <time>2017-12-05T12:32:46Z</time>
      </trkpt>
      <trkpt lat="42.90407" lon="-0.07153">
        <ele>1963.79</ele>
        <time>2017-12-05T12:32:54Z</time>
      </trkpt>
      <trkpt lat="42.90407" lon="-0.0716">
        <ele>1964.27</ele>
        <time>2017-12-05T12:33:00Z</time>
      </trkpt>
      <trkpt lat="42.90402" lon="-0.07156">
        <ele>1966.06</ele>
        <time>2017-12-05T12:33:12Z</time>
      </trkpt>
      <trkpt lat="42.90397" lon="-0.07153">
        <ele>1967.25</ele>
        <time>2017-12-05T12:33:18Z</time>
      </trkpt>
      <trkpt lat="42.90393" lon="-0.0715">
        <ele>1968.78</ele>
        <time>2017-12-05T12:33:25Z</time>
      </trkpt>
      <trkpt lat="42.90389" lon="-0.07147">
        <ele>1969.6</ele>
        <time>2017-12-05T12:33:29Z</time>
      </trkpt>
      <trkpt lat="42.90385" lon="-0.07143">
        <ele>1971.07</ele>
        <time>2017-12-05T12:33:41Z</time>
      </trkpt>
      <trkpt lat="42.90382" lon="-0.07138">
        <ele>1972.37</ele>
        <time>2017-12-05T12:33:47Z</time>
      </trkpt>
      <trkpt lat="42.90377" lon="-0.07136">
        <ele>1974.13</ele>
        <time>2017-12-05T12:33:54Z</time>
      </trkpt>
      <trkpt lat="42.90372" lon="-0.07133">
        <ele>1974.99</ele>
        <time>2017-12-05T12:33:58Z</time>
      </trkpt>
      <trkpt lat="42.90368" lon="-0.07131">
        <ele>1976.9</ele>
        <time>2017-12-05T12:34:07Z</time>
      </trkpt>
      <trkpt lat="42.90363" lon="-0.07129">
        <ele>1978.14</ele>
        <time>2017-12-05T12:34:13Z</time>
      </trkpt>
      <trkpt lat="42.90358" lon="-0.07128">
        <ele>1979.46</ele>
        <time>2017-12-05T12:34:20Z</time>
      </trkpt>
      <trkpt lat="42.90353" lon="-0.07126">
        <ele>1980.72</ele>
        <time>2017-12-05T12:34:27Z</time>
      </trkpt>
      <trkpt lat="42.90348" lon="-0.07122">
        <ele>1982.04</ele>
        <time>2017-12-05T12:34:35Z</time>
      </trkpt>
      <trkpt lat="42.90344" lon="-0.07119">
        <ele>1983.55</ele>
        <time>2017-12-05T12:34:45Z</time>
      </trkpt>
      <trkpt lat="42.90339" lon="-0.0712">
        <ele>1984.61</ele>
        <time>2017-12-05T12:34:53Z</time>
      </trkpt>
      <trkpt lat="42.90338" lon="-0.07127">
        <ele>1985.65</ele>
        <time>2017-12-05T12:35:04Z</time>
      </trkpt>
      <trkpt lat="42.90336" lon="-0.07138">
        <ele>1985.78</ele>
        <time>2017-12-05T12:35:11Z</time>
      </trkpt>
      <trkpt lat="42.90337" lon="-0.07144">
        <ele>1985.97</ele>
        <time>2017-12-05T12:35:19Z</time>
      </trkpt>
      <trkpt lat="42.90336" lon="-0.07151">
        <ele>1985.69</ele>
        <time>2017-12-05T12:35:28Z</time>
      </trkpt>
      <trkpt lat="42.90337" lon="-0.07157">
        <ele>1985.53</ele>
        <time>2017-12-05T12:35:33Z</time>
      </trkpt>
      <trkpt lat="42.9034" lon="-0.07163">
        <ele>1985.67</ele>
        <time>2017-12-05T12:35:41Z</time>
      </trkpt>
      <trkpt lat="42.90342" lon="-0.07169">
        <ele>1985.74</ele>
        <time>2017-12-05T12:35:50Z</time>
      </trkpt>
      <trkpt lat="42.90346" lon="-0.07174">
        <ele>1986.16</ele>
        <time>2017-12-05T12:35:55Z</time>
      </trkpt>
      <trkpt lat="42.90342" lon="-0.07168">
        <ele>1988.5</ele>
        <time>2017-12-05T12:36:07Z</time>
      </trkpt>
      <trkpt lat="42.90338" lon="-0.07165">
        <ele>1989.85</ele>
        <time>2017-12-05T12:36:13Z</time>
      </trkpt>
      <trkpt lat="42.90335" lon="-0.0716">
        <ele>1991.3</ele>
        <time>2017-12-05T12:36:19Z</time>
      </trkpt>
      <trkpt lat="42.9033" lon="-0.07157">
        <ele>1992.24</ele>
        <time>2017-12-05T12:36:23Z</time>
      </trkpt>
      <trkpt lat="42.90326" lon="-0.07155">
        <ele>1994.48</ele>
        <time>2017-12-05T12:36:33Z</time>
      </trkpt>
      <trkpt lat="42.90321" lon="-0.07151">
        <ele>1995.76</ele>
        <time>2017-12-05T12:36:40Z</time>
      </trkpt>
      <trkpt lat="42.90317" lon="-0.07148">
        <ele>1996.77</ele>
        <time>2017-12-05T12:36:45Z</time>
      </trkpt>
      <trkpt lat="42.90313" lon="-0.07145">
        <ele>1997.87</ele>
        <time>2017-12-05T12:36:50Z</time>
      </trkpt>
      <trkpt lat="42.90309" lon="-0.0714">
        <ele>2000.24</ele>
        <time>2017-12-05T12:37:01Z</time>
      </trkpt>
      <trkpt lat="42.90305" lon="-0.07137">
        <ele>2001.6</ele>
        <time>2017-12-05T12:37:08Z</time>
      </trkpt>
      <trkpt lat="42.903" lon="-0.07132">
        <ele>2002.91</ele>
        <time>2017-12-05T12:37:16Z</time>
      </trkpt>
      <trkpt lat="42.90296" lon="-0.07131">
        <ele>2004.03</ele>
        <time>2017-12-05T12:37:30Z</time>
      </trkpt>
      <trkpt lat="42.90291" lon="-0.07128">
        <ele>2004.83</ele>
        <time>2017-12-05T12:37:36Z</time>
      </trkpt>
      <trkpt lat="42.90287" lon="-0.07125">
        <ele>2005.83</ele>
        <time>2017-12-05T12:37:43Z</time>
      </trkpt>
      <trkpt lat="42.90283" lon="-0.07121">
        <ele>2006.58</ele>
        <time>2017-12-05T12:37:49Z</time>
      </trkpt>
      <trkpt lat="42.90279" lon="-0.0712">
        <ele>2007.46</ele>
        <time>2017-12-05T12:37:56Z</time>
      </trkpt>
      <trkpt lat="42.90274" lon="-0.07117">
        <ele>2008.69</ele>
        <time>2017-12-05T12:38:04Z</time>
      </trkpt>
      <trkpt lat="42.9027" lon="-0.07115">
        <ele>2009.56</ele>
        <time>2017-12-05T12:38:09Z</time>
      </trkpt>
      <trkpt lat="42.90265" lon="-0.07113">
        <ele>2010.43</ele>
        <time>2017-12-05T12:38:15Z</time>
      </trkpt>
      <trkpt lat="42.90261" lon="-0.07114">
        <ele>2011.25</ele>
        <time>2017-12-05T12:38:20Z</time>
      </trkpt>
      <trkpt lat="42.90256" lon="-0.07112">
        <ele>2011.95</ele>
        <time>2017-12-05T12:38:25Z</time>
      </trkpt>
      <trkpt lat="42.90252" lon="-0.07109">
        <ele>2012.75</ele>
        <time>2017-12-05T12:38:31Z</time>
      </trkpt>
      <trkpt lat="42.90247" lon="-0.07108">
        <ele>2013.61</ele>
        <time>2017-12-05T12:38:37Z</time>
      </trkpt>
      <trkpt lat="42.90242" lon="-0.07107">
        <ele>2014.65</ele>
        <time>2017-12-05T12:38:43Z</time>
      </trkpt>
      <trkpt lat="42.90237" lon="-0.07106">
        <ele>2016.02</ele>
        <time>2017-12-05T12:38:51Z</time>
      </trkpt>
      <trkpt lat="42.90231" lon="-0.07105">
        <ele>2016.82</ele>
        <time>2017-12-05T12:38:57Z</time>
      </trkpt>
      <trkpt lat="42.90227" lon="-0.07104">
        <ele>2017.54</ele>
        <time>2017-12-05T12:39:03Z</time>
      </trkpt>
      <trkpt lat="42.90222" lon="-0.07107">
        <ele>2018.47</ele>
        <time>2017-12-05T12:39:11Z</time>
      </trkpt>
      <trkpt lat="42.90219" lon="-0.07113">
        <ele>2019.04</ele>
        <time>2017-12-05T12:39:16Z</time>
      </trkpt>
      <trkpt lat="42.90222" lon="-0.07118">
        <ele>2020.15</ele>
        <time>2017-12-05T12:39:25Z</time>
      </trkpt>
      <trkpt lat="42.90224" lon="-0.07125">
        <ele>2020.76</ele>
        <time>2017-12-05T12:39:32Z</time>
      </trkpt>
      <trkpt lat="42.90222" lon="-0.07132">
        <ele>2021.01</ele>
        <time>2017-12-05T12:39:39Z</time>
      </trkpt>
      <trkpt lat="42.90225" lon="-0.07139">
        <ele>2021.11</ele>
        <time>2017-12-05T12:39:43Z</time>
      </trkpt>
      <trkpt lat="42.90228" lon="-0.07144">
        <ele>2021.57</ele>
        <time>2017-12-05T12:39:50Z</time>
      </trkpt>
      <trkpt lat="42.90231" lon="-0.0715">
        <ele>2020.99</ele>
        <time>2017-12-05T12:40:00Z</time>
      </trkpt>
      <trkpt lat="42.90225" lon="-0.0715">
        <ele>2025.53</ele>
        <time>2017-12-05T12:40:23Z</time>
      </trkpt>
      <trkpt lat="42.90221" lon="-0.07154">
        <ele>2026.77</ele>
        <time>2017-12-05T12:40:29Z</time>
      </trkpt>
      <trkpt lat="42.90216" lon="-0.07155">
        <ele>2028.56</ele>
        <time>2017-12-05T12:40:42Z</time>
      </trkpt>
      <trkpt lat="42.90212" lon="-0.07159">
        <ele>2029.72</ele>
        <time>2017-12-05T12:40:48Z</time>
      </trkpt>
      <trkpt lat="42.90208" lon="-0.07163">
        <ele>2031.14</ele>
        <time>2017-12-05T12:40:56Z</time>
      </trkpt>
      <trkpt lat="42.90206" lon="-0.0717">
        <ele>2032.25</ele>
        <time>2017-12-05T12:41:02Z</time>
      </trkpt>
      <trkpt lat="42.90208" lon="-0.07176">
        <ele>2033.78</ele>
        <time>2017-12-05T12:41:09Z</time>
      </trkpt>
      <trkpt lat="42.90212" lon="-0.0718">
        <ele>2034.93</ele>
        <time>2017-12-05T12:41:14Z</time>
      </trkpt>
      <trkpt lat="42.90215" lon="-0.07186">
        <ele>2036.17</ele>
        <time>2017-12-05T12:41:19Z</time>
      </trkpt>
      <trkpt lat="42.90211" lon="-0.07183">
        <ele>2038.2</ele>
        <time>2017-12-05T12:42:21Z</time>
      </trkpt>
      <trkpt lat="42.90212" lon="-0.07189">
        <ele>2038.28</ele>
        <time>2017-12-05T12:42:35Z</time>
      </trkpt>
      <trkpt lat="42.90213" lon="-0.07183">
        <ele>2040.79</ele>
        <time>2017-12-05T12:43:55Z</time>
      </trkpt>
      <trkpt lat="42.90217" lon="-0.07179">
        <ele>2047.17</ele>
        <time>2017-12-05T13:00:30Z</time>
      </trkpt>
      <trkpt lat="42.90221" lon="-0.07175">
        <ele>2048.2</ele>
        <time>2017-12-05T13:00:32Z</time>
      </trkpt>
      <trkpt lat="42.90226" lon="-0.07172">
        <ele>2048.81</ele>
        <time>2017-12-05T13:00:33Z</time>
      </trkpt>
      <trkpt lat="42.90232" lon="-0.07168">
        <ele>2048.93</ele>
        <time>2017-12-05T13:00:34Z</time>
      </trkpt>
      <trkpt lat="42.90239" lon="-0.07166">
        <ele>2048.76</ele>
        <time>2017-12-05T13:00:35Z</time>
      </trkpt>
      <trkpt lat="42.90246" lon="-0.07165">
        <ele>2048.26</ele>
        <time>2017-12-05T13:00:36Z</time>
      </trkpt>
      <trkpt lat="42.90252" lon="-0.07161">
        <ele>2047.45</ele>
        <time>2017-12-05T13:00:37Z</time>
      </trkpt>
      <trkpt lat="42.90259" lon="-0.07153">
        <ele>2045.57</ele>
        <time>2017-12-05T13:00:39Z</time>
      </trkpt>
      <trkpt lat="42.90264" lon="-0.07144">
        <ele>2043.51</ele>
        <time>2017-12-05T13:00:41Z</time>
      </trkpt>
      <trkpt lat="42.90268" lon="-0.07143">
        <ele>2041.92</ele>
        <time>2017-12-05T13:00:43Z</time>
      </trkpt>
      <trkpt lat="42.90274" lon="-0.07134">
        <ele>2039.9</ele>
        <time>2017-12-05T13:00:46Z</time>
      </trkpt>
      <trkpt lat="42.90272" lon="-0.07122">
        <ele>2037.86</ele>
        <time>2017-12-05T13:00:48Z</time>
      </trkpt>
      <trkpt lat="42.90274" lon="-0.07114">
        <ele>2037.2</ele>
        <time>2017-12-05T13:00:50Z</time>
      </trkpt>
      <trkpt lat="42.90274" lon="-0.07107">
        <ele>2031.45</ele>
        <time>2017-12-05T13:00:52Z</time>
      </trkpt>
      <trkpt lat="42.9028" lon="-0.07097">
        <ele>2025.52</ele>
        <time>2017-12-05T13:00:54Z</time>
      </trkpt>
      <trkpt lat="42.90281" lon="-0.07088">
        <ele>2022.82</ele>
        <time>2017-12-05T13:00:55Z</time>
      </trkpt>
      <trkpt lat="42.9028" lon="-0.07079">
        <ele>2020.16</ele>
        <time>2017-12-05T13:00:56Z</time>
      </trkpt>
      <trkpt lat="42.90282" lon="-0.07073">
        <ele>2017.61</ele>
        <time>2017-12-05T13:00:57Z</time>
      </trkpt>
      <trkpt lat="42.90286" lon="-0.07068">
        <ele>2015.07</ele>
        <time>2017-12-05T13:00:58Z</time>
      </trkpt>
      <trkpt lat="42.9029" lon="-0.07063">
        <ele>2013.66</ele>
        <time>2017-12-05T13:01:00Z</time>
      </trkpt>
      <trkpt lat="42.90287" lon="-0.07057">
        <ele>2013.3</ele>
        <time>2017-12-05T13:01:01Z</time>
      </trkpt>
      <trkpt lat="42.90286" lon="-0.07049">
        <ele>2012.96</ele>
        <time>2017-12-05T13:01:02Z</time>
      </trkpt>
      <trkpt lat="42.90289" lon="-0.07037">
        <ele>2009.76</ele>
        <time>2017-12-05T13:01:04Z</time>
      </trkpt>
      <trkpt lat="42.90291" lon="-0.07025">
        <ele>2006.44</ele>
        <time>2017-12-05T13:01:05Z</time>
      </trkpt>
      <trkpt lat="42.90291" lon="-0.07017">
        <ele>2003.35</ele>
        <time>2017-12-05T13:01:06Z</time>
      </trkpt>
      <trkpt lat="42.90293" lon="-0.0701">
        <ele>2000.41</ele>
        <time>2017-12-05T13:01:07Z</time>
      </trkpt>
      <trkpt lat="42.90294" lon="-0.07002">
        <ele>1997.63</ele>
        <time>2017-12-05T13:01:08Z</time>
      </trkpt>
      <trkpt lat="42.90294" lon="-0.0699">
        <ele>1995.13</ele>
        <time>2017-12-05T13:01:09Z</time>
      </trkpt>
      <trkpt lat="42.90293" lon="-0.06982">
        <ele>1992.74</ele>
        <time>2017-12-05T13:01:10Z</time>
      </trkpt>
      <trkpt lat="42.90296" lon="-0.06976">
        <ele>1989.61</ele>
        <time>2017-12-05T13:01:12Z</time>
      </trkpt>
      <trkpt lat="42.90303" lon="-0.06968">
        <ele>1984.35</ele>
        <time>2017-12-05T13:01:14Z</time>
      </trkpt>
      <trkpt lat="42.90305" lon="-0.06961">
        <ele>1982.19</ele>
        <time>2017-12-05T13:01:15Z</time>
      </trkpt>
      <trkpt lat="42.9031" lon="-0.0695">
        <ele>1978.88</ele>
        <time>2017-12-05T13:01:17Z</time>
      </trkpt>
      <trkpt lat="42.90311" lon="-0.06943">
        <ele>1977.14</ele>
        <time>2017-12-05T13:01:18Z</time>
      </trkpt>
      <trkpt lat="42.9031" lon="-0.06933">
        <ele>1974.92</ele>
        <time>2017-12-05T13:01:20Z</time>
      </trkpt>
      <trkpt lat="42.90309" lon="-0.06927">
        <ele>1974.05</ele>
        <time>2017-12-05T13:01:24Z</time>
      </trkpt>
      <trkpt lat="42.90307" lon="-0.0692">
        <ele>1971.09</ele>
        <time>2017-12-05T13:01:37Z</time>
      </trkpt>
      <trkpt lat="42.90305" lon="-0.0691">
        <ele>1967.86</ele>
        <time>2017-12-05T13:01:39Z</time>
      </trkpt>
      <trkpt lat="42.90308" lon="-0.06904">
        <ele>1967.08</ele>
        <time>2017-12-05T13:01:41Z</time>
      </trkpt>
      <trkpt lat="42.90309" lon="-0.06896">
        <ele>1966.44</ele>
        <time>2017-12-05T13:01:43Z</time>
      </trkpt>
      <trkpt lat="42.90315" lon="-0.06889">
        <ele>1960.93</ele>
        <time>2017-12-05T13:01:45Z</time>
      </trkpt>
      <trkpt lat="42.90318" lon="-0.06884">
        <ele>1959.91</ele>
        <time>2017-12-05T13:01:46Z</time>
      </trkpt>
      <trkpt lat="42.90318" lon="-0.06875">
        <ele>1959.1</ele>
        <time>2017-12-05T13:01:48Z</time>
      </trkpt>
      <trkpt lat="42.9032" lon="-0.06865">
        <ele>1956.88</ele>
        <time>2017-12-05T13:01:50Z</time>
      </trkpt>
      <trkpt lat="42.90327" lon="-0.06859">
        <ele>1953.98</ele>
        <time>2017-12-05T13:01:52Z</time>
      </trkpt>
      <trkpt lat="42.90332" lon="-0.0685">
        <ele>1950</ele>
        <time>2017-12-05T13:01:54Z</time>
      </trkpt>
      <trkpt lat="42.90339" lon="-0.06842">
        <ele>1947.22</ele>
        <time>2017-12-05T13:01:56Z</time>
      </trkpt>
      <trkpt lat="42.90341" lon="-0.06831">
        <ele>1944.1</ele>
        <time>2017-12-05T13:01:58Z</time>
      </trkpt>
      <trkpt lat="42.90344" lon="-0.06825">
        <ele>1943.31</ele>
        <time>2017-12-05T13:01:59Z</time>
      </trkpt>
      <trkpt lat="42.90348" lon="-0.06814">
        <ele>1940.34</ele>
        <time>2017-12-05T13:02:01Z</time>
      </trkpt>
      <trkpt lat="42.90349" lon="-0.06807">
        <ele>1936.86</ele>
        <time>2017-12-05T13:02:02Z</time>
      </trkpt>
      <trkpt lat="42.90351" lon="-0.068">
        <ele>1932.54</ele>
        <time>2017-12-05T13:02:03Z</time>
      </trkpt>
      <trkpt lat="42.90354" lon="-0.06792">
        <ele>1928.63</ele>
        <time>2017-12-05T13:02:04Z</time>
      </trkpt>
      <trkpt lat="42.90355" lon="-0.06785">
        <ele>1924.2</ele>
        <time>2017-12-05T13:02:05Z</time>
      </trkpt>
      <trkpt lat="42.90353" lon="-0.06776">
        <ele>1919.87</ele>
        <time>2017-12-05T13:02:06Z</time>
      </trkpt>
      <trkpt lat="42.90349" lon="-0.06766">
        <ele>1915.69</ele>
        <time>2017-12-05T13:02:07Z</time>
      </trkpt>
      <trkpt lat="42.90344" lon="-0.06756">
        <ele>1911.41</ele>
        <time>2017-12-05T13:02:08Z</time>
      </trkpt>
      <trkpt lat="42.90341" lon="-0.06746">
        <ele>1907.26</ele>
        <time>2017-12-05T13:02:09Z</time>
      </trkpt>
      <trkpt lat="42.90337" lon="-0.06736">
        <ele>1903.51</ele>
        <time>2017-12-05T13:02:10Z</time>
      </trkpt>
      <trkpt lat="42.90332" lon="-0.06728">
        <ele>1900.3</ele>
        <time>2017-12-05T13:02:11Z</time>
      </trkpt>
      <trkpt lat="42.90328" lon="-0.06717">
        <ele>1897.59</ele>
        <time>2017-12-05T13:02:12Z</time>
      </trkpt>
      <trkpt lat="42.90324" lon="-0.06709">
        <ele>1896.62</ele>
        <time>2017-12-05T13:02:13Z</time>
      </trkpt>
      <trkpt lat="42.90321" lon="-0.06704">
        <ele>1896.18</ele>
        <time>2017-12-05T13:02:14Z</time>
      </trkpt>
      <trkpt lat="42.90318" lon="-0.06695">
        <ele>1892.62</ele>
        <time>2017-12-05T13:03:23Z</time>
      </trkpt>
      <trkpt lat="42.90316" lon="-0.06688">
        <ele>1892</ele>
        <time>2017-12-05T13:03:25Z</time>
      </trkpt>
      <trkpt lat="42.90314" lon="-0.06678">
        <ele>1891.37</ele>
        <time>2017-12-05T13:03:27Z</time>
      </trkpt>
      <trkpt lat="42.90314" lon="-0.0667">
        <ele>1890.73</ele>
        <time>2017-12-05T13:03:29Z</time>
      </trkpt>
      <trkpt lat="42.90315" lon="-0.0666">
        <ele>1887.56</ele>
        <time>2017-12-05T13:03:31Z</time>
      </trkpt>
      <trkpt lat="42.90319" lon="-0.06652">
        <ele>1884.9</ele>
        <time>2017-12-05T13:03:33Z</time>
      </trkpt>
      <trkpt lat="42.90324" lon="-0.06646">
        <ele>1883.63</ele>
        <time>2017-12-05T13:03:35Z</time>
      </trkpt>
      <trkpt lat="42.90325" lon="-0.06634">
        <ele>1879.14</ele>
        <time>2017-12-05T13:03:37Z</time>
      </trkpt>
      <trkpt lat="42.90326" lon="-0.06627">
        <ele>1876.74</ele>
        <time>2017-12-05T13:03:38Z</time>
      </trkpt>
      <trkpt lat="42.90326" lon="-0.06618">
        <ele>1874.62</ele>
        <time>2017-12-05T13:03:39Z</time>
      </trkpt>
      <trkpt lat="42.90328" lon="-0.0661">
        <ele>1872.85</ele>
        <time>2017-12-05T13:03:40Z</time>
      </trkpt>
      <trkpt lat="42.90327" lon="-0.066">
        <ele>1870.93</ele>
        <time>2017-12-05T13:03:41Z</time>
      </trkpt>
      <trkpt lat="42.90322" lon="-0.06591">
        <ele>1868.49</ele>
        <time>2017-12-05T13:03:42Z</time>
      </trkpt>
      <trkpt lat="42.90317" lon="-0.06584">
        <ele>1866.04</ele>
        <time>2017-12-05T13:03:43Z</time>
      </trkpt>
      <trkpt lat="42.90312" lon="-0.06577">
        <ele>1863.76</ele>
        <time>2017-12-05T13:03:44Z</time>
      </trkpt>
      <trkpt lat="42.90306" lon="-0.06571">
        <ele>1861.73</ele>
        <time>2017-12-05T13:03:45Z</time>
      </trkpt>
      <trkpt lat="42.90301" lon="-0.06565">
        <ele>1859.91</ele>
        <time>2017-12-05T13:03:46Z</time>
      </trkpt>
      <trkpt lat="42.90297" lon="-0.06559">
        <ele>1858.38</ele>
        <time>2017-12-05T13:03:47Z</time>
      </trkpt>
      <trkpt lat="42.90294" lon="-0.06552">
        <ele>1857.06</ele>
        <time>2017-12-05T13:03:48Z</time>
      </trkpt>
      <trkpt lat="42.9029" lon="-0.06545">
        <ele>1855.95</ele>
        <time>2017-12-05T13:03:49Z</time>
      </trkpt>
      <trkpt lat="42.90285" lon="-0.06536">
        <ele>1854.95</ele>
        <time>2017-12-05T13:03:50Z</time>
      </trkpt>
      <trkpt lat="42.90281" lon="-0.06527">
        <ele>1854.01</ele>
        <time>2017-12-05T13:03:51Z</time>
      </trkpt>
      <trkpt lat="42.90278" lon="-0.06519">
        <ele>1853.07</ele>
        <time>2017-12-05T13:03:52Z</time>
      </trkpt>
      <trkpt lat="42.90275" lon="-0.06512">
        <ele>1852.06</ele>
        <time>2017-12-05T13:03:53Z</time>
      </trkpt>
      <trkpt lat="42.90272" lon="-0.06505">
        <ele>1850.91</ele>
        <time>2017-12-05T13:03:54Z</time>
      </trkpt>
      <trkpt lat="42.90269" lon="-0.06499">
        <ele>1849.69</ele>
        <time>2017-12-05T13:03:55Z</time>
      </trkpt>
      <trkpt lat="42.90266" lon="-0.06494">
        <ele>1848.43</ele>
        <time>2017-12-05T13:03:56Z</time>
      </trkpt>
      <trkpt lat="42.90263" lon="-0.06488">
        <ele>1847.22</ele>
        <time>2017-12-05T13:03:57Z</time>
      </trkpt>
      <trkpt lat="42.9026" lon="-0.06481">
        <ele>1846.01</ele>
        <time>2017-12-05T13:03:58Z</time>
      </trkpt>
      <trkpt lat="42.90256" lon="-0.06473">
        <ele>1844.85</ele>
        <time>2017-12-05T13:03:59Z</time>
      </trkpt>
      <trkpt lat="42.90252" lon="-0.06468">
        <ele>1843.72</ele>
        <time>2017-12-05T13:04:00Z</time>
      </trkpt>
      <trkpt lat="42.90248" lon="-0.06461">
        <ele>1842.54</ele>
        <time>2017-12-05T13:04:01Z</time>
      </trkpt>
      <trkpt lat="42.90245" lon="-0.06456">
        <ele>1841.29</ele>
        <time>2017-12-05T13:04:02Z</time>
      </trkpt>
      <trkpt lat="42.9024" lon="-0.06447">
        <ele>1839.75</ele>
        <time>2017-12-05T13:04:04Z</time>
      </trkpt>
      <trkpt lat="42.90236" lon="-0.0644">
        <ele>1839.34</ele>
        <time>2017-12-05T13:04:06Z</time>
      </trkpt>
      <trkpt lat="42.90232" lon="-0.06433">
        <ele>1838.94</ele>
        <time>2017-12-05T13:04:08Z</time>
      </trkpt>
      <trkpt lat="42.90229" lon="-0.06425">
        <ele>1837.1</ele>
        <time>2017-12-05T13:04:10Z</time>
      </trkpt>
      <trkpt lat="42.90225" lon="-0.06413">
        <ele>1834.57</ele>
        <time>2017-12-05T13:04:12Z</time>
      </trkpt>
      <trkpt lat="42.90222" lon="-0.06406">
        <ele>1833.99</ele>
        <time>2017-12-05T13:04:14Z</time>
      </trkpt>
      <trkpt lat="42.90224" lon="-0.06412">
        <ele>1823.56</ele>
        <time>2017-12-05T13:07:16Z</time>
      </trkpt>
      <trkpt lat="42.90219" lon="-0.06408">
        <ele>1814.03</ele>
        <time>2017-12-05T13:11:12Z</time>
      </trkpt>
      <trkpt lat="42.90215" lon="-0.06403">
        <ele>1813.48</ele>
        <time>2017-12-05T13:11:17Z</time>
      </trkpt>
      <trkpt lat="42.90213" lon="-0.06398">
        <ele>1813.25</ele>
        <time>2017-12-05T13:11:21Z</time>
      </trkpt>
      <trkpt lat="42.90209" lon="-0.06394">
        <ele>1812.98</ele>
        <time>2017-12-05T13:11:26Z</time>
      </trkpt>
      <trkpt lat="42.90204" lon="-0.06391">
        <ele>1812.72</ele>
        <time>2017-12-05T13:11:33Z</time>
      </trkpt>
      <trkpt lat="42.90201" lon="-0.06387">
        <ele>1812.54</ele>
        <time>2017-12-05T13:11:41Z</time>
      </trkpt>
      <trkpt lat="42.90197" lon="-0.06384">
        <ele>1812.31</ele>
        <time>2017-12-05T13:11:48Z</time>
      </trkpt>
      <trkpt lat="42.90193" lon="-0.06379">
        <ele>1812.4</ele>
        <time>2017-12-05T13:11:53Z</time>
      </trkpt>
      <trkpt lat="42.90188" lon="-0.06375">
        <ele>1812.89</ele>
        <time>2017-12-05T13:11:58Z</time>
      </trkpt>
      <trkpt lat="42.90185" lon="-0.0637">
        <ele>1813.4</ele>
        <time>2017-12-05T13:12:02Z</time>
      </trkpt>
      <trkpt lat="42.90182" lon="-0.06364">
        <ele>1814.25</ele>
        <time>2017-12-05T13:12:07Z</time>
      </trkpt>
      <trkpt lat="42.90178" lon="-0.06361">
        <ele>1815.44</ele>
        <time>2017-12-05T13:12:14Z</time>
      </trkpt>
      <trkpt lat="42.90173" lon="-0.06358">
        <ele>1816.66</ele>
        <time>2017-12-05T13:12:22Z</time>
      </trkpt>
      <trkpt lat="42.90169" lon="-0.06355">
        <ele>1817.27</ele>
        <time>2017-12-05T13:12:26Z</time>
      </trkpt>
      <trkpt lat="42.90164" lon="-0.06352">
        <ele>1818.49</ele>
        <time>2017-12-05T13:12:33Z</time>
      </trkpt>
      <trkpt lat="42.90167" lon="-0.06357">
        <ele>1817.72</ele>
        <time>2017-12-05T13:16:32Z</time>
      </trkpt>
      <trkpt lat="42.90162" lon="-0.06355">
        <ele>1817.6</ele>
        <time>2017-12-05T13:19:00Z</time>
      </trkpt>
      <trkpt lat="42.90157" lon="-0.06355">
        <ele>1817.97</ele>
        <time>2017-12-05T13:19:05Z</time>
      </trkpt>
      <trkpt lat="42.90151" lon="-0.06357">
        <ele>1818.38</ele>
        <time>2017-12-05T13:19:12Z</time>
      </trkpt>
      <trkpt lat="42.90147" lon="-0.06361">
        <ele>1818.66</ele>
        <time>2017-12-05T13:19:19Z</time>
      </trkpt>
      <trkpt lat="42.90143" lon="-0.06365">
        <ele>1818.79</ele>
        <time>2017-12-05T13:19:25Z</time>
      </trkpt>
      <trkpt lat="42.90139" lon="-0.0637">
        <ele>1818.84</ele>
        <time>2017-12-05T13:19:31Z</time>
      </trkpt>
      <trkpt lat="42.90135" lon="-0.06374">
        <ele>1818.99</ele>
        <time>2017-12-05T13:19:37Z</time>
      </trkpt>
      <trkpt lat="42.90131" lon="-0.06378">
        <ele>1819.13</ele>
        <time>2017-12-05T13:19:42Z</time>
      </trkpt>
      <trkpt lat="42.90128" lon="-0.06382">
        <ele>1819.4</ele>
        <time>2017-12-05T13:19:48Z</time>
      </trkpt>
      <trkpt lat="42.90125" lon="-0.06387">
        <ele>1819.66</ele>
        <time>2017-12-05T13:19:55Z</time>
      </trkpt>
      <trkpt lat="42.90122" lon="-0.06393">
        <ele>1819.6</ele>
        <time>2017-12-05T13:20:01Z</time>
      </trkpt>
      <trkpt lat="42.9012" lon="-0.06399">
        <ele>1819.5</ele>
        <time>2017-12-05T13:20:07Z</time>
      </trkpt>
      <trkpt lat="42.90116" lon="-0.06403">
        <ele>1819.4</ele>
        <time>2017-12-05T13:20:14Z</time>
      </trkpt>
      <trkpt lat="42.90112" lon="-0.06405">
        <ele>1819.28</ele>
        <time>2017-12-05T13:20:19Z</time>
      </trkpt>
      <trkpt lat="42.90107" lon="-0.06404">
        <ele>1819.23</ele>
        <time>2017-12-05T13:20:23Z</time>
      </trkpt>
      <trkpt lat="42.90102" lon="-0.06404">
        <ele>1819.4</ele>
        <time>2017-12-05T13:20:27Z</time>
      </trkpt>
      <trkpt lat="42.90097" lon="-0.06403">
        <ele>1819.72</ele>
        <time>2017-12-05T13:20:32Z</time>
      </trkpt>
      <trkpt lat="42.90092" lon="-0.06403">
        <ele>1820.4</ele>
        <time>2017-12-05T13:20:39Z</time>
      </trkpt>
      <trkpt lat="42.90088" lon="-0.06405">
        <ele>1821.02</ele>
        <time>2017-12-05T13:20:45Z</time>
      </trkpt>
      <trkpt lat="42.90083" lon="-0.06407">
        <ele>1821.77</ele>
        <time>2017-12-05T13:20:54Z</time>
      </trkpt>
      <trkpt lat="42.90079" lon="-0.06411">
        <ele>1822.87</ele>
        <time>2017-12-05T13:21:04Z</time>
      </trkpt>
      <trkpt lat="42.90074" lon="-0.06415">
        <ele>1823.48</ele>
        <time>2017-12-05T13:21:10Z</time>
      </trkpt>
      <trkpt lat="42.9007" lon="-0.06418">
        <ele>1824.13</ele>
        <time>2017-12-05T13:21:17Z</time>
      </trkpt>
      <trkpt lat="42.90069" lon="-0.06424">
        <ele>1824.82</ele>
        <time>2017-12-05T13:21:25Z</time>
      </trkpt>
      <trkpt lat="42.90072" lon="-0.0643">
        <ele>1825.56</ele>
        <time>2017-12-05T13:21:32Z</time>
      </trkpt>
      <trkpt lat="42.90077" lon="-0.06433">
        <ele>1826.41</ele>
        <time>2017-12-05T13:21:38Z</time>
      </trkpt>
      <trkpt lat="42.90081" lon="-0.06437">
        <ele>1827.2</ele>
        <time>2017-12-05T13:21:44Z</time>
      </trkpt>
      <trkpt lat="42.90085" lon="-0.0644">
        <ele>1828.35</ele>
        <time>2017-12-05T13:21:50Z</time>
      </trkpt>
      <trkpt lat="42.90089" lon="-0.06445">
        <ele>1829.58</ele>
        <time>2017-12-05T13:21:56Z</time>
      </trkpt>
      <trkpt lat="42.9009" lon="-0.06451">
        <ele>1831.45</ele>
        <time>2017-12-05T13:22:08Z</time>
      </trkpt>
      <trkpt lat="42.90087" lon="-0.06454">
        <ele>1832.49</ele>
        <time>2017-12-05T13:22:16Z</time>
      </trkpt>
      <trkpt lat="42.90081" lon="-0.06454">
        <ele>1833.24</ele>
        <time>2017-12-05T13:22:23Z</time>
      </trkpt>
      <trkpt lat="42.90076" lon="-0.06455">
        <ele>1834.96</ele>
        <time>2017-12-05T13:22:36Z</time>
      </trkpt>
      <trkpt lat="42.90072" lon="-0.06458">
        <ele>1835.62</ele>
        <time>2017-12-05T13:22:44Z</time>
      </trkpt>
      <trkpt lat="42.90067" lon="-0.06461">
        <ele>1836.4</ele>
        <time>2017-12-05T13:22:52Z</time>
      </trkpt>
      <trkpt lat="42.90063" lon="-0.06463">
        <ele>1836.99</ele>
        <time>2017-12-05T13:23:00Z</time>
      </trkpt>
      <trkpt lat="42.90058" lon="-0.06463">
        <ele>1837.43</ele>
        <time>2017-12-05T13:23:09Z</time>
      </trkpt>
      <trkpt lat="42.90058" lon="-0.0647">
        <ele>1837.87</ele>
        <time>2017-12-05T13:23:14Z</time>
      </trkpt>
      <trkpt lat="42.90059" lon="-0.06477">
        <ele>1839.12</ele>
        <time>2017-12-05T13:23:20Z</time>
      </trkpt>
      <trkpt lat="42.90063" lon="-0.06481">
        <ele>1840.29</ele>
        <time>2017-12-05T13:23:25Z</time>
      </trkpt>
      <trkpt lat="42.90067" lon="-0.06485">
        <ele>1842.39</ele>
        <time>2017-12-05T13:23:33Z</time>
      </trkpt>
      <trkpt lat="42.9007" lon="-0.0649">
        <ele>1843.57</ele>
        <time>2017-12-05T13:23:39Z</time>
      </trkpt>
      <trkpt lat="42.90073" lon="-0.06495">
        <ele>1844.81</ele>
        <time>2017-12-05T13:23:45Z</time>
      </trkpt>
      <trkpt lat="42.90075" lon="-0.06501">
        <ele>1846.53</ele>
        <time>2017-12-05T13:23:54Z</time>
      </trkpt>
      <trkpt lat="42.90077" lon="-0.06508">
        <ele>1848.21</ele>
        <time>2017-12-05T13:24:04Z</time>
      </trkpt>
      <trkpt lat="42.9008" lon="-0.06514">
        <ele>1849.39</ele>
        <time>2017-12-05T13:24:15Z</time>
      </trkpt>
      <trkpt lat="42.90083" lon="-0.0652">
        <ele>1849.83</ele>
        <time>2017-12-05T13:24:20Z</time>
      </trkpt>
      <trkpt lat="42.90087" lon="-0.06523">
        <ele>1850.64</ele>
        <time>2017-12-05T13:24:26Z</time>
      </trkpt>
      <trkpt lat="42.90091" lon="-0.06527">
        <ele>1851.47</ele>
        <time>2017-12-05T13:24:31Z</time>
      </trkpt>
      <trkpt lat="42.90095" lon="-0.06531">
        <ele>1852.46</ele>
        <time>2017-12-05T13:24:36Z</time>
      </trkpt>
      <trkpt lat="42.90099" lon="-0.06534">
        <ele>1853.7</ele>
        <time>2017-12-05T13:24:42Z</time>
      </trkpt>
      <trkpt lat="42.90103" lon="-0.06537">
        <ele>1854.7</ele>
        <time>2017-12-05T13:24:47Z</time>
      </trkpt>
      <trkpt lat="42.90107" lon="-0.06541">
        <ele>1855.55</ele>
        <time>2017-12-05T13:24:52Z</time>
      </trkpt>
      <trkpt lat="42.90111" lon="-0.06545">
        <ele>1856.29</ele>
        <time>2017-12-05T13:24:57Z</time>
      </trkpt>
      <trkpt lat="42.90115" lon="-0.06549">
        <ele>1857.04</ele>
        <time>2017-12-05T13:25:03Z</time>
      </trkpt>
      <trkpt lat="42.90119" lon="-0.06551">
        <ele>1857.84</ele>
        <time>2017-12-05T13:25:08Z</time>
      </trkpt>
      <trkpt lat="42.90124" lon="-0.06555">
        <ele>1858.7</ele>
        <time>2017-12-05T13:25:13Z</time>
      </trkpt>
      <trkpt lat="42.9012" lon="-0.06559">
        <ele>1859.66</ele>
        <time>2017-12-05T13:25:26Z</time>
      </trkpt>
      <trkpt lat="42.90114" lon="-0.06561">
        <ele>1860.6</ele>
        <time>2017-12-05T13:25:40Z</time>
      </trkpt>
      <trkpt lat="42.9011" lon="-0.06564">
        <ele>1861.34</ele>
        <time>2017-12-05T13:25:44Z</time>
      </trkpt>
      <trkpt lat="42.90105" lon="-0.06566">
        <ele>1863</ele>
        <time>2017-12-05T13:25:54Z</time>
      </trkpt>
      <trkpt lat="42.901" lon="-0.06565">
        <ele>1864.59</ele>
        <time>2017-12-05T13:26:02Z</time>
      </trkpt>
      <trkpt lat="42.90095" lon="-0.06566">
        <ele>1865.57</ele>
        <time>2017-12-05T13:26:10Z</time>
      </trkpt>
      <trkpt lat="42.90091" lon="-0.06571">
        <ele>1866.22</ele>
        <time>2017-12-05T13:26:18Z</time>
      </trkpt>
      <trkpt lat="42.90087" lon="-0.06575">
        <ele>1867.5</ele>
        <time>2017-12-05T13:26:31Z</time>
      </trkpt>
      <trkpt lat="42.90087" lon="-0.06581">
        <ele>1868.35</ele>
        <time>2017-12-05T13:26:38Z</time>
      </trkpt>
      <trkpt lat="42.9009" lon="-0.06586">
        <ele>1869.65</ele>
        <time>2017-12-05T13:26:45Z</time>
      </trkpt>
      <trkpt lat="42.90093" lon="-0.06591">
        <ele>1871.1</ele>
        <time>2017-12-05T13:26:51Z</time>
      </trkpt>
      <trkpt lat="42.90097" lon="-0.06597">
        <ele>1873.25</ele>
        <time>2017-12-05T13:26:59Z</time>
      </trkpt>
      <trkpt lat="42.90099" lon="-0.06603">
        <ele>1874.79</ele>
        <time>2017-12-05T13:27:06Z</time>
      </trkpt>
      <trkpt lat="42.90102" lon="-0.06608">
        <ele>1875.94</ele>
        <time>2017-12-05T13:27:12Z</time>
      </trkpt>
      <trkpt lat="42.90105" lon="-0.06614">
        <ele>1876.82</ele>
        <time>2017-12-05T13:27:27Z</time>
      </trkpt>
      <trkpt lat="42.90106" lon="-0.0662">
        <ele>1877.04</ele>
        <time>2017-12-05T13:27:36Z</time>
      </trkpt>
      <trkpt lat="42.90109" lon="-0.06626">
        <ele>1877.21</ele>
        <time>2017-12-05T13:27:41Z</time>
      </trkpt>
      <trkpt lat="42.9011" lon="-0.06632">
        <ele>1878.1</ele>
        <time>2017-12-05T13:27:48Z</time>
      </trkpt>
      <trkpt lat="42.90106" lon="-0.06632">
        <ele>1879.55</ele>
        <time>2017-12-05T13:27:58Z</time>
      </trkpt>
      <trkpt lat="42.90101" lon="-0.06632">
        <ele>1880.32</ele>
        <time>2017-12-05T13:28:05Z</time>
      </trkpt>
      <trkpt lat="42.90096" lon="-0.06633">
        <ele>1880.74</ele>
        <time>2017-12-05T13:28:10Z</time>
      </trkpt>
      <trkpt lat="42.90091" lon="-0.06634">
        <ele>1881.03</ele>
        <time>2017-12-05T13:28:15Z</time>
      </trkpt>
      <trkpt lat="42.90094" lon="-0.06642">
        <ele>1881.36</ele>
        <time>2017-12-05T13:28:25Z</time>
      </trkpt>
      <trkpt lat="42.90096" lon="-0.06649">
        <ele>1882.08</ele>
        <time>2017-12-05T13:28:30Z</time>
      </trkpt>
      <trkpt lat="42.901" lon="-0.06654">
        <ele>1883.04</ele>
        <time>2017-12-05T13:28:35Z</time>
      </trkpt>
      <trkpt lat="42.90103" lon="-0.0666">
        <ele>1884.67</ele>
        <time>2017-12-05T13:28:42Z</time>
      </trkpt>
      <trkpt lat="42.90098" lon="-0.06662">
        <ele>1886.78</ele>
        <time>2017-12-05T13:28:55Z</time>
      </trkpt>
      <trkpt lat="42.90093" lon="-0.06661">
        <ele>1888.11</ele>
        <time>2017-12-05T13:29:03Z</time>
      </trkpt>
      <trkpt lat="42.90088" lon="-0.06661">
        <ele>1889.4</ele>
        <time>2017-12-05T13:29:12Z</time>
      </trkpt>
      <trkpt lat="42.90084" lon="-0.06664">
        <ele>1890.6</ele>
        <time>2017-12-05T13:29:20Z</time>
      </trkpt>
      <trkpt lat="42.90081" lon="-0.0667">
        <ele>1892.69</ele>
        <time>2017-12-05T13:29:31Z</time>
      </trkpt>
      <trkpt lat="42.90084" lon="-0.06675">
        <ele>1893.68</ele>
        <time>2017-12-05T13:29:36Z</time>
      </trkpt>
      <trkpt lat="42.90088" lon="-0.06678">
        <ele>1895.17</ele>
        <time>2017-12-05T13:29:45Z</time>
      </trkpt>
      <trkpt lat="42.9009" lon="-0.06683">
        <ele>1895.51</ele>
        <time>2017-12-05T13:29:53Z</time>
      </trkpt>
      <trkpt lat="42.90092" lon="-0.06691">
        <ele>1895.5</ele>
        <time>2017-12-05T13:29:59Z</time>
      </trkpt>
      <trkpt lat="42.90089" lon="-0.06695">
        <ele>1896.31</ele>
        <time>2017-12-05T13:30:13Z</time>
      </trkpt>
      <trkpt lat="42.90083" lon="-0.06696">
        <ele>1897.24</ele>
        <time>2017-12-05T13:30:18Z</time>
      </trkpt>
      <trkpt lat="42.90079" lon="-0.06696">
        <ele>1897.92</ele>
        <time>2017-12-05T13:30:22Z</time>
      </trkpt>
      <trkpt lat="42.90074" lon="-0.06697">
        <ele>1899.1</ele>
        <time>2017-12-05T13:30:30Z</time>
      </trkpt>
      <trkpt lat="42.90069" lon="-0.06699">
        <ele>1901.01</ele>
        <time>2017-12-05T13:30:40Z</time>
      </trkpt>
      <trkpt lat="42.90067" lon="-0.06706">
        <ele>1902.74</ele>
        <time>2017-12-05T13:30:50Z</time>
      </trkpt>
      <trkpt lat="42.90069" lon="-0.06713">
        <ele>1903.33</ele>
        <time>2017-12-05T13:30:57Z</time>
      </trkpt>
      <trkpt lat="42.90071" lon="-0.06719">
        <ele>1903.62</ele>
        <time>2017-12-05T13:31:05Z</time>
      </trkpt>
      <trkpt lat="42.90073" lon="-0.06725">
        <ele>1903.64</ele>
        <time>2017-12-05T13:31:10Z</time>
      </trkpt>
      <trkpt lat="42.90076" lon="-0.06731">
        <ele>1904.13</ele>
        <time>2017-12-05T13:31:16Z</time>
      </trkpt>
      <trkpt lat="42.90079" lon="-0.06737">
        <ele>1905.17</ele>
        <time>2017-12-05T13:31:23Z</time>
      </trkpt>
      <trkpt lat="42.90082" lon="-0.06742">
        <ele>1906.45</ele>
        <time>2017-12-05T13:31:31Z</time>
      </trkpt>
      <trkpt lat="42.90078" lon="-0.06747">
        <ele>1908.59</ele>
        <time>2017-12-05T13:31:47Z</time>
      </trkpt>
      <trkpt lat="42.90073" lon="-0.06746">
        <ele>1910.05</ele>
        <time>2017-12-05T13:31:57Z</time>
      </trkpt>
      <trkpt lat="42.90067" lon="-0.06747">
        <ele>1910.97</ele>
        <time>2017-12-05T13:32:04Z</time>
      </trkpt>
      <trkpt lat="42.90063" lon="-0.06752">
        <ele>1913.83</ele>
        <time>2017-12-05T13:32:22Z</time>
      </trkpt>
      <trkpt lat="42.90066" lon="-0.06758">
        <ele>1914.27</ele>
        <time>2017-12-05T13:32:27Z</time>
      </trkpt>
      <trkpt lat="42.90067" lon="-0.06765">
        <ele>1914.93</ele>
        <time>2017-12-05T13:32:33Z</time>
      </trkpt>
      <trkpt lat="42.90068" lon="-0.06771">
        <ele>1915.89</ele>
        <time>2017-12-05T13:32:41Z</time>
      </trkpt>
      <trkpt lat="42.90072" lon="-0.06776">
        <ele>1917.25</ele>
        <time>2017-12-05T13:32:50Z</time>
      </trkpt>
      <trkpt lat="42.90072" lon="-0.06782">
        <ele>1917.88</ele>
        <time>2017-12-05T13:32:54Z</time>
      </trkpt>
      <trkpt lat="42.90074" lon="-0.06788">
        <ele>1918.84</ele>
        <time>2017-12-05T13:33:00Z</time>
      </trkpt>
      <trkpt lat="42.90075" lon="-0.06795">
        <ele>1919.78</ele>
        <time>2017-12-05T13:33:06Z</time>
      </trkpt>
      <trkpt lat="42.90078" lon="-0.06801">
        <ele>1921.44</ele>
        <time>2017-12-05T13:33:16Z</time>
      </trkpt>
      <trkpt lat="42.9008" lon="-0.06807">
        <ele>1922.39</ele>
        <time>2017-12-05T13:33:21Z</time>
      </trkpt>
      <trkpt lat="42.90083" lon="-0.06812">
        <ele>1924.12</ele>
        <time>2017-12-05T13:33:31Z</time>
      </trkpt>
      <trkpt lat="42.90083" lon="-0.06819">
        <ele>1924.71</ele>
        <time>2017-12-05T13:33:37Z</time>
      </trkpt>
      <trkpt lat="42.90083" lon="-0.06826">
        <ele>1925.27</ele>
        <time>2017-12-05T13:33:43Z</time>
      </trkpt>
      <trkpt lat="42.90085" lon="-0.06833">
        <ele>1925.84</ele>
        <time>2017-12-05T13:33:51Z</time>
      </trkpt>
      <trkpt lat="42.90088" lon="-0.06837">
        <ele>1926.79</ele>
        <time>2017-12-05T13:34:03Z</time>
      </trkpt>
      <trkpt lat="42.90089" lon="-0.06843">
        <ele>1926.61</ele>
        <time>2017-12-05T13:34:10Z</time>
      </trkpt>
      <trkpt lat="42.90088" lon="-0.0685">
        <ele>1926.76</ele>
        <time>2017-12-05T13:34:16Z</time>
      </trkpt>
      <trkpt lat="42.90091" lon="-0.06856">
        <ele>1927.2</ele>
        <time>2017-12-05T13:34:24Z</time>
      </trkpt>
      <trkpt lat="42.90086" lon="-0.06859">
        <ele>1928.63</ele>
        <time>2017-12-05T13:34:35Z</time>
      </trkpt>
      <trkpt lat="42.9008" lon="-0.0686">
        <ele>1930.18</ele>
        <time>2017-12-05T13:34:42Z</time>
      </trkpt>
      <trkpt lat="42.90076" lon="-0.0686">
        <ele>1932.65</ele>
        <time>2017-12-05T13:34:53Z</time>
      </trkpt>
      <trkpt lat="42.90073" lon="-0.06866">
        <ele>1934.39</ele>
        <time>2017-12-05T13:35:01Z</time>
      </trkpt>
      <trkpt lat="42.90075" lon="-0.06872">
        <ele>1935.29</ele>
        <time>2017-12-05T13:35:06Z</time>
      </trkpt>
      <trkpt lat="42.90079" lon="-0.06874">
        <ele>1936.95</ele>
        <time>2017-12-05T13:35:14Z</time>
      </trkpt>
      <trkpt lat="42.90082" lon="-0.0688">
        <ele>1938.47</ele>
        <time>2017-12-05T13:35:20Z</time>
      </trkpt>
      <trkpt lat="42.90083" lon="-0.06886">
        <ele>1939.52</ele>
        <time>2017-12-05T13:35:25Z</time>
      </trkpt>
      <trkpt lat="42.90085" lon="-0.06893">
        <ele>1940.66</ele>
        <time>2017-12-05T13:35:30Z</time>
      </trkpt>
      <trkpt lat="42.90086" lon="-0.06899">
        <ele>1942.19</ele>
        <time>2017-12-05T13:35:36Z</time>
      </trkpt>
      <trkpt lat="42.90087" lon="-0.06906">
        <ele>1943.99</ele>
        <time>2017-12-05T13:35:43Z</time>
      </trkpt>
      <trkpt lat="42.90088" lon="-0.06913">
        <ele>1945.57</ele>
        <time>2017-12-05T13:35:54Z</time>
      </trkpt>
      <trkpt lat="42.90091" lon="-0.06919">
        <ele>1946.41</ele>
        <time>2017-12-05T13:36:02Z</time>
      </trkpt>
      <trkpt lat="42.90086" lon="-0.06921">
        <ele>1948.87</ele>
        <time>2017-12-05T13:36:16Z</time>
      </trkpt>
      <trkpt lat="42.90081" lon="-0.06922">
        <ele>1950.77</ele>
        <time>2017-12-05T13:36:26Z</time>
      </trkpt>
      <trkpt lat="42.90076" lon="-0.06922">
        <ele>1952.02</ele>
        <time>2017-12-05T13:36:35Z</time>
      </trkpt>
      <trkpt lat="42.90072" lon="-0.06921">
        <ele>1952.62</ele>
        <time>2017-12-05T13:36:41Z</time>
      </trkpt>
      <trkpt lat="42.90071" lon="-0.06927">
        <ele>1953.25</ele>
        <time>2017-12-05T13:36:47Z</time>
      </trkpt>
      <trkpt lat="42.90074" lon="-0.06932">
        <ele>1953.89</ele>
        <time>2017-12-05T13:36:51Z</time>
      </trkpt>
      <trkpt lat="42.90078" lon="-0.06936">
        <ele>1955.85</ele>
        <time>2017-12-05T13:37:01Z</time>
      </trkpt>
      <trkpt lat="42.9008" lon="-0.06942">
        <ele>1957.13</ele>
        <time>2017-12-05T13:37:07Z</time>
      </trkpt>
      <trkpt lat="42.90078" lon="-0.06949">
        <ele>1957.8</ele>
        <time>2017-12-05T13:37:11Z</time>
      </trkpt>
      <trkpt lat="42.9008" lon="-0.06955">
        <ele>1958.53</ele>
        <time>2017-12-05T13:37:19Z</time>
      </trkpt>
      <trkpt lat="42.90082" lon="-0.06961">
        <ele>1959.35</ele>
        <time>2017-12-05T13:37:28Z</time>
      </trkpt>
      <trkpt lat="42.90085" lon="-0.06966">
        <ele>1960.3</ele>
        <time>2017-12-05T13:37:39Z</time>
      </trkpt>
      <trkpt lat="42.90087" lon="-0.06972">
        <ele>1960.27</ele>
        <time>2017-12-05T13:37:49Z</time>
      </trkpt>
      <trkpt lat="42.9009" lon="-0.06978">
        <ele>1960.11</ele>
        <time>2017-12-05T13:37:57Z</time>
      </trkpt>
      <trkpt lat="42.90086" lon="-0.06982">
        <ele>1961.3</ele>
        <time>2017-12-05T13:38:15Z</time>
      </trkpt>
      <trkpt lat="42.90082" lon="-0.06984">
        <ele>1962.14</ele>
        <time>2017-12-05T13:38:21Z</time>
      </trkpt>
      <trkpt lat="42.90077" lon="-0.06985">
        <ele>1964.33</ele>
        <time>2017-12-05T13:38:33Z</time>
      </trkpt>
      <trkpt lat="42.90072" lon="-0.06987">
        <ele>1965.94</ele>
        <time>2017-12-05T13:38:42Z</time>
      </trkpt>
      <trkpt lat="42.90067" lon="-0.06987">
        <ele>1967.39</ele>
        <time>2017-12-05T13:38:49Z</time>
      </trkpt>
      <trkpt lat="42.90071" lon="-0.06991">
        <ele>1968.68</ele>
        <time>2017-12-05T13:39:05Z</time>
      </trkpt>
      <trkpt lat="42.90072" lon="-0.06998">
        <ele>1968.93</ele>
        <time>2017-12-05T13:39:09Z</time>
      </trkpt>
      <trkpt lat="42.90074" lon="-0.07004">
        <ele>1969.4</ele>
        <time>2017-12-05T13:39:14Z</time>
      </trkpt>
      <trkpt lat="42.90069" lon="-0.07004">
        <ele>1971.41</ele>
        <time>2017-12-05T13:39:54Z</time>
      </trkpt>
      <trkpt lat="42.90064" lon="-0.07003">
        <ele>1972.33</ele>
        <time>2017-12-05T13:39:59Z</time>
      </trkpt>
      <trkpt lat="42.9006" lon="-0.07001">
        <ele>1973.33</ele>
        <time>2017-12-05T13:40:04Z</time>
      </trkpt>
      <trkpt lat="42.90055" lon="-0.06999">
        <ele>1974.53</ele>
        <time>2017-12-05T13:40:10Z</time>
      </trkpt>
      <trkpt lat="42.9005" lon="-0.06996">
        <ele>1975.62</ele>
        <time>2017-12-05T13:40:16Z</time>
      </trkpt>
      <trkpt lat="42.90046" lon="-0.06993">
        <ele>1976.68</ele>
        <time>2017-12-05T13:40:22Z</time>
      </trkpt>
      <trkpt lat="42.90041" lon="-0.0699">
        <ele>1977.65</ele>
        <time>2017-12-05T13:40:28Z</time>
      </trkpt>
      <trkpt lat="42.90037" lon="-0.06986">
        <ele>1978.53</ele>
        <time>2017-12-05T13:40:34Z</time>
      </trkpt>
      <trkpt lat="42.90033" lon="-0.06984">
        <ele>1979.55</ele>
        <time>2017-12-05T13:40:41Z</time>
      </trkpt>
      <trkpt lat="42.90028" lon="-0.06981">
        <ele>1980.99</ele>
        <time>2017-12-05T13:40:49Z</time>
      </trkpt>
      <trkpt lat="42.90023" lon="-0.0698">
        <ele>1981.85</ele>
        <time>2017-12-05T13:40:55Z</time>
      </trkpt>
      <trkpt lat="42.90019" lon="-0.06982">
        <ele>1982.59</ele>
        <time>2017-12-05T13:41:01Z</time>
      </trkpt>
      <trkpt lat="42.90015" lon="-0.06986">
        <ele>1983.37</ele>
        <time>2017-12-05T13:41:09Z</time>
      </trkpt>
      <trkpt lat="42.9001" lon="-0.0699">
        <ele>1983.73</ele>
        <time>2017-12-05T13:41:15Z</time>
      </trkpt>
      <trkpt lat="42.90006" lon="-0.06992">
        <ele>1984.03</ele>
        <time>2017-12-05T13:41:22Z</time>
      </trkpt>
      <trkpt lat="42.90001" lon="-0.06988">
        <ele>1984.69</ele>
        <time>2017-12-05T13:41:29Z</time>
      </trkpt>
      <trkpt lat="42.89999" lon="-0.06983">
        <ele>1985.49</ele>
        <time>2017-12-05T13:41:34Z</time>
      </trkpt>
      <trkpt lat="42.89994" lon="-0.06979">
        <ele>1987.34</ele>
        <time>2017-12-05T13:41:43Z</time>
      </trkpt>
      <trkpt lat="42.8999" lon="-0.0698">
        <ele>1988.77</ele>
        <time>2017-12-05T13:41:50Z</time>
      </trkpt>
      <trkpt lat="42.89985" lon="-0.06978">
        <ele>1989.7</ele>
        <time>2017-12-05T13:41:55Z</time>
      </trkpt>
      <trkpt lat="42.8998" lon="-0.06976">
        <ele>1990.6</ele>
        <time>2017-12-05T13:42:02Z</time>
      </trkpt>
      <trkpt lat="42.89974" lon="-0.06976">
        <ele>1990.86</ele>
        <time>2017-12-05T13:42:05Z</time>
      </trkpt>
      <trkpt lat="42.89969" lon="-0.06977">
        <ele>1991.17</ele>
        <time>2017-12-05T13:42:09Z</time>
      </trkpt>
      <trkpt lat="42.89964" lon="-0.0698">
        <ele>1991.44</ele>
        <time>2017-12-05T13:42:14Z</time>
      </trkpt>
      <trkpt lat="42.8996" lon="-0.06982">
        <ele>1991.77</ele>
        <time>2017-12-05T13:42:19Z</time>
      </trkpt>
      <trkpt lat="42.89957" lon="-0.06987">
        <ele>1992.1</ele>
        <time>2017-12-05T13:42:24Z</time>
      </trkpt>
      <trkpt lat="42.89954" lon="-0.06993">
        <ele>1992.67</ele>
        <time>2017-12-05T13:42:31Z</time>
      </trkpt>
      <trkpt lat="42.89951" lon="-0.06999">
        <ele>1993.12</ele>
        <time>2017-12-05T13:42:36Z</time>
      </trkpt>
      <trkpt lat="42.89949" lon="-0.07005">
        <ele>1993.51</ele>
        <time>2017-12-05T13:42:41Z</time>
      </trkpt>
      <trkpt lat="42.8995" lon="-0.07011">
        <ele>1994.07</ele>
        <time>2017-12-05T13:42:48Z</time>
      </trkpt>
      <trkpt lat="42.89948" lon="-0.07017">
        <ele>1994.7</ele>
        <time>2017-12-05T13:42:55Z</time>
      </trkpt>
      <trkpt lat="42.89945" lon="-0.07023">
        <ele>1995.24</ele>
        <time>2017-12-05T13:43:00Z</time>
      </trkpt>
      <trkpt lat="42.89943" lon="-0.07029">
        <ele>1996.03</ele>
        <time>2017-12-05T13:43:07Z</time>
      </trkpt>
      <trkpt lat="42.89941" lon="-0.07035">
        <ele>1996.41</ele>
        <time>2017-12-05T13:43:13Z</time>
      </trkpt>
      <trkpt lat="42.89938" lon="-0.07041">
        <ele>1996.62</ele>
        <time>2017-12-05T13:43:18Z</time>
      </trkpt>
      <trkpt lat="42.89936" lon="-0.07048">
        <ele>1996.81</ele>
        <time>2017-12-05T13:43:23Z</time>
      </trkpt>
      <trkpt lat="42.89932" lon="-0.07054">
        <ele>1997.02</ele>
        <time>2017-12-05T13:43:29Z</time>
      </trkpt>
      <trkpt lat="42.8993" lon="-0.07061">
        <ele>1997.08</ele>
        <time>2017-12-05T13:43:35Z</time>
      </trkpt>
      <trkpt lat="42.89927" lon="-0.07065">
        <ele>1996.93</ele>
        <time>2017-12-05T13:43:41Z</time>
      </trkpt>
      <trkpt lat="42.89924" lon="-0.07071">
        <ele>1996.76</ele>
        <time>2017-12-05T13:43:46Z</time>
      </trkpt>
      <trkpt lat="42.89923" lon="-0.07077">
        <ele>1996.61</ele>
        <time>2017-12-05T13:43:51Z</time>
      </trkpt>
      <trkpt lat="42.89919" lon="-0.07081">
        <ele>1996.62</ele>
        <time>2017-12-05T13:43:56Z</time>
      </trkpt>
      <trkpt lat="42.89915" lon="-0.07084">
        <ele>1996.81</ele>
        <time>2017-12-05T13:44:01Z</time>
      </trkpt>
      <trkpt lat="42.8991" lon="-0.07087">
        <ele>1997.01</ele>
        <time>2017-12-05T13:44:07Z</time>
      </trkpt>
      <trkpt lat="42.89908" lon="-0.07093">
        <ele>2001.25</ele>
        <time>2017-12-05T13:45:36Z</time>
      </trkpt>
      <trkpt lat="42.89907" lon="-0.071">
        <ele>2007.72</ele>
        <time>2017-12-05T13:50:57Z</time>
      </trkpt>
      <trkpt lat="42.8991" lon="-0.07095">
        <ele>2008.43</ele>
        <time>2017-12-05T13:51:09Z</time>
      </trkpt>
      <trkpt lat="42.89906" lon="-0.07092">
        <ele>2009.91</ele>
        <time>2017-12-05T13:51:31Z</time>
      </trkpt>
      <trkpt lat="42.89909" lon="-0.07089">
        <ele>2009.99</ele>
        <time>2017-12-05T13:54:10Z</time>
      </trkpt>
      <trkpt lat="42.89913" lon="-0.07084">
        <ele>2011.11</ele>
        <time>2017-12-05T14:00:26Z</time>
      </trkpt>
      <trkpt lat="42.8991" lon="-0.0709">
        <ele>2011.82</ele>
        <time>2017-12-05T14:01:18Z</time>
      </trkpt>
      <trkpt lat="42.89906" lon="-0.07089">
        <ele>2011.23</ele>
        <time>2017-12-05T14:06:57Z</time>
      </trkpt>
      <trkpt lat="42.89908" lon="-0.07083">
        <ele>2009.8</ele>
        <time>2017-12-05T14:12:03Z</time>
      </trkpt>
      <trkpt lat="42.89909" lon="-0.07074">
        <ele>2009.67</ele>
        <time>2017-12-05T14:12:05Z</time>
      </trkpt>
      <trkpt lat="42.89908" lon="-0.07064">
        <ele>2007.57</ele>
        <time>2017-12-05T14:12:07Z</time>
      </trkpt>
      <trkpt lat="42.89905" lon="-0.07054">
        <ele>2004.47</ele>
        <time>2017-12-05T14:12:09Z</time>
      </trkpt>
      <trkpt lat="42.89903" lon="-0.07045">
        <ele>2003.15</ele>
        <time>2017-12-05T14:12:10Z</time>
      </trkpt>
      <trkpt lat="42.89899" lon="-0.07039">
        <ele>2001.88</ele>
        <time>2017-12-05T14:12:11Z</time>
      </trkpt>
      <trkpt lat="42.89894" lon="-0.07031">
        <ele>2000.67</ele>
        <time>2017-12-05T14:12:12Z</time>
      </trkpt>
      <trkpt lat="42.8989" lon="-0.07022">
        <ele>1999.48</ele>
        <time>2017-12-05T14:12:13Z</time>
      </trkpt>
      <trkpt lat="42.89887" lon="-0.07016">
        <ele>1998.13</ele>
        <time>2017-12-05T14:12:14Z</time>
      </trkpt>
      <trkpt lat="42.89884" lon="-0.07007">
        <ele>1996.63</ele>
        <time>2017-12-05T14:12:15Z</time>
      </trkpt>
      <trkpt lat="42.89881" lon="-0.06998">
        <ele>1995.02</ele>
        <time>2017-12-05T14:12:16Z</time>
      </trkpt>
      <trkpt lat="42.89876" lon="-0.06992">
        <ele>1993.54</ele>
        <time>2017-12-05T14:12:17Z</time>
      </trkpt>
      <trkpt lat="42.89873" lon="-0.06985">
        <ele>1992.13</ele>
        <time>2017-12-05T14:12:18Z</time>
      </trkpt>
      <trkpt lat="42.89871" lon="-0.06978">
        <ele>1990.86</ele>
        <time>2017-12-05T14:12:19Z</time>
      </trkpt>
      <trkpt lat="42.89866" lon="-0.06969">
        <ele>1988.18</ele>
        <time>2017-12-05T14:12:21Z</time>
      </trkpt>
      <trkpt lat="42.89862" lon="-0.06963">
        <ele>1986.73</ele>
        <time>2017-12-05T14:12:22Z</time>
      </trkpt>
      <trkpt lat="42.89859" lon="-0.06958">
        <ele>1985.36</ele>
        <time>2017-12-05T14:12:23Z</time>
      </trkpt>
      <trkpt lat="42.89855" lon="-0.06954">
        <ele>1984.2</ele>
        <time>2017-12-05T14:12:24Z</time>
      </trkpt>
      <trkpt lat="42.89851" lon="-0.06948">
        <ele>1983.11</ele>
        <time>2017-12-05T14:12:25Z</time>
      </trkpt>
      <trkpt lat="42.89847" lon="-0.06944">
        <ele>1982.02</ele>
        <time>2017-12-05T14:12:26Z</time>
      </trkpt>
      <trkpt lat="42.89844" lon="-0.06939">
        <ele>1981.13</ele>
        <time>2017-12-05T14:12:27Z</time>
      </trkpt>
      <trkpt lat="42.8984" lon="-0.06935">
        <ele>1980.22</ele>
        <time>2017-12-05T14:12:28Z</time>
      </trkpt>
      <trkpt lat="42.89834" lon="-0.06928">
        <ele>1978.85</ele>
        <time>2017-12-05T14:12:30Z</time>
      </trkpt>
      <trkpt lat="42.89826" lon="-0.0692">
        <ele>1977.28</ele>
        <time>2017-12-05T14:12:32Z</time>
      </trkpt>
      <trkpt lat="42.8982" lon="-0.06916">
        <ele>1976.2</ele>
        <time>2017-12-05T14:12:33Z</time>
      </trkpt>
      <trkpt lat="42.89816" lon="-0.06912">
        <ele>1975.2</ele>
        <time>2017-12-05T14:12:34Z</time>
      </trkpt>
      <trkpt lat="42.89812" lon="-0.06908">
        <ele>1974.31</ele>
        <time>2017-12-05T14:12:35Z</time>
      </trkpt>
      <trkpt lat="42.89808" lon="-0.06904">
        <ele>1973.72</ele>
        <time>2017-12-05T14:12:36Z</time>
      </trkpt>
      <trkpt lat="42.89803" lon="-0.06901">
        <ele>1973</ele>
        <time>2017-12-05T14:12:37Z</time>
      </trkpt>
      <trkpt lat="42.89798" lon="-0.06898">
        <ele>1971.82</ele>
        <time>2017-12-05T14:12:38Z</time>
      </trkpt>
      <trkpt lat="42.89789" lon="-0.06896">
        <ele>1968.72</ele>
        <time>2017-12-05T14:12:40Z</time>
      </trkpt>
      <trkpt lat="42.89782" lon="-0.06891">
        <ele>1964.56</ele>
        <time>2017-12-05T14:12:42Z</time>
      </trkpt>
      <trkpt lat="42.89774" lon="-0.06886">
        <ele>1960.73</ele>
        <time>2017-12-05T14:12:44Z</time>
      </trkpt>
      <trkpt lat="42.89763" lon="-0.06882">
        <ele>1956.66</ele>
        <time>2017-12-05T14:12:46Z</time>
      </trkpt>
      <trkpt lat="42.89759" lon="-0.06883">
        <ele>1954.67</ele>
        <time>2017-12-05T14:12:47Z</time>
      </trkpt>
      <trkpt lat="42.8975" lon="-0.06888">
        <ele>1951.36</ele>
        <time>2017-12-05T14:12:49Z</time>
      </trkpt>
      <trkpt lat="42.89743" lon="-0.06891">
        <ele>1950.05</ele>
        <time>2017-12-05T14:12:50Z</time>
      </trkpt>
      <trkpt lat="42.89736" lon="-0.06894">
        <ele>1947.7</ele>
        <time>2017-12-05T14:12:52Z</time>
      </trkpt>
      <trkpt lat="42.89732" lon="-0.06897">
        <ele>1947.3</ele>
        <time>2017-12-05T14:12:53Z</time>
      </trkpt>
      <trkpt lat="42.89726" lon="-0.06902">
        <ele>1946.47</ele>
        <time>2017-12-05T14:12:55Z</time>
      </trkpt>
      <trkpt lat="42.8972" lon="-0.06905">
        <ele>1945.56</ele>
        <time>2017-12-05T14:12:57Z</time>
      </trkpt>
      <trkpt lat="42.89715" lon="-0.06904">
        <ele>1943.64</ele>
        <time>2017-12-05T14:13:27Z</time>
      </trkpt>
      <trkpt lat="42.8971" lon="-0.06906">
        <ele>1942.73</ele>
        <time>2017-12-05T14:13:28Z</time>
      </trkpt>
      <trkpt lat="42.89705" lon="-0.06909">
        <ele>1941.85</ele>
        <time>2017-12-05T14:13:29Z</time>
      </trkpt>
      <trkpt lat="42.89698" lon="-0.06915">
        <ele>1941</ele>
        <time>2017-12-05T14:13:30Z</time>
      </trkpt>
      <trkpt lat="42.89691" lon="-0.06922">
        <ele>1940.26</ele>
        <time>2017-12-05T14:13:31Z</time>
      </trkpt>
      <trkpt lat="42.89684" lon="-0.06928">
        <ele>1939.6</ele>
        <time>2017-12-05T14:13:32Z</time>
      </trkpt>
      <trkpt lat="42.89678" lon="-0.06935">
        <ele>1938.92</ele>
        <time>2017-12-05T14:13:33Z</time>
      </trkpt>
      <trkpt lat="42.89673" lon="-0.0694">
        <ele>1938.25</ele>
        <time>2017-12-05T14:13:34Z</time>
      </trkpt>
      <trkpt lat="42.89668" lon="-0.06945">
        <ele>1937.54</ele>
        <time>2017-12-05T14:13:35Z</time>
      </trkpt>
      <trkpt lat="42.89663" lon="-0.06949">
        <ele>1936.81</ele>
        <time>2017-12-05T14:13:36Z</time>
      </trkpt>
      <trkpt lat="42.89657" lon="-0.06953">
        <ele>1936.07</ele>
        <time>2017-12-05T14:13:37Z</time>
      </trkpt>
      <trkpt lat="42.89652" lon="-0.06957">
        <ele>1935.33</ele>
        <time>2017-12-05T14:13:38Z</time>
      </trkpt>
      <trkpt lat="42.89648" lon="-0.06962">
        <ele>1934.63</ele>
        <time>2017-12-05T14:13:39Z</time>
      </trkpt>
      <trkpt lat="42.89644" lon="-0.06966">
        <ele>1934.01</ele>
        <time>2017-12-05T14:13:40Z</time>
      </trkpt>
      <trkpt lat="42.89641" lon="-0.06971">
        <ele>1933.78</ele>
        <time>2017-12-05T14:13:41Z</time>
      </trkpt>
      <trkpt lat="42.89635" lon="-0.06976">
        <ele>1932.55</ele>
        <time>2017-12-05T14:13:43Z</time>
      </trkpt>
      <trkpt lat="42.89627" lon="-0.06981">
        <ele>1932.19</ele>
        <time>2017-12-05T14:13:45Z</time>
      </trkpt>
      <trkpt lat="42.89622" lon="-0.06985">
        <ele>1932</ele>
        <time>2017-12-05T14:13:47Z</time>
      </trkpt>
      <trkpt lat="42.89614" lon="-0.06991">
        <ele>1930.24</ele>
        <time>2017-12-05T14:13:49Z</time>
      </trkpt>
      <trkpt lat="42.8961" lon="-0.06995">
        <ele>1929.32</ele>
        <time>2017-12-05T14:13:50Z</time>
      </trkpt>
      <trkpt lat="42.89602" lon="-0.06997">
        <ele>1927.61</ele>
        <time>2017-12-05T14:13:52Z</time>
      </trkpt>
      <trkpt lat="42.89597" lon="-0.06998">
        <ele>1926.79</ele>
        <time>2017-12-05T14:13:53Z</time>
      </trkpt>
      <trkpt lat="42.89592" lon="-0.06999">
        <ele>1925.98</ele>
        <time>2017-12-05T14:13:54Z</time>
      </trkpt>
      <trkpt lat="42.89587" lon="-0.06999">
        <ele>1925.12</ele>
        <time>2017-12-05T14:13:55Z</time>
      </trkpt>
      <trkpt lat="42.89583" lon="-0.07">
        <ele>1924.39</ele>
        <time>2017-12-05T14:13:56Z</time>
      </trkpt>
      <trkpt lat="42.89573" lon="-0.07">
        <ele>1922.87</ele>
        <time>2017-12-05T14:13:58Z</time>
      </trkpt>
      <trkpt lat="42.89565" lon="-0.06996">
        <ele>1921.21</ele>
        <time>2017-12-05T14:14:00Z</time>
      </trkpt>
      <trkpt lat="42.89564" lon="-0.06989">
        <ele>1920.27</ele>
        <time>2017-12-05T14:14:01Z</time>
      </trkpt>
      <trkpt lat="42.89559" lon="-0.06986">
        <ele>1919.33</ele>
        <time>2017-12-05T14:14:02Z</time>
      </trkpt>
      <trkpt lat="42.89556" lon="-0.06976">
        <ele>1916.74</ele>
        <time>2017-12-05T14:14:04Z</time>
      </trkpt>
      <trkpt lat="42.89549" lon="-0.06971">
        <ele>1914.2</ele>
        <time>2017-12-05T14:14:06Z</time>
      </trkpt>
      <trkpt lat="42.89544" lon="-0.06969">
        <ele>1911.56</ele>
        <time>2017-12-05T14:14:08Z</time>
      </trkpt>
      <trkpt lat="42.89534" lon="-0.06969">
        <ele>1908.36</ele>
        <time>2017-12-05T14:14:10Z</time>
      </trkpt>
      <trkpt lat="42.8953" lon="-0.0697">
        <ele>1906.74</ele>
        <time>2017-12-05T14:14:11Z</time>
      </trkpt>
      <trkpt lat="42.89525" lon="-0.06966">
        <ele>1905.07</ele>
        <time>2017-12-05T14:14:12Z</time>
      </trkpt>
      <trkpt lat="42.89524" lon="-0.06959">
        <ele>1903.33</ele>
        <time>2017-12-05T14:14:13Z</time>
      </trkpt>
      <trkpt lat="42.89522" lon="-0.06953">
        <ele>1901.35</ele>
        <time>2017-12-05T14:14:14Z</time>
      </trkpt>
      <trkpt lat="42.89516" lon="-0.06949">
        <ele>1899.75</ele>
        <time>2017-12-05T14:14:15Z</time>
      </trkpt>
      <trkpt lat="42.8951" lon="-0.06948">
        <ele>1898.06</ele>
        <time>2017-12-05T14:14:16Z</time>
      </trkpt>
      <trkpt lat="42.89506" lon="-0.06943">
        <ele>1896.52</ele>
        <time>2017-12-05T14:14:17Z</time>
      </trkpt>
      <trkpt lat="42.89504" lon="-0.06934">
        <ele>1894.85</ele>
        <time>2017-12-05T14:14:18Z</time>
      </trkpt>
      <trkpt lat="42.89507" lon="-0.06924">
        <ele>1893.14</ele>
        <time>2017-12-05T14:14:19Z</time>
      </trkpt>
      <trkpt lat="42.8951" lon="-0.06918">
        <ele>1892.51</ele>
        <time>2017-12-05T14:14:20Z</time>
      </trkpt>
      <trkpt lat="42.89506" lon="-0.06904">
        <ele>1889.62</ele>
        <time>2017-12-05T14:14:22Z</time>
      </trkpt>
      <trkpt lat="42.89507" lon="-0.06897">
        <ele>1887.9</ele>
        <time>2017-12-05T14:14:23Z</time>
      </trkpt>
      <trkpt lat="42.89506" lon="-0.06891">
        <ele>1886.07</ele>
        <time>2017-12-05T14:14:24Z</time>
      </trkpt>
      <trkpt lat="42.89501" lon="-0.06887">
        <ele>1884.2</ele>
        <time>2017-12-05T14:14:25Z</time>
      </trkpt>
      <trkpt lat="42.89494" lon="-0.06888">
        <ele>1882.32</ele>
        <time>2017-12-05T14:14:26Z</time>
      </trkpt>
      <trkpt lat="42.89488" lon="-0.06889">
        <ele>1880.43</ele>
        <time>2017-12-05T14:14:27Z</time>
      </trkpt>
      <trkpt lat="42.8948" lon="-0.06888">
        <ele>1878.69</ele>
        <time>2017-12-05T14:14:28Z</time>
      </trkpt>
      <trkpt lat="42.89471" lon="-0.06887">
        <ele>1877.06</ele>
        <time>2017-12-05T14:14:29Z</time>
      </trkpt>
      <trkpt lat="42.89462" lon="-0.06885">
        <ele>1875.38</ele>
        <time>2017-12-05T14:14:30Z</time>
      </trkpt>
      <trkpt lat="42.89454" lon="-0.06883">
        <ele>1873.69</ele>
        <time>2017-12-05T14:14:31Z</time>
      </trkpt>
      <trkpt lat="42.89449" lon="-0.06881">
        <ele>1873.07</ele>
        <time>2017-12-05T14:14:32Z</time>
      </trkpt>
      <trkpt lat="42.89445" lon="-0.06878">
        <ele>1863.04</ele>
        <time>2017-12-05T14:20:57Z</time>
      </trkpt>
      <trkpt lat="42.89444" lon="-0.06868">
        <ele>1861.61</ele>
        <time>2017-12-05T14:21:40Z</time>
      </trkpt>
      <trkpt lat="42.89443" lon="-0.06861">
        <ele>1859.85</ele>
        <time>2017-12-05T14:21:41Z</time>
      </trkpt>
      <trkpt lat="42.8944" lon="-0.06854">
        <ele>1857.62</ele>
        <time>2017-12-05T14:21:42Z</time>
      </trkpt>
      <trkpt lat="42.8944" lon="-0.06846">
        <ele>1855.34</ele>
        <time>2017-12-05T14:21:43Z</time>
      </trkpt>
      <trkpt lat="42.89437" lon="-0.06838">
        <ele>1853.43</ele>
        <time>2017-12-05T14:21:44Z</time>
      </trkpt>
      <trkpt lat="42.89433" lon="-0.06834">
        <ele>1851.66</ele>
        <time>2017-12-05T14:21:45Z</time>
      </trkpt>
      <trkpt lat="42.89425" lon="-0.06829">
        <ele>1850.04</ele>
        <time>2017-12-05T14:21:46Z</time>
      </trkpt>
      <trkpt lat="42.89417" lon="-0.06821">
        <ele>1848.34</ele>
        <time>2017-12-05T14:21:47Z</time>
      </trkpt>
      <trkpt lat="42.89409" lon="-0.0681">
        <ele>1846.75</ele>
        <time>2017-12-05T14:21:48Z</time>
      </trkpt>
      <trkpt lat="42.89403" lon="-0.06795">
        <ele>1845.13</ele>
        <time>2017-12-05T14:21:49Z</time>
      </trkpt>
      <trkpt lat="42.89402" lon="-0.06783">
        <ele>1843.38</ele>
        <time>2017-12-05T14:21:50Z</time>
      </trkpt>
      <trkpt lat="42.89405" lon="-0.06774">
        <ele>1841.48</ele>
        <time>2017-12-05T14:21:51Z</time>
      </trkpt>
      <trkpt lat="42.8941" lon="-0.06765">
        <ele>1839.7</ele>
        <time>2017-12-05T14:21:52Z</time>
      </trkpt>
      <trkpt lat="42.89411" lon="-0.06755">
        <ele>1837.93</ele>
        <time>2017-12-05T14:21:53Z</time>
      </trkpt>
      <trkpt lat="42.8941" lon="-0.06745">
        <ele>1836.2</ele>
        <time>2017-12-05T14:21:54Z</time>
      </trkpt>
      <trkpt lat="42.89408" lon="-0.06735">
        <ele>1834.32</ele>
        <time>2017-12-05T14:21:55Z</time>
      </trkpt>
      <trkpt lat="42.89409" lon="-0.06726">
        <ele>1832.47</ele>
        <time>2017-12-05T14:21:56Z</time>
      </trkpt>
      <trkpt lat="42.89414" lon="-0.06719">
        <ele>1830.6</ele>
        <time>2017-12-05T14:21:57Z</time>
      </trkpt>
      <trkpt lat="42.89418" lon="-0.06709">
        <ele>1828.9</ele>
        <time>2017-12-05T14:21:58Z</time>
      </trkpt>
      <trkpt lat="42.8942" lon="-0.06696">
        <ele>1827.3</ele>
        <time>2017-12-05T14:21:59Z</time>
      </trkpt>
      <trkpt lat="42.8942" lon="-0.06683">
        <ele>1825.81</ele>
        <time>2017-12-05T14:22:00Z</time>
      </trkpt>
      <trkpt lat="42.8942" lon="-0.06668">
        <ele>1824.26</ele>
        <time>2017-12-05T14:22:01Z</time>
      </trkpt>
      <trkpt lat="42.89424" lon="-0.06654">
        <ele>1822.63</ele>
        <time>2017-12-05T14:22:02Z</time>
      </trkpt>
      <trkpt lat="42.89428" lon="-0.06639">
        <ele>1820.99</ele>
        <time>2017-12-05T14:22:03Z</time>
      </trkpt>
      <trkpt lat="42.89434" lon="-0.06629">
        <ele>1819.2</ele>
        <time>2017-12-05T14:22:04Z</time>
      </trkpt>
      <trkpt lat="42.89441" lon="-0.0662">
        <ele>1817.37</ele>
        <time>2017-12-05T14:22:05Z</time>
      </trkpt>
      <trkpt lat="42.89446" lon="-0.06609">
        <ele>1815.58</ele>
        <time>2017-12-05T14:22:06Z</time>
      </trkpt>
      <trkpt lat="42.8945" lon="-0.06598">
        <ele>1813.63</ele>
        <time>2017-12-05T14:22:07Z</time>
      </trkpt>
      <trkpt lat="42.89454" lon="-0.06589">
        <ele>1811.59</ele>
        <time>2017-12-05T14:22:08Z</time>
      </trkpt>
      <trkpt lat="42.89454" lon="-0.06579">
        <ele>1809.66</ele>
        <time>2017-12-05T14:22:09Z</time>
      </trkpt>
      <trkpt lat="42.89456" lon="-0.06568">
        <ele>1808.08</ele>
        <time>2017-12-05T14:22:10Z</time>
      </trkpt>
      <trkpt lat="42.89459" lon="-0.06559">
        <ele>1806.7</ele>
        <time>2017-12-05T14:22:11Z</time>
      </trkpt>
      <trkpt lat="42.8946" lon="-0.06549">
        <ele>1805.46</ele>
        <time>2017-12-05T14:22:12Z</time>
      </trkpt>
      <trkpt lat="42.89461" lon="-0.06539">
        <ele>1804.23</ele>
        <time>2017-12-05T14:22:13Z</time>
      </trkpt>
      <trkpt lat="42.89463" lon="-0.0653">
        <ele>1802.99</ele>
        <time>2017-12-05T14:22:14Z</time>
      </trkpt>
      <trkpt lat="42.89465" lon="-0.06522">
        <ele>1801.77</ele>
        <time>2017-12-05T14:22:15Z</time>
      </trkpt>
      <trkpt lat="42.89467" lon="-0.06514">
        <ele>1800.63</ele>
        <time>2017-12-05T14:22:16Z</time>
      </trkpt>
      <trkpt lat="42.89466" lon="-0.06506">
        <ele>1799.53</ele>
        <time>2017-12-05T14:22:17Z</time>
      </trkpt>
      <trkpt lat="42.89466" lon="-0.06499">
        <ele>1798.66</ele>
        <time>2017-12-05T14:22:18Z</time>
      </trkpt>
      <trkpt lat="42.89464" lon="-0.06483">
        <ele>1795.03</ele>
        <time>2017-12-05T14:23:37Z</time>
      </trkpt>
      <trkpt lat="42.8946" lon="-0.06486">
        <ele>1788.86</ele>
        <time>2017-12-05T14:25:41Z</time>
      </trkpt>
      <trkpt lat="42.89458" lon="-0.06479">
        <ele>1784.85</ele>
        <time>2017-12-05T14:26:51Z</time>
      </trkpt>
      <trkpt lat="42.89456" lon="-0.06465">
        <ele>1782.42</ele>
        <time>2017-12-05T14:26:53Z</time>
      </trkpt>
      <trkpt lat="42.89456" lon="-0.06456">
        <ele>1781.38</ele>
        <time>2017-12-05T14:26:54Z</time>
      </trkpt>
      <trkpt lat="42.89457" lon="-0.06449">
        <ele>1780.39</ele>
        <time>2017-12-05T14:26:55Z</time>
      </trkpt>
      <trkpt lat="42.89461" lon="-0.06442">
        <ele>1779.43</ele>
        <time>2017-12-05T14:26:56Z</time>
      </trkpt>
      <trkpt lat="42.89465" lon="-0.06436">
        <ele>1778.49</ele>
        <time>2017-12-05T14:26:57Z</time>
      </trkpt>
      <trkpt lat="42.89465" lon="-0.06428">
        <ele>1777.91</ele>
        <time>2017-12-05T14:26:58Z</time>
      </trkpt>
      <trkpt lat="42.89468" lon="-0.06421">
        <ele>1777.38</ele>
        <time>2017-12-05T14:26:59Z</time>
      </trkpt>
      <trkpt lat="42.89471" lon="-0.06414">
        <ele>1776.77</ele>
        <time>2017-12-05T14:27:00Z</time>
      </trkpt>
      <trkpt lat="42.89472" lon="-0.06406">
        <ele>1776.3</ele>
        <time>2017-12-05T14:27:01Z</time>
      </trkpt>
      <trkpt lat="42.89471" lon="-0.06396">
        <ele>1775.77</ele>
        <time>2017-12-05T14:27:02Z</time>
      </trkpt>
      <trkpt lat="42.89471" lon="-0.06387">
        <ele>1774.97</ele>
        <time>2017-12-05T14:27:03Z</time>
      </trkpt>
      <trkpt lat="42.89474" lon="-0.0638">
        <ele>1773.99</ele>
        <time>2017-12-05T14:27:04Z</time>
      </trkpt>
      <trkpt lat="42.8948" lon="-0.06372">
        <ele>1772.89</ele>
        <time>2017-12-05T14:27:05Z</time>
      </trkpt>
      <trkpt lat="42.89482" lon="-0.06363">
        <ele>1771.87</ele>
        <time>2017-12-05T14:27:06Z</time>
      </trkpt>
      <trkpt lat="42.89479" lon="-0.06352">
        <ele>1770.8</ele>
        <time>2017-12-05T14:27:07Z</time>
      </trkpt>
      <trkpt lat="42.89478" lon="-0.06341">
        <ele>1769.55</ele>
        <time>2017-12-05T14:27:08Z</time>
      </trkpt>
      <trkpt lat="42.89481" lon="-0.06332">
        <ele>1768.24</ele>
        <time>2017-12-05T14:27:09Z</time>
      </trkpt>
      <trkpt lat="42.89486" lon="-0.06323">
        <ele>1766.94</ele>
        <time>2017-12-05T14:27:10Z</time>
      </trkpt>
      <trkpt lat="42.89492" lon="-0.06314">
        <ele>1765.84</ele>
        <time>2017-12-05T14:27:11Z</time>
      </trkpt>
      <trkpt lat="42.89497" lon="-0.06304">
        <ele>1764.76</ele>
        <time>2017-12-05T14:27:12Z</time>
      </trkpt>
      <trkpt lat="42.89497" lon="-0.06294">
        <ele>1763.55</ele>
        <time>2017-12-05T14:27:13Z</time>
      </trkpt>
      <trkpt lat="42.89492" lon="-0.06287">
        <ele>1762.44</ele>
        <time>2017-12-05T14:27:14Z</time>
      </trkpt>
      <trkpt lat="42.89486" lon="-0.06283">
        <ele>1761.25</ele>
        <time>2017-12-05T14:27:15Z</time>
      </trkpt>
      <trkpt lat="42.89481" lon="-0.06279">
        <ele>1760.05</ele>
        <time>2017-12-05T14:27:16Z</time>
      </trkpt>
      <trkpt lat="42.89476" lon="-0.06275">
        <ele>1759.61</ele>
        <time>2017-12-05T14:27:17Z</time>
      </trkpt>
      <trkpt lat="42.8947" lon="-0.0627">
        <ele>1759.21</ele>
        <time>2017-12-05T14:27:19Z</time>
      </trkpt>
      <trkpt lat="42.89468" lon="-0.06259">
        <ele>1758.87</ele>
        <time>2017-12-05T14:27:21Z</time>
      </trkpt>
      <trkpt lat="42.8947" lon="-0.06248">
        <ele>1758.47</ele>
        <time>2017-12-05T14:27:23Z</time>
      </trkpt>
      <trkpt lat="42.89467" lon="-0.06241">
        <ele>1758.02</ele>
        <time>2017-12-05T14:27:25Z</time>
      </trkpt>
      <trkpt lat="42.89463" lon="-0.0624">
        <ele>1756.06</ele>
        <time>2017-12-05T14:27:26Z</time>
      </trkpt>
      <trkpt lat="42.89458" lon="-0.06241">
        <ele>1753.78</ele>
        <time>2017-12-05T14:27:27Z</time>
      </trkpt>
      <trkpt lat="42.89452" lon="-0.06242">
        <ele>1751.58</ele>
        <time>2017-12-05T14:27:28Z</time>
      </trkpt>
      <trkpt lat="42.89446" lon="-0.06244">
        <ele>1749.5</ele>
        <time>2017-12-05T14:27:29Z</time>
      </trkpt>
      <trkpt lat="42.8944" lon="-0.06243">
        <ele>1747.54</ele>
        <time>2017-12-05T14:27:30Z</time>
      </trkpt>
      <trkpt lat="42.89432" lon="-0.06243">
        <ele>1745.64</ele>
        <time>2017-12-05T14:27:31Z</time>
      </trkpt>
      <trkpt lat="42.89425" lon="-0.06245">
        <ele>1743.85</ele>
        <time>2017-12-05T14:27:32Z</time>
      </trkpt>
      <trkpt lat="42.89419" lon="-0.06248">
        <ele>1742.23</ele>
        <time>2017-12-05T14:27:33Z</time>
      </trkpt>
      <trkpt lat="42.89413" lon="-0.06248">
        <ele>1740.62</ele>
        <time>2017-12-05T14:27:34Z</time>
      </trkpt>
      <trkpt lat="42.89407" lon="-0.06247">
        <ele>1738.99</ele>
        <time>2017-12-05T14:27:35Z</time>
      </trkpt>
      <trkpt lat="42.89401" lon="-0.06248">
        <ele>1737.62</ele>
        <time>2017-12-05T14:27:36Z</time>
      </trkpt>
      <trkpt lat="42.89394" lon="-0.06249">
        <ele>1736.43</ele>
        <time>2017-12-05T14:27:37Z</time>
      </trkpt>
      <trkpt lat="42.89387" lon="-0.06246">
        <ele>1735.41</ele>
        <time>2017-12-05T14:27:38Z</time>
      </trkpt>
      <trkpt lat="42.8938" lon="-0.06238">
        <ele>1734.47</ele>
        <time>2017-12-05T14:27:39Z</time>
      </trkpt>
      <trkpt lat="42.89375" lon="-0.06226">
        <ele>1733.45</ele>
        <time>2017-12-05T14:27:40Z</time>
      </trkpt>
      <trkpt lat="42.89366" lon="-0.06218">
        <ele>1732.56</ele>
        <time>2017-12-05T14:27:41Z</time>
      </trkpt>
      <trkpt lat="42.89358" lon="-0.06214">
        <ele>1731.38</ele>
        <time>2017-12-05T14:27:42Z</time>
      </trkpt>
      <trkpt lat="42.89352" lon="-0.06208">
        <ele>1730.32</ele>
        <time>2017-12-05T14:27:43Z</time>
      </trkpt>
      <trkpt lat="42.8935" lon="-0.06197">
        <ele>1729</ele>
        <time>2017-12-05T14:27:44Z</time>
      </trkpt>
      <trkpt lat="42.89341" lon="-0.06189">
        <ele>1727.93</ele>
        <time>2017-12-05T14:27:45Z</time>
      </trkpt>
      <trkpt lat="42.89332" lon="-0.06181">
        <ele>1726.97</ele>
        <time>2017-12-05T14:27:46Z</time>
      </trkpt>
      <trkpt lat="42.89325" lon="-0.0617">
        <ele>1726.17</ele>
        <time>2017-12-05T14:27:47Z</time>
      </trkpt>
      <trkpt lat="42.89322" lon="-0.06156">
        <ele>1725.37</ele>
        <time>2017-12-05T14:27:48Z</time>
      </trkpt>
      <trkpt lat="42.89316" lon="-0.06144">
        <ele>1724.42</ele>
        <time>2017-12-05T14:27:49Z</time>
      </trkpt>
      <trkpt lat="42.89311" lon="-0.06133">
        <ele>1723.4</ele>
        <time>2017-12-05T14:27:50Z</time>
      </trkpt>
      <trkpt lat="42.89307" lon="-0.06122">
        <ele>1722.31</ele>
        <time>2017-12-05T14:27:51Z</time>
      </trkpt>
      <trkpt lat="42.89305" lon="-0.06111">
        <ele>1721.21</ele>
        <time>2017-12-05T14:27:52Z</time>
      </trkpt>
      <trkpt lat="42.89308" lon="-0.061">
        <ele>1720.15</ele>
        <time>2017-12-05T14:27:53Z</time>
      </trkpt>
      <trkpt lat="42.89314" lon="-0.06089">
        <ele>1719.01</ele>
        <time>2017-12-05T14:27:54Z</time>
      </trkpt>
      <trkpt lat="42.89325" lon="-0.06086">
        <ele>1718.13</ele>
        <time>2017-12-05T14:27:55Z</time>
      </trkpt>
      <trkpt lat="42.89336" lon="-0.06083">
        <ele>1717.33</ele>
        <time>2017-12-05T14:27:56Z</time>
      </trkpt>
      <trkpt lat="42.89346" lon="-0.06082">
        <ele>1716.61</ele>
        <time>2017-12-05T14:27:57Z</time>
      </trkpt>
      <trkpt lat="42.89353" lon="-0.06081">
        <ele>1715.37</ele>
        <time>2017-12-05T14:27:58Z</time>
      </trkpt>
      <trkpt lat="42.89357" lon="-0.06077">
        <ele>1714.66</ele>
        <time>2017-12-05T14:27:59Z</time>
      </trkpt>
      <trkpt lat="42.89353" lon="-0.06073">
        <ele>1713.88</ele>
        <time>2017-12-05T14:28:04Z</time>
      </trkpt>
      <trkpt lat="42.89348" lon="-0.0607">
        <ele>1712.53</ele>
        <time>2017-12-05T14:28:05Z</time>
      </trkpt>
      <trkpt lat="42.89342" lon="-0.06066">
        <ele>1710.86</ele>
        <time>2017-12-05T14:28:06Z</time>
      </trkpt>
      <trkpt lat="42.89337" lon="-0.06063">
        <ele>1710.24</ele>
        <time>2017-12-05T14:28:07Z</time>
      </trkpt>
      <trkpt lat="42.89333" lon="-0.0606">
        <ele>1708.64</ele>
        <time>2017-12-05T14:28:08Z</time>
      </trkpt>
      <trkpt lat="42.89328" lon="-0.06057">
        <ele>1708.01</ele>
        <time>2017-12-05T14:28:09Z</time>
      </trkpt>
      <trkpt lat="42.89321" lon="-0.06052">
        <ele>1707.31</ele>
        <time>2017-12-05T14:28:11Z</time>
      </trkpt>
      <trkpt lat="42.89312" lon="-0.06047">
        <ele>1706.44</ele>
        <time>2017-12-05T14:28:15Z</time>
      </trkpt>
      <trkpt lat="42.89308" lon="-0.06044">
        <ele>1705.98</ele>
        <time>2017-12-05T14:28:26Z</time>
      </trkpt>
      <trkpt lat="42.89306" lon="-0.06039">
        <ele>1702.94</ele>
        <time>2017-12-05T14:28:37Z</time>
      </trkpt>
      <trkpt lat="42.89302" lon="-0.06035">
        <ele>1699.86</ele>
        <time>2017-12-05T14:28:44Z</time>
      </trkpt>
      <trkpt lat="42.89297" lon="-0.06033">
        <ele>1697.72</ele>
        <time>2017-12-05T14:28:49Z</time>
      </trkpt>
      <trkpt lat="42.89294" lon="-0.06029">
        <ele>1696.08</ele>
        <time>2017-12-05T14:28:59Z</time>
      </trkpt>
      <trkpt lat="42.89289" lon="-0.06026">
        <ele>1680.26</ele>
        <time>2017-12-05T14:33:24Z</time>
      </trkpt>
    </trkseg>
  </trk>
</gpx>